logo
Games released in 2015
# Game Release date
Price
Score rank
(Userscore / Metascore)
Owners
Playtime (Median)
Developer(s)
Publisher(s)
1 Grand Theft Auto V Apr 14, 2015 $14.8N/A (N/A/96%)20,000,000 .. 50,000,00008:45 (02:08)Rockstar NorthRockstar Games
2 Divinity: Original Sin - Enhanced Edition Oct 27, 2015 $39.99N/A (N/A/94%)1,000,000 .. 2,000,00005:40 (01:53)Larian StudiosLarian Studios
3 The Witcher 3: Wild Hunt May 18, 2015 $39.99N/A (N/A/93%)10,000,000 .. 20,000,00013:44 (06:58)CD PROJEKT REDCD PROJEKT RED
4 Undertale Sep 15, 2015 $9.99N/A (N/A/92%)2,000,000 .. 5,000,00010:46 (07:10)tobyfoxtobyfox
5 METAL GEAR SOLID V: THE PHANTOM PAIN Sep 1, 2015 $19.99N/A (N/A/91%)1,000,000 .. 2,000,00010:09 (08:45)Konami Digital EntertainmentKonami Digital Entertainment
6 Nuclear Throne Dec 5, 2015 $11.99N/A (N/A/89%)500,000 .. 1,000,00000:00 (00:00)VlambeerVlambeer
7 Pillars of Eternity Mar 26, 2015 $29.99N/A (N/A/89%)1,000,000 .. 2,000,00000:00 (00:00)Obsidian EntertainmentParadox Interactive
8 Ori and the Blind Forest Mar 11, 2015 N/AN/A (N/A/88%)1,000,000 .. 2,000,00000:19 (00:06)Moon Studios GmbHXbox Game Studios
9 Kerbal Space Program Apr 27, 2015 $9.99N/A (N/A/88%)2,000,000 .. 5,000,00006:55 (08:58)SquadPrivate Division
10 Crypt of the NecroDancer Apr 23, 2015 $14.99N/A (N/A/87%)2,000,000 .. 5,000,00002:08 (00:42)Brace Yourself GamesBrace Yourself Games, Klei Entertainment
11 Dying Light Jan 26, 2015 $14.99N/A (N/A/87%)5,000,000 .. 10,000,00003:05 (02:40)TechlandTechland
12 Mushihimesama Nov 12, 2015 $19.99N/A (N/A/86%)20,000 .. 50,00000:00 (00:00)CAVE Interactive CO.,LTD.Degica
13 Oddworld: New 'n' Tasty Feb 25, 2015 $19.99N/A (N/A/86%)200,000 .. 500,00000:00 (00:00)Just Add Water (Developments), Ltd.Oddworld Inhabitants, Inc.
14 Her Story Jun 24, 2015 $9.99N/A (N/A/86%)1,000,000 .. 2,000,00000:00 (00:00)Sam BarlowSam Barlow
15 Homeworld Remastered Collection Feb 25, 2015 $34.99N/A (N/A/86%)500,000 .. 1,000,00000:00 (00:00)Gearbox SoftwareGearbox Publishing
16 DiRT Rally Dec 7, 2015 $14.99N/A (N/A/86%)2,000,000 .. 5,000,00007:44 (02:34)Codemasters, Feral Interactive (Linux), Feral Interactive (Mac)Codemasters, Feral Interactive (Linux), Feral Interactive (Mac), Electronic Arts
17 Rocket League Jul 7, 2015 N/AN/A (N/A/86%)10,000,000 .. 20,000,00009:20 (03:26)Psyonix LLCPsyonix LLC
18 Zenzizenzic Jul 23, 2015 $9.99N/A (N/A/85%)0 .. 20,00000:00 (00:00)bitHuffelAdult Swim Games
19 Roche Fusion Jan 23, 2015 $5.99N/A (N/A/85%)0 .. 20,00000:00 (00:00)amulwareamulware
20 Mighty Switch Force! Hyper Drive Edition Jun 25, 2015 $9.99N/A (N/A/85%)20,000 .. 50,00000:00 (00:00)WayForwardWayForward
21 Chaos Reborn Oct 26, 2015 $9.99N/A (N/A/85%)50,000 .. 100,00000:00 (00:00)Snapshot Games Inc.Snapshot Games Inc.
22 System Shock: Enhanced Edition Sep 22, 2015 $9.99N/A (N/A/85%)200,000 .. 500,00000:00 (00:00)Looking Glass Studios, Nightdive StudiosNightdive Studios
23 Mega Man Legacy Collection Aug 24, 2015 $14.99N/A (N/A/85%)200,000 .. 500,00000:00 (00:00)CapcomCapcom
24 Cities: Skylines Mar 10, 2015 $29.99N/A (N/A/85%)5,000,000 .. 10,000,00005:09 (04:29)Colossal Order Ltd.Paradox Interactive
25 Bulb Boy Oct 29, 2015 $8.99N/A (N/A/84%)100,000 .. 200,00000:00 (00:00)BulbwareBulbware
26 80 Days Sep 28, 2015 $12.99N/A (N/A/84%)100,000 .. 200,00000:00 (00:00)inkle Ltd, Cape Guy Ltdinkle Ltd
27 GUILTY GEAR Xrd -SIGN- Dec 9, 2015 $29.99N/A (N/A/84%)200,000 .. 500,00000:00 (00:00)Arc System WorksArc System Works
28 Grim Fandango Remastered Jan 26, 2015 $14.99N/A (N/A/84%)200,000 .. 500,00000:00 (00:00)Double Fine ProductionsDouble Fine Productions
29 SOMA Sep 21, 2015 $29.99N/A (N/A/84%)1,000,000 .. 2,000,00000:00 (00:00)Frictional GamesFrictional Games
30 Mortal Kombat X Apr 13, 2015 $19.99N/A (N/A/84%)2,000,000 .. 5,000,00001:59 (01:24)NetherRealm Studios, QLOCWarner Bros. Interactive Entertainment
31 Fallout 4 Nov 9, 2015 $19.99N/A (N/A/84%)5,000,000 .. 10,000,00006:45 (07:29)Bethesda Game StudiosBethesda Softworks
32 Beyond Sol Jun 30, 2015 $9.99N/A (N/A/83%)0 .. 20,00000:00 (00:00)Praxia Entertainment IncPraxia Entertainment Inc
33 Divide By Sheep Jul 2, 2015 $4.99N/A (N/A/83%)100,000 .. 200,00000:00 (00:00)Victor Solodilov, Denis NovikovtinyBuild
34 Project CARS Mar 15, 2015 $14.99N/A (N/A/83%)1,000,000 .. 2,000,00000:00 (00:00)Slightly Mad StudiosCodemasters, Slightly Mad Studios, Electronic Arts
35 HELLDIVERS Dive Harder Edition Dec 7, 2015 $19.99N/A (N/A/83%)1,000,000 .. 2,000,00062:21 (20:47)Arrowhead Game StudiosPlayStation Mobile, Inc.
36 Broforce Oct 15, 2015 $14.99N/A (N/A/83%)2,000,000 .. 5,000,00000:00 (00:00)Free LivesDevolver Digital
37 Prison Architect Oct 6, 2015 $29.99N/A (N/A/83%)2,000,000 .. 5,000,00002:06 (03:04)Double Eleven, Introversion SoftwareParadox Interactive
38 SMITE Sep 8, 2015 FreeN/A (N/A/83%)10,000,000 .. 20,000,00010:43 (17:03)Titan Forge GamesHi-Rez Studios
39 The Next Penelope May 29, 2015 $12.99N/A (N/A/82%)20,000 .. 50,00000:00 (00:00)Aurelien RegardPlug In Digital
40 Ninja Pizza Girl Sep 30, 2015 $6.99N/A (N/A/82%)50,000 .. 100,00000:00 (00:00)Disparity GamesDisparity Games
41 OlliOlli2: Welcome to Olliwood Aug 11, 2015 $14.99N/A (N/A/82%)50,000 .. 100,00000:00 (00:00)Roll7Devolver Digital
42 BLACKHOLE Feb 27, 2015 $8.99N/A (N/A/82%)200,000 .. 500,00000:00 (00:00)FiolaSoft Studio1C Entertainment
43 Kero Blaster Nov 11, 2015 $9.99N/A (N/A/82%)200,000 .. 500,00000:00 (00:00)Studio PixelPLAYISM
44 Technobabylon May 2015 $14.99N/A (N/A/82%)100,000 .. 200,00000:00 (00:00)Technocrat GamesWadjet Eye Games
45 Invisible, Inc. May 12, 2015 $19.99N/A (N/A/82%)500,000 .. 1,000,00000:00 (00:00)Klei EntertainmentKlei Entertainment
46 Resident Evil Jan 19, 2015 $4.99N/A (N/A/82%)1,000,000 .. 2,000,00000:00 (00:00)CAPCOM Co., Ltd.CAPCOM Co., Ltd.
47 Hacknet Aug 12, 2015 $9.99N/A (N/A/82%)1,000,000 .. 2,000,00000:00 (00:00)Team Fractal AlligatorFellow Traveller
48 Duck Game Jun 4, 2015 $12.99N/A (N/A/82%)1,000,000 .. 2,000,00000:51 (00:24)Landon PodbielskiAdult Swim Games
49 Vietnam ‘65 Mar 5, 2015 $9.99N/A (N/A/81%)20,000 .. 50,00000:00 (00:00)Every Single SoldierSlitherine Ltd.
50 Kalimba Apr 22, 2015 $9.99N/A (N/A/81%)50,000 .. 100,00000:00 (00:00)Press PlayXbox Game Studios
51 Order of Battle: World War II Apr 30, 2015 FreeN/A (N/A/81%)200,000 .. 500,00000:00 (00:00)The ArtistocratsSlitherine Ltd.
52 The Age of Decadence Oct 14, 2015 $12.99N/A (N/A/81%)100,000 .. 200,00000:00 (00:00)Iron Tower StudioIron Tower Studio
53 Shadowrun: Hong Kong - Extended Edition Aug 20, 2015 $19.99N/A (N/A/81%)500,000 .. 1,000,00000:00 (00:00)Harebrained SchemesParadox Interactive
54 Downwell Oct 15, 2015 $2.99N/A (N/A/81%)200,000 .. 500,00000:00 (00:00)MoppinDevolver Digital
55 SUNLESS SEA Feb 6, 2015 $18.99N/A (N/A/81%)500,000 .. 1,000,00000:00 (00:00)Failbetter GamesFailbetter Games
56 Galactic Civilizations III May 14, 2015 $39.99N/A (N/A/81%)500,000 .. 1,000,00000:00 (00:00)Stardock EntertainmentStardock Entertainment
57 Bowl Bound College Football Sep 3, 2015 $19.99N/A (N/A/80%)20,000 .. 50,00000:00 (00:00)Grey Dog SoftwareViva Meda
58 Circa Infinity Sep 9, 2015 $7.99N/A (N/A/80%)20,000 .. 50,00000:00 (00:00)Kenny SunKenny Sun
59 Company of Heroes 2 - The British Forces Sep 2, 2015 $12.99N/A (N/A/80%)100,000 .. 200,00000:00 (00:00)Relic Entertainment, Feral Interactive (Mac), Feral Interactive (Linux)SEGA, Feral Interactive (Mac), Feral Interactive (Linux)
60 Penarium Sep 22, 2015 $9.99N/A (N/A/80%)50,000 .. 100,00000:00 (00:00)Self Made MiracleTeam17 Digital Ltd
61 Volume Aug 18, 2015 $19.99N/A (N/A/80%)50,000 .. 100,00000:00 (00:00)Bithell GamesBithell Games
62 DARIUSBURST Chronicle Saviours Dec 3, 2015 $14.99N/A (N/A/80%)50,000 .. 100,00000:00 (00:00)PyramidDegica, Chara-Ani, TAITO CORP.
63 The Book of Unwritten Tales 2 Feb 19, 2015 $29.99N/A (N/A/80%)20,000 .. 50,00000:00 (00:00)KING ArtTHQ Nordic
64 Odallus: The Dark Call Jul 15, 2015 $9.99N/A (N/A/80%)50,000 .. 100,00000:00 (00:00)JoyMasherJoyMasher
65 2064: Read Only Memories Oct 6, 2015 $19.99N/A (N/A/80%)200,000 .. 500,00000:00 (00:00)MidBoss, LLC.MidBoss, LLC.
66 Dropsy Sep 10, 2015 $9.99N/A (N/A/80%)50,000 .. 100,00000:00 (00:00)Tendershoot, A Jolly CorpseDevolver Digital
67 The Legend of Heroes: Trails in the Sky SC Oct 29, 2015 $29.99N/A (N/A/80%)100,000 .. 200,00000:00 (00:00)Nihon FalcomXSEED Games, Marvelous USA, Inc.
68 Guns, Gore & Cannoli Apr 30, 2015 $9.99N/A (N/A/80%)100,000 .. 200,00000:00 (00:00)Rogueside, ClaeysbrothersRogueside
69 Lovers in a Dangerous Spacetime Sep 9, 2015 $14.99N/A (N/A/80%)200,000 .. 500,00001:40 (00:33)Asteroid BaseAsteroid Base
70 Rampage Knights Sep 4, 2015 $11.99N/A (N/A/80%)200,000 .. 500,00000:00 (00:00)Rake in GrassRake in Grass
71 ArcheAge Mar 26, 2015 FreeN/A (N/A/80%)1,000,000 .. 2,000,00000:00 (00:00)XLGAMESTrion Worlds
72 Card Hunter Jul 13, 2015 FreeN/A (N/A/80%)1,000,000 .. 2,000,00000:00 (00:00)The Knights of UnityThe Knights of Unity
73 Axiom Verge May 14, 2015 $19.99N/A (N/A/80%)200,000 .. 500,00000:00 (00:00)Thomas Happ Games LLCThomas Happ Games LLC
74 Total War: ATTILA Feb 17, 2015 $44.99N/A (N/A/80%)2,000,000 .. 5,000,00000:00 (00:00)CREATIVE ASSEMBLYSEGA
75 Elite Dangerous Apr 2, 2015 $29.99N/A (N/A/80%)2,000,000 .. 5,000,00005:31 (05:24)Frontier DevelopmentsFrontier Developments
76 Frozen Cortex Feb 19, 2015 $24.99N/A (N/A/79%)20,000 .. 50,00000:00 (00:00)Mode 7Mode 7
77 Else Heart.Break() Sep 24, 2015 $24.99N/A (N/A/79%)200,000 .. 500,00000:00 (00:00)Erik Svedäng, El Huervo / Niklas Åkerblad, Tobias Sjögren, Oscar "Ratvader" Rydelius, Johannes GotlénErik Svedäng AB
78 The Magic Circle Jul 9, 2015 $19.99N/A (N/A/79%)100,000 .. 200,00000:00 (00:00)QuestionQuestion
79 STASIS Aug 31, 2015 $9.99N/A (N/A/79%)200,000 .. 500,00000:00 (00:00)THE BROTHERHOODTHE BROTHERHOOD
80 Assault Android Cactus+ Sep 23, 2015 $19.99N/A (N/A/79%)100,000 .. 200,00000:00 (00:00)Witch BeamWitch Beam
81 iRacing Jan 12, 2015 N/AN/A (N/A/79%)200,000 .. 500,00000:00 (00:00)iRacing.com Motorsport Simulations, iRacingiRacing.com Motorsport Simulations, iRacing
82 BADLAND: Game of the Year Edition May 26, 2015 $9.99N/A (N/A/79%)200,000 .. 500,00000:00 (00:00)FrogmindFrogmind
83 The Incredible Adventures of Van Helsing: Final Cut Nov 6, 2015 $44.99N/A (N/A/79%)500,000 .. 1,000,00000:00 (00:00)NeocoreGamesNeocoreGames
84 Jotun: Valhalla Edition Sep 29, 2015 $14.99N/A (N/A/79%)2,000,000 .. 5,000,00000:00 (00:00)Thunder Lotus GamesThunder Lotus Games
85 Warhammer: End Times - Vermintide Oct 23, 2015 $29.99N/A (N/A/79%)1,000,000 .. 2,000,00003:24 (01:08)FatsharkFatshark
86 DARK SOULS II: Scholar of the First Sin Apr 1, 2015 $29.99N/A (N/A/79%)2,000,000 .. 5,000,00007:29 (13:43)FromSoftware, IncBANDAI NAMCO Entertainment, FromSoftware, Inc
87 AR-K: The Great Escape Jul 14, 2015 $7.99N/A (N/A/78%)0 .. 20,00000:00 (00:00)GATO STUDIOGATO STUDIO
88 Avernum 2: Crystal Souls Jan 14, 2015 $19.99N/A (N/A/78%)50,000 .. 100,00000:00 (00:00)Spiderweb SoftwareSpiderweb Software
89 GALAK-Z Oct 29, 2015 $19.99N/A (N/A/78%)100,000 .. 200,00000:00 (00:00)17-BIT17-BIT
90 Mushroom 11 Oct 15, 2015 $14.99N/A (N/A/78%)100,000 .. 200,00000:00 (00:00)UntameUntame
91 Apotheon Feb 3, 2015 $14.99N/A (N/A/78%)200,000 .. 500,00000:00 (00:00)AlientrapAlientrap
92 Human Resource Machine Oct 15, 2015 $14.99N/A (N/A/78%)500,000 .. 1,000,00000:00 (00:00)Tomorrow CorporationTomorrow Corporation
93 Hand of Fate Feb 17, 2015 $19.99N/A (N/A/78%)500,000 .. 1,000,00000:00 (00:00)Defiant DevelopmentDefiant Development
94 RUNNING WITH RIFLES Apr 2, 2015 $14.99N/A (N/A/78%)1,000,000 .. 2,000,00000:02 (00:00)Osumia GamesOsumia Games
95 Three Fourths Home: Extended Edition Mar 20, 2015 $4.99N/A (N/A/77%)20,000 .. 50,00000:00 (00:00)[bracket]gamesDigerati
96 Pix the Cat Jan 29, 2015 $4.99N/A (N/A/77%)50,000 .. 100,00000:00 (00:00)PastagamesFocus Home Interactive
97 Interloper May 21, 2015 FreeN/A (N/A/77%)20,000 .. 50,00000:00 (00:00)Monogon GamesMonogon Games
98 Deathtrap Feb 4, 2015 $19.99N/A (N/A/77%)200,000 .. 500,00000:24 (00:08)NeocoreGamesNeocoreGames
99 Aviary Attorney Dec 21, 2015 $14.99N/A (N/A/77%)50,000 .. 100,00000:00 (00:00)Sketchy LogicSketchy Logic
100 Grey Goo Jan 23, 2015 $29.99N/A (N/A/77%)200,000 .. 500,00000:00 (00:00)Petroglyph, Six FootSix Foot, Grey Box
101 Tales of Zestiria Oct 19, 2015 $49.99N/A (N/A/77%)500,000 .. 1,000,00003:23 (01:07)BANDAI NAMCO Studio Inc.BANDAI NAMCO Entertainment
102 Mini Metro Nov 6, 2015 $9.99N/A (N/A/77%)500,000 .. 1,000,00000:00 (00:00)Dinosaur Polo ClubDinosaur Polo Club
103 Evolve Stage 2 Feb 10, 2015 N/AN/A (N/A/77%)5,000,000 .. 10,000,00000:00 (00:00)Turtle Rock Studios2K
104 Gunpowder Jul 8, 2015 $1.99N/A (N/A/76%)0 .. 20,00000:00 (00:00)Rogue Rocket GamesRogue Rocket Games
105 Galacide Jul 28, 2015 $9.99N/A (N/A/76%)0 .. 20,00000:00 (00:00)Puny HumanPuny Human
106 Luckslinger Jul 16, 2015 $9.99N/A (N/A/76%)20,000 .. 50,00000:00 (00:00)DuckbridgeDuckbridge
107 JumpJet Rex Apr 21, 2015 $9.99N/A (N/A/76%)50,000 .. 100,00000:00 (00:00)TreeFortress GamesTreeFortress Games
108 Concrete Jungle Sep 23, 2015 $6.99N/A (N/A/76%)100,000 .. 200,00000:00 (00:00)ColePowered GamesColePowered Games
109 Ys VI: The Ark of Napishtim Apr 28, 2015 $19.99N/A (N/A/76%)100,000 .. 200,00000:00 (00:00)Nihon FalcomXSEED Games, Marvelous USA, Inc.
110 Overture Jan 1, 2015 $4.99N/A (N/A/76%)200,000 .. 500,00000:00 (00:00)Black Shell GamesPlug In Digital
111 Castle In The Darkness Feb 5, 2015 $9.99N/A (N/A/76%)50,000 .. 100,00000:00 (00:00)Matt Kap, Nicalis, Inc.Nicalis, Inc.
112 STAR WARS Battlefront Nov 16, 2015 $19.99N/A (N/A/76%)200,000 .. 500,00000:00 (00:00)DICEElectronic Arts
113 Pathologic Classic HD Oct 29, 2015 $12.99N/A (N/A/76%)100,000 .. 200,00000:00 (00:00)Ice-Pick Lodge, General ArcadeGood Shepherd Entertainment
114 Audiosurf 2 May 26, 2015 $14.99N/A (N/A/76%)200,000 .. 500,00000:00 (00:00)Dylan FittererDylan Fitterer
115 Blood Bowl 2 Sep 22, 2015 $19.99N/A (N/A/76%)500,000 .. 1,000,00000:00 (00:00)Cyanide StudiosCyanide Studios
116 DISTRAINT: Deluxe Edition Oct 21, 2015 $4.99N/A (N/A/76%)2,000,000 .. 5,000,00000:00 (00:00)Jesse MakkonenJesse Makkonen
117 Wolfenstein: The Old Blood May 4, 2015 $19.99N/A (N/A/76%)500,000 .. 1,000,00000:00 (00:00)MachineGamesBethesda Softworks
118 Extreme Exorcism Sep 23, 2015 $5.99N/A (N/A/75%)0 .. 20,00000:00 (00:00)Golden Ruby GamesRipstone
119 Ravenmark: Scourge of Estellion Sep 10, 2015 $14.99N/A (N/A/75%)20,000 .. 50,00000:00 (00:00)Witching Hour StudiosSlitherine Ltd.
120 Serpent in the Staglands May 28, 2015 $13.99N/A (N/A/75%)0 .. 20,00000:00 (00:00)Whalenought StudiosWhalenought Studios
121 Gravity Ghost Jan 26, 2015 $14.99N/A (N/A/75%)20,000 .. 50,00000:00 (00:00)Ivy GamesIvy Games
122 Ironcast Mar 26, 2015 $14.99N/A (N/A/75%)50,000 .. 100,00000:00 (00:00)DreadbitRipstone
123 MIND: Path to Thalamus Enhanced Edition Nov 3, 2015 $11.99N/A (N/A/75%)100,000 .. 200,00000:00 (00:00)Pantumaca Barcelona, @CarlosGameDev, Dani Navarro, Luka NietoTalking About Media
124 Rebuild 3: Gangs of Deadsville May 29, 2015 $9.99N/A (N/A/75%)100,000 .. 200,00000:00 (00:00)Northway Games, Sarah NorthwayNorthway Games
125 Satellite Reign Aug 28, 2015 $29.99N/A (N/A/75%)500,000 .. 1,000,00000:00 (00:00)5 Lives Studios5 Lives Studios
126 Chroma Squad Apr 30, 2015 $14.99N/A (N/A/75%)200,000 .. 500,00000:00 (00:00)Behold StudiosBehold Studios
127 Grow Home Feb 4, 2015 $7.99N/A (N/A/75%)200,000 .. 500,00000:00 (00:00)Reflections, a Ubisoft StudioUbisoft
128 Victor Vran ARPG Jul 24, 2015 $4.99N/A (N/A/75%)500,000 .. 1,000,00000:00 (00:00)Haemimont GamesHaemimont Games, EuroVideo Medien
129 Armello Sep 1, 2015 $19.99N/A (N/A/75%)500,000 .. 1,000,00001:17 (00:25)League of GeeksLeague of Geeks
130 A Pixel Story Mar 30, 2015 $11.99N/A (N/A/74%)0 .. 20,00000:00 (00:00)Lamplight StudiosFatshark
131 Ceres Oct 16, 2015 $19.99N/A (N/A/74%)20,000 .. 50,00000:00 (00:00)Jötunn GamesIceberg Interactive
132 Niko: Through The Dream Jul 10, 2015 $9.99N/A (N/A/74%)0 .. 20,00000:00 (00:00)Studio PaintStudio Paint
133 Zombie Vikings Dec 7, 2015 $11.99N/A (N/A/74%)50,000 .. 100,00000:00 (00:00)Zoink GamesZoink Games
134 Crookz - The Big Heist Aug 25, 2015 $9.99N/A (N/A/74%)20,000 .. 50,00000:00 (00:00)Skilltree StudiosKalypso Media Digital
135 Warhammer 40,000: Deathwatch - Enhanced Edition Oct 16, 2015 N/AN/A (N/A/74%)100,000 .. 200,00000:00 (00:00)Rodeo GamesRodeo Games
136 Blackguards 2 Jan 20, 2015 $1.49N/A (N/A/74%)100,000 .. 200,00000:00 (00:00)Daedalic EntertainmentDaedalic Entertainment
137 Action Henk May 11, 2015 $14.99N/A (N/A/74%)100,000 .. 200,00000:00 (00:00)RageSquidRageSquid
138 Oceanhorn: Monster of Uncharted Seas Mar 17, 2015 $14.99N/A (N/A/74%)200,000 .. 500,00000:00 (00:00)Cornfox & Brothers Ltd.Cornfox & Brothers Ltd.
139 Anna's Quest Jul 2, 2015 $9.99N/A (N/A/74%)200,000 .. 500,00000:00 (00:00)Daedalic EntertainmentDaedalic Entertainment
140 The Red Solstice Jul 9, 2015 $9.99N/A (N/A/74%)1,000,000 .. 2,000,00000:00 (00:00)IronwardIronward
141 12 is Better Than 6 Nov 20, 2015 $9.99N/A (N/A/74%)500,000 .. 1,000,00000:00 (00:00)Ink Stains GamesHypeTrain Digital
142 Mordheim: City of the Damned Nov 19, 2015 $19.99N/A (N/A/74%)200,000 .. 500,00000:00 (00:00)Rogue FactorRogue Factor
143 Titan Souls Apr 14, 2015 $14.99N/A (N/A/74%)500,000 .. 1,000,00000:00 (00:00)Acid NerveDevolver Digital
144 Assassin’s Creed Rogue Mar 9, 2015 $19.99N/A (N/A/74%)500,000 .. 1,000,00000:00 (00:00)Ubisoft Sofia, Ubisoft KievUbisoft
145 Assassin's Creed Syndicate Nov 18, 2015 $29.99N/A (N/A/74%)1,000,000 .. 2,000,00000:00 (00:00)Ubisoft Quebec, in collaboration with Ubisoft Annecy, Bucharest, Kiev, Montreal, Montpellier, Shanghai, Singapore, Sofia, Toronto studiosUbisoft
146 Kingdom: Classic Oct 21, 2015 FreeN/A (N/A/74%)1,000,000 .. 2,000,00000:00 (00:00)Noio, LicoriceRaw Fury
147 Just Cause 3 Nov 30, 2015 $19.99N/A (N/A/74%)2,000,000 .. 5,000,00002:37 (03:04)Avalanche StudiosSquare Enix
148 Lemma May 12, 2015 $14.99N/A (N/A/73%)20,000 .. 50,00000:00 (00:00)Helvetica ScenarioHelvetica Scenario
149 0RBITALIS May 28, 2015 $9.99N/A (N/A/73%)50,000 .. 100,00000:00 (00:00)Alan ZucconiMastertronic
150 Blues and Bullets Jul 23, 2015 $4.99N/A (N/A/73%)100,000 .. 200,00000:00 (00:00)A Crowd of MonstersA Crowd of Monsters
151 Disney•Pixar Cars Feb 24, 2015 $19.99N/A (N/A/73%)200,000 .. 500,00000:00 (00:00)BeenoxTHQ, Disney
152 MASSIVE CHALICE Jun 1, 2015 $19.99N/A (N/A/73%)50,000 .. 100,00000:00 (00:00)Double Fine ProductionsDouble Fine Productions
153 Hard West Nov 18, 2015 $19.99N/A (N/A/73%)200,000 .. 500,00000:00 (00:00)CreativeForge GamesGood Shepherd Entertainment
154 Thea: The Awakening Nov 20, 2015 $19.99N/A (N/A/73%)100,000 .. 200,00000:00 (00:00)MuHa GamesMuHa Games
155 Mad Max Sep 1, 2015 $19.99N/A (N/A/73%)2,000,000 .. 5,000,00009:51 (06:33)Avalanche StudiosWarner Bros. Games, Warner Bros. Interactive Entertainment
156 Call of Duty: Black Ops III Nov 5, 2015 $14.99N/A (N/A/73%)2,000,000 .. 5,000,00002:06 (01:35)Treyarch, Aspyr (Mac)Activision, Aspyr (Mac)
157 LOST ORBIT May 12, 2015 $11.99N/A (N/A/72%)0 .. 20,00000:00 (00:00)PixelNAUTSPixelNAUTS
158 Homesick May 28, 2015 $14.99N/A (N/A/72%)50,000 .. 100,00000:00 (00:00)Lucky PauseLucky Pause
159 Convoy Apr 21, 2015 $14.99N/A (N/A/72%)100,000 .. 200,00000:00 (00:00)Convoy GamesIndietopia Games
160 Way of the Samurai 4 Jul 23, 2015 $24.99N/A (N/A/72%)200,000 .. 500,00000:00 (00:00)ACQUIRE Corp.Spike Chunsoft Co., Ltd.
161 Warhammer 40,000: Regicide Sep 8, 2015 $9.99N/A (N/A/72%)200,000 .. 500,00000:00 (00:00)Hammerfall PublishingHammerfall Publishing
162 Big Pharma Aug 27, 2015 $24.99N/A (N/A/72%)100,000 .. 200,00000:00 (00:00)Twice CircledPositech Games
163 Guild of Dungeoneering Jul 14, 2015 $19.99N/A (N/A/72%)200,000 .. 500,00000:00 (00:00)GambrinousGambrinous
164 Tormentum - Dark Sorrow Mar 4, 2015 $11.99N/A (N/A/72%)100,000 .. 200,00000:00 (00:00)OhNoo StudioOhNoo Studio
165 Anno 2205 Nov 3, 2015 $39.99N/A (N/A/72%)200,000 .. 500,00000:00 (00:00)Blue ByteUbisoft
166 UnderRail Dec 18, 2015 $14.99N/A (N/A/72%)200,000 .. 500,00000:00 (00:00)Stygian SoftwareStygian Software
167 LEGO Jurassic World Jun 11, 2015 $19.99N/A (N/A/72%)500,000 .. 1,000,00000:00 (00:00)TT Games LtdWarner Bros. Interactive Entertainment
168 Hyperdimension Neptunia Re;Birth1 Jan 28, 2015 $14.99N/A (N/A/72%)200,000 .. 500,00000:00 (00:00)IDEA FACTORY Co., Ltd., COMPILE HEART Co., Ltd., FELISTELLA Co., Ltd.Idea Factory International, Inc., IDEA FACTORY Co., Ltd.
169 Block N Load Apr 30, 2015 FreeN/A (N/A/72%)2,000,000 .. 5,000,00000:00 (00:00)Toadman Interactive, ArtplantToadman Interactive
170 Zombie Army Trilogy Mar 6, 2015 $44.99N/A (N/A/72%)1,000,000 .. 2,000,00000:00 (00:00)RebellionRebellion
171 Dyscourse Mar 25, 2015 $14.99N/A (N/A/71%)50,000 .. 100,00000:00 (00:00)Owlchemy LabsOwlchemy Labs
172 Sublevel Zero Redux Oct 8, 2015 $14.99N/A (N/A/71%)0 .. 20,00000:00 (00:00)SigtrapSigtrap
173 Cibele Nov 2, 2015 $8.99N/A (N/A/71%)50,000 .. 100,00000:00 (00:00)Star Maid GamesN/A
174 You Must Build A Boat Jun 4, 2015 $4.99N/A (N/A/71%)100,000 .. 200,00000:00 (00:00)EightyEightGamesEightyEightGames
175 Legends of Eisenwald Jul 2, 2015 $9.99N/A (N/A/71%)100,000 .. 200,00000:00 (00:00)Aterdux EntertainmentAterdux Entertainment
176 Battlefield Hardline Mar 16, 2015 $39.99N/A (N/A/71%)100,000 .. 200,00000:00 (00:00)DICEElectronic Arts
177 Act of Aggression - Reboot Edition Sep 2, 2015 $29.99N/A (N/A/71%)100,000 .. 200,00000:00 (00:00)Eugen SystemsEugen Systems
178 Keep Talking and Nobody Explodes Oct 8, 2015 $14.99N/A (N/A/71%)1,000,000 .. 2,000,00000:32 (00:21)Steel Crate GamesSteel Crate Games
179 The Escapists Feb 13, 2015 $17.99N/A (N/A/71%)1,000,000 .. 2,000,00000:16 (00:05)Mouldy Toof StudiosTeam17
180 Harold Feb 12, 2015 $9.99N/A (N/A/70%)0 .. 20,00000:00 (00:00)Moon Spider StudioMoon Spider Studio
181 Bunker - The Underground Game May 21, 2015 $3.99N/A (N/A/70%)0 .. 20,00000:00 (00:00)Nightly Studios2tainment GmbH
182 Shiftlings Mar 3, 2015 $14.99N/A (N/A/70%)50,000 .. 100,00000:00 (00:00)Rock Pocket GamesSierra
183 A Druid's Duel Feb 25, 2015 $7.99N/A (N/A/70%)0 .. 20,00000:00 (00:00)Thoughtshelter GamesSurprise Attack
184 Steel Armor: Blaze of War Mar 5, 2015 $29.99N/A (N/A/70%)0 .. 20,00000:00 (00:00)GraviteamGraviteam
185 Shadow Blade: Reload Aug 10, 2015 $9.99N/A (N/A/70%)20,000 .. 50,00000:00 (00:00)Dead MageDead Mage
186 The Swindle Jul 28, 2015 $14.99N/A (N/A/70%)50,000 .. 100,00000:00 (00:00)Size Five GamesSize Five Games
187 NOBUNAGA'S AMBITION: Sphere of Influence Sep 1, 2015 $23.99N/A (N/A/70%)20,000 .. 50,00000:00 (00:00)KOEI TECMO GAMES CO., LTD.KOEI TECMO GAMES CO., LTD.
188 Dead Synchronicity: Tomorrow Comes Today Apr 10, 2015 $9.99N/A (N/A/70%)100,000 .. 200,00000:00 (00:00)Fictiorama StudiosDaedalic Entertainment
189 StarDrive 2 Apr 9, 2015 $4.99N/A (N/A/70%)50,000 .. 100,00000:00 (00:00)Zero Sum GamesIceberg Interactive
190 Lakeview Cabin Collection Mar 25, 2015 $9.99N/A (N/A/70%)200,000 .. 500,00000:00 (00:00)Roope TamminenRoope Tamminen
191 RONIN Jun 30, 2015 $12.99N/A (N/A/70%)100,000 .. 200,00000:00 (00:00)Tomasz WacławekDevolver Digital
192 Dungeons 2 Apr 24, 2015 $19.99N/A (N/A/70%)1,000,000 .. 2,000,00000:00 (00:00)Realmforge StudiosKalypso Media Digital
193 Fran Bow Aug 27, 2015 $14.99N/A (N/A/70%)500,000 .. 1,000,00000:00 (00:00)Killmonday Games ABKillmonday Games AB
194 Verdun Apr 28, 2015 $19.99N/A (N/A/70%)1,000,000 .. 2,000,00000:00 (00:00)M2H, Blackmill GamesM2H
195 Mayan Death Robots Nov 20, 2015 $6.99N/A (N/A/69%)0 .. 20,00000:00 (00:00)Sileni StudiosVermont Software Studios,LLC
196 Oblitus Feb 27, 2015 $14.99N/A (N/A/69%)20,000 .. 50,00000:00 (00:00)Connor UllmannAdult Swim Games
197 Star Hammer: The Vanguard Prophecy Jun 4, 2015 $19.99N/A (N/A/69%)0 .. 20,00000:00 (00:00)Black Lab GamesSlitherine Ltd.
198 Lumini Sep 3, 2015 $12.99N/A (N/A/69%)0 .. 20,00000:00 (00:00)Speelbaars2Awesome Studio
199 Freaking Meatbags Feb 4, 2015 $9.99N/A (N/A/69%)20,000 .. 50,00000:00 (00:00)Wild FactorPlug In Digital
200 The Coma: Cutting Class Oct 19, 2015 N/AN/A (N/A/69%)0 .. 20,00000:00 (00:00)Devespresso GamesDevespresso Games
201 Clandestine Nov 5, 2015 $19.99N/A (N/A/69%)50,000 .. 100,00000:00 (00:00)Logic ArtistsLogic Artists
202 Albert and Otto Oct 28, 2015 $4.99N/A (N/A/69%)100,000 .. 200,00000:00 (00:00)K Bros GamesK Bros Games
203 Bloodsports.TV Mar 30, 2015 $9.99N/A (N/A/69%)100,000 .. 200,00000:00 (00:00)Toadman Interactive, FatsharkFatshark
204 Valhalla Hills Dec 2, 2015 $0.99N/A (N/A/69%)100,000 .. 200,00000:00 (00:00)Funatics SoftwareDaedalic Entertainment
205 Holy Potatoes! A Weapon Shop?! Jul 13, 2015 $9.99N/A (N/A/69%)200,000 .. 500,00004:07 (01:22)Daylight StudiosDaedalic Entertainment, Daylight Studios
206 FINAL FANTASY TYPE-0 HD Aug 18, 2015 $29.99N/A (N/A/69%)200,000 .. 500,00000:00 (00:00)Square EnixSquare Enix
207 Train Valley Sep 16, 2015 $9.99N/A (N/A/69%)200,000 .. 500,00000:00 (00:00)Alexey Davydov, Sergey Dvoynikov, Timofey ShargorodskiyFlazm, META Publishing
208 DEAD OR ALIVE 5 Last Round: Core Fighters Mar 30, 2015 FreeN/A (N/A/69%)500,000 .. 1,000,00000:00 (00:00)Team NINJA, KOEI TECMO GAMES CO., LTD.KOEI TECMO GAMES CO., LTD.
209 SimplePlanes Dec 17, 2015 $12.99N/A (N/A/69%)500,000 .. 1,000,00000:00 (00:00)Jundroo, LLCJundroo, LLC
210 Paperbound Mar 31, 2015 $9.99N/A (N/A/68%)0 .. 20,00000:00 (00:00)Dissident LogicDissident Logic
211 Parallax Mar 10, 2015 $4.99N/A (N/A/68%)0 .. 20,00000:00 (00:00)Toasty GamesToasty Games
212 Nova-111 Aug 25, 2015 $4.99N/A (N/A/68%)20,000 .. 50,00000:00 (00:00)Funktronic LabsFunktronic Labs
213 Pixel Galaxy Oct 2, 2015 $9.99N/A (N/A/68%)20,000 .. 50,00000:00 (00:00)Serenity ForgeSerenity Forge
214 Warlocks vs Shadows Aug 19, 2015 $13.99N/A (N/A/68%)50,000 .. 100,00000:00 (00:00)Frozen DistrictONE MORE LEVEL
215 White Night Mar 3, 2015 $14.99N/A (N/A/68%)0 .. 20,00000:00 (00:00)OSome StudioPlug In Digital
216 Master Spy Sep 8, 2015 $9.99N/A (N/A/68%)50,000 .. 100,00000:00 (00:00)TURBOGUNTURBOGUN
217 In Between Aug 21, 2015 $1.79N/A (N/A/68%)50,000 .. 100,00000:00 (00:00)GentlymadAssemble Entertainment
218 Masochisia Oct 9, 2015 $7.99N/A (N/A/68%)20,000 .. 50,00000:00 (00:00)OldbloodOldblood
219 The Masterplan Jun 4, 2015 $19.99N/A (N/A/68%)50,000 .. 100,00000:00 (00:00)Shark PunchShark Punch
220 Inside My Radio May 11, 2015 $4.99N/A (N/A/68%)20,000 .. 50,00000:00 (00:00)Seaven StudioIceberg Interactive
221 The Charnel House Trilogy Apr 16, 2015 $5.99N/A (N/A/68%)20,000 .. 50,00000:00 (00:00)Owl CaveOwl Cave
222 FIM Speedway Grand Prix 15 Nov 30, 2015 N/AN/A (N/A/68%)50,000 .. 100,00000:00 (00:00)SoftPlanetSoftPlanet
223 PixelJunk Nom Nom Galaxy Aug 3, 2015 $9.99N/A (N/A/68%)100,000 .. 200,00000:00 (00:00)Q-Games Ltd.Q-Games Ltd.
224 INK Aug 5, 2015 $4.99N/A (N/A/68%)100,000 .. 200,00000:00 (00:00)ZackBellGamesZackBellGames
225 RIDE Mar 27, 2015 $14.99N/A (N/A/68%)100,000 .. 200,00000:00 (00:00)Milestone S.r.l.Milestone S.r.l.
226 Five Nights at Freddy's 3 Mar 2, 2015 $7.99N/A (N/A/68%)500,000 .. 1,000,00000:00 (00:00)Scott CawthonScott Cawthon
227 Car Mechanic Simulator 2015 Apr 23, 2015 $19.99N/A (N/A/68%)500,000 .. 1,000,00000:00 (00:00)Red Dot GamesPlayWay S.A.
228 ARMED SEVEN Mar 6, 2015 $4.99N/A (N/A/67%)0 .. 20,00000:00 (00:00)ASTRO PORTHenteko Doujin
229 Uncanny Valley Apr 23, 2015 $9.99N/A (N/A/67%)50,000 .. 100,00000:00 (00:00)Cowardly CreationsCowardly Creations
230 Last Word May 8, 2015 $9.99N/A (N/A/67%)20,000 .. 50,00000:00 (00:00)Twelve TilesDegica
231 Skyshine's BEDLAM Sep 16, 2015 $19.99N/A (N/A/67%)100,000 .. 200,00000:00 (00:00)Skyshine GamesVersus Evil
232 The Park Oct 27, 2015 $12.99N/A (N/A/67%)100,000 .. 200,00000:00 (00:00)FuncomFuncom
233 Ghost Pirates of Vooju Island Jan 27, 2015 $9.99N/A (N/A/66%)0 .. 20,00000:00 (00:00)Autumn MoonViva Media
234 Swords and Sorcery - Underworld - Definitive Edition Dec 15, 2015 $14.99N/A (N/A/66%)0 .. 20,00000:00 (00:00)OlderBytesOlderBytes
235 Oscura: Lost Light Feb 24, 2015 $6.99N/A (N/A/66%)20,000 .. 50,00000:00 (00:00)Chocolate Liberation FrontSurprise Attack
236 ROOMS: The Toymaker's Mansion May 1, 2015 $14.99N/A (N/A/66%)0 .. 20,00000:00 (00:00)HandMade GameHandMade Game
237 FIVE: Guardians of David Nov 24, 2015 $9.99N/A (N/A/66%)20,000 .. 50,00000:00 (00:00)Kingdom GamesKingdom Games
238 Hot Tin Roof: The Cat That Wore A Fedora Feb 20, 2015 $14.99N/A (N/A/66%)50,000 .. 100,00000:00 (00:00)Glass Bottom GamesGlass Bottom Games
239 Albedo: Eyes from Outer Space Apr 10, 2015 $14.99N/A (N/A/66%)50,000 .. 100,00000:00 (00:00)Z4G0 and Ivan Venturi ProductionsMerge Publishing
240 Sunset May 21, 2015 $19.99N/A (N/A/66%)0 .. 20,00000:00 (00:00)Tale of TalesTale of Tales
241 Rogue State Oct 16, 2015 $7.99N/A (N/A/66%)20,000 .. 50,00000:00 (00:00)LRDGames, Inc.LRDGames, Inc.
242 Citizens of Earth Jan 20, 2015 $14.99N/A (N/A/66%)100,000 .. 200,00000:00 (00:00)Eden IndustriesSEGA
243 Planet of the Eyes Aug 24, 2015 $9.99N/A (N/A/66%)50,000 .. 100,00000:00 (00:00)CococucumberCococucumber
244 The Escapists: The Walking Dead Sep 30, 2015 $17.99N/A (N/A/66%)50,000 .. 100,00000:00 (00:00)Team17 Digital LtdTeam17 Digital Ltd
245 Fairy Fencer F Aug 4, 2015 $9.99N/A (N/A/66%)200,000 .. 500,00000:00 (00:00)Idea Factory, Compile HeartIdea Factory International
246 Saints Row: Gat out of Hell Jan 20, 2015 $14.99N/A (N/A/66%)500,000 .. 1,000,00000:25 (00:08)Deep Silver Volition, High Voltage SoftwareDeep Silver
247 Slow Down, Bull Apr 20, 2015 $1.99N/A (N/A/65%)0 .. 20,00000:00 (00:00)Insomniac GamesInsomniac Games
248 Heroes of Normandie Oct 1, 2015 $29.99N/A (N/A/65%)20,000 .. 50,00000:00 (00:00)Cat RabbitSlitherine Ltd.
249 Stairs Sep 28, 2015 $12.99N/A (N/A/65%)20,000 .. 50,00000:00 (00:00)GreyLight EntertainmentDigital Tribe
250 War, the Game Jan 12, 2015 $6.99N/A (N/A/65%)20,000 .. 50,00000:00 (00:00)GabberGames.comGabberGames.com
251 WRC 5 FIA World Rally Championship Oct 8, 2015 $3.99N/A (N/A/65%)20,000 .. 50,00000:00 (00:00)KT RacingNacon
252 FEIST Jul 23, 2015 $9.99N/A (N/A/65%)20,000 .. 50,00000:00 (00:00)Bits & BeastsFinji
253 Journey To The Center Of The Earth Sep 23, 2015 N/AN/A (N/A/65%)200,000 .. 500,00000:00 (00:00)InSaynInSayn
254 Lethis - Path of Progress Jun 25, 2015 $19.99N/A (N/A/65%)50,000 .. 100,00000:00 (00:00)Triskell InteractiveTriskell Interactive
255 Cradle Jul 24, 2015 $12.99N/A (N/A/65%)50,000 .. 100,00000:00 (00:00)Flying Cafe for SemianimalsFlying Cafe for Semianimals
256 ZOMBI Aug 18, 2015 $19.99N/A (N/A/65%)100,000 .. 200,00000:00 (00:00)Straight RightUbisoft
257 Heroes of Might & Magic III - HD Edition Jan 29, 2015 $14.99N/A (N/A/65%)1,000,000 .. 2,000,00000:00 (00:00)DotemuUbisoft Entertainment
258 Legions of Steel Jul 16, 2015 $19.99N/A (N/A/64%)0 .. 20,00000:00 (00:00)Studio NyxSlitherine Ltd.
259 Legend of Kay Anniversary Jul 27, 2015 $19.99N/A (N/A/64%)20,000 .. 50,00000:00 (00:00)KAIKO, Neon StudiosTHQ Nordic
260 Fire: Ungh’s Quest Apr 9, 2015 $9.99N/A (N/A/64%)50,000 .. 100,00000:00 (00:00)Daedalic EntertainmentDaedalic Entertainment
261 The Incredible Adventures of Van Helsing III May 22, 2015 $14.99N/A (N/A/64%)200,000 .. 500,00000:00 (00:00)NeocoreGamesNeocoreGames
262 Oh...Sir! Prototype Dec 21, 2015 N/AN/A (N/A/64%)100,000 .. 200,00000:00 (00:00)Vile MonarchGood Shepherd Entertainment
263 Sid Meier's Starships Mar 12, 2015 $14.99N/A (N/A/64%)200,000 .. 500,00000:00 (00:00)Firaxis Games2K
264 Phantom Breaker: Battle Grounds Jan 23, 2015 $11.99N/A (N/A/64%)200,000 .. 500,00000:00 (00:00)MAGES. Inc.Degica
265 Kholat Jun 9, 2015 $19.99N/A (N/A/64%)2,000,000 .. 5,000,00000:00 (00:00)IMGN.PROIMGN.PRO
266 Party Hard Aug 25, 2015 $9.99N/A (N/A/64%)200,000 .. 500,00000:00 (00:00)Pinokl Games, KvertatinyBuild
267 Conflicks - Revolutionary Space Battles Nov 5, 2015 $6.99N/A (N/A/63%)20,000 .. 50,00000:00 (00:00)Artifice StudioArtifice Studio
268 Pneuma: Breath of Life Feb 27, 2015 $19.99N/A (N/A/63%)0 .. 20,00000:00 (00:00)Deco Digital, Bevel StudiosDeco Digital
269 MISSING: An Interactive Thriller - Episode One May 25, 2015 N/AN/A (N/A/63%)50,000 .. 100,00000:00 (00:00)Zandel MediaZandel Media
270 Grand Ages: Medieval Sep 25, 2015 $19.99N/A (N/A/63%)100,000 .. 200,00000:00 (00:00)Gaming Minds StudiosKalypso Media Digital
271 SKYHILL Oct 6, 2015 $9.99N/A (N/A/63%)100,000 .. 200,00000:00 (00:00)MandragoraDaedalic Entertainment
272 Life is Feudal: Your Own Nov 17, 2015 $19.99N/A (N/A/63%)200,000 .. 500,00000:00 (00:00)Bitbox Ltd.Bitbox Ltd.
273 Dirty Bomb Jun 2015 FreeN/A (N/A/63%)5,000,000 .. 10,000,00000:00 (00:00)Splash DamageWarchest Ltd.
274 PONCHO Nov 3, 2015 $5.99N/A (N/A/62%)20,000 .. 50,00000:00 (00:00)Delve InteractiveRising Star Games
275 Euclidean Sep 25, 2015 $4.99N/A (N/A/62%)20,000 .. 50,00000:00 (00:00)Alpha Wave EntertainmentAAD Productions
276 NEON STRUCT May 20, 2015 $17.99N/A (N/A/62%)50,000 .. 100,00000:00 (00:00)Minor Key GamesMinor Key Games
277 Etherium Mar 25, 2015 $9.99N/A (N/A/62%)100,000 .. 200,00000:00 (00:00)Tindalos InteractiveFocus Home Interactive
278 Dex May 7, 2015 $19.99N/A (N/A/62%)200,000 .. 500,00000:00 (00:00)Dreadlocks Ltd.Dreadlocks Ltd., Techland, WhisperGames
279 Sym May 7, 2015 $7.99N/A (N/A/61%)0 .. 20,00000:00 (00:00)Atrax GamesMastertronic
280 Disorder Jan 12, 2015 $3.99N/A (N/A/61%)20,000 .. 50,00000:00 (00:00)Swagabyte GamesRooster Teeth Games
281 Traverser Jul 9, 2015 $14.99N/A (N/A/61%)0 .. 20,00000:00 (00:00)Gatling Goat StudiosAdult Swim Games
282 Perils of Man Apr 28, 2015 $9.99N/A (N/A/61%)20,000 .. 50,00000:00 (00:00)IF Games, Vertigo GamesVertigo Games
283 Magnetic: Cage Closed May 26, 2015 $4.99N/A (N/A/61%)20,000 .. 50,00000:00 (00:00)Guru GamesGood Shepherd Entertainment
284 Windward May 12, 2015 $9.99N/A (N/A/61%)200,000 .. 500,00000:00 (00:00)Tasharen Entertainment Inc.Tasharen Entertainment Inc.
285 F1 2015 Jul 9, 2015 $4.99N/A (N/A/61%)2,000,000 .. 5,000,00000:01 (00:00)Codemasters, Feral Interactive (Linux)Codemasters, Feral Interactive (Linux)
286 Sylvio Jun 5, 2015 $12.99N/A (N/A/60%)0 .. 20,00000:00 (00:00)StroboskopStroboskop
287 A Fistful of Gun Sep 23, 2015 $9.99N/A (N/A/60%)100,000 .. 200,00000:00 (00:00)FarmerGnomeDevolver Digital
288 Beyond Eyes Aug 11, 2015 N/AN/A (N/A/60%)100,000 .. 200,00000:00 (00:00)Tiger and Squid, Team17 Digital LtdTeam17 Digital Ltd
289 Decay: The Mare Feb 13, 2015 $4.99N/A (N/A/60%)100,000 .. 200,00000:55 (00:18)Shining Gate SoftwareDaedalic Entertainment
290 I Am Bread Apr 9, 2015 $12.99N/A (N/A/60%)500,000 .. 1,000,00000:00 (00:00)Bossa StudiosBossa Studios
291 Subject 13 May 28, 2015 $9.99N/A (N/A/59%)50,000 .. 100,00000:00 (00:00)Paul CuissetMicroids
292 Cross of the Dutchman Sep 10, 2015 $8.99N/A (N/A/59%)20,000 .. 50,00000:00 (00:00)Triangle StudiosTriangle Studios
293 The Deer God Feb 27, 2015 $14.99N/A (N/A/59%)20,000 .. 50,00000:00 (00:00)Crescent Moon Games, Cinopt StudiosCrescent Moon Games
294 VoidExpanse Apr 2, 2015 $14.99N/A (N/A/59%)50,000 .. 100,00000:00 (00:00)AtomicTorch StudioAtomicTorch Studio
295 Dream Jul 31, 2015 $8.99N/A (N/A/59%)50,000 .. 100,00000:00 (00:00)HyperSlothHyperSloth
296 Blue Estate The Game Apr 8, 2015 $12.99N/A (N/A/59%)50,000 .. 100,00000:00 (00:00)HE SAWHE SAW
297 DiscStorm Aug 20, 2015 $11.99N/A (N/A/58%)0 .. 20,00000:00 (00:00)XMPT GamesXMPT Games
298 The Weaponographist Apr 29, 2015 $9.99N/A (N/A/58%)0 .. 20,00000:00 (00:00)PuubaPuuba
299 Lost Horizon 2 Oct 1, 2015 $14.99N/A (N/A/58%)0 .. 20,00000:00 (00:00)Animation Arts GmbHRavenscourt
300 Kyn Jul 28, 2015 $19.99N/A (N/A/58%)0 .. 20,00000:00 (00:00)Tangrin EntertainmentVersus Evil
301 Bard's Gold Aug 14, 2015 $7.99N/A (N/A/58%)0 .. 20,00000:00 (00:00)Pixel LanternPixel Lantern
302 There Came an Echo Feb 24, 2015 $14.99N/A (N/A/58%)20,000 .. 50,00000:00 (00:00)Iridium StudiosIridium Studios
303 Shelter 2 Mar 9, 2015 $14.99N/A (N/A/58%)200,000 .. 500,00000:00 (00:00)Might and DelightMight and Delight
304 Pulse Oct 20, 2015 $7.99N/A (N/A/57%)0 .. 20,00000:00 (00:00)Pixel Pi GamesPixel Pi Games
305 Vector Thrust Jul 2, 2015 $24.99N/A (N/A/57%)200,000 .. 500,00000:00 (00:00)TimeSymmetryIceberg Interactive
306 Armikrog Sep 30, 2015 $9.99N/A (N/A/57%)100,000 .. 200,00000:00 (00:00)Pencil Test StudiosVersus Evil
307 Toren May 11, 2015 $9.99N/A (N/A/57%)100,000 .. 200,00000:00 (00:00)SwordtalesVersus Evil
308 Tengami Jan 15, 2015 $6.99N/A (N/A/57%)100,000 .. 200,00000:00 (00:00)NyamyamNyamyam
309 Supreme League of Patriots Jan 29, 2015 $5.99N/A (N/A/56%)20,000 .. 50,00000:00 (00:00)No Bull IntentionsPhoenix Online Publishing
310 Mushroom Men: Truffle Trouble Mar 10, 2015 $2.99N/A (N/A/55%)0 .. 20,00000:00 (00:00)Red Fly StudioRed Fly Studio
311 Red Game Without A Great Name Dec 9, 2015 N/AN/A (N/A/55%)20,000 .. 50,00000:00 (00:00)iFun4all S.A.iFun4all S.A.
312 Gryphon Knight Epic Aug 20, 2015 $12.99N/A (N/A/55%)20,000 .. 50,00000:00 (00:00)Cyber Rhino StudiosCyber Rhino Studios
313 Calvino Noir Aug 27, 2015 $6.99N/A (N/A/55%)50,000 .. 100,00000:00 (00:00)Calvino NoirCalvino Noir
314 Hektor Mar 13, 2015 $9.99N/A (N/A/55%)200,000 .. 500,00000:00 (00:00)RubyconeRubycone
315 Warhammer Quest Jan 7, 2015 $14.99N/A (N/A/55%)100,000 .. 200,00000:00 (00:00)Rodeo Games, TwistplayChilled Mouse
316 Woolfe - The Red Hood Diaries Mar 17, 2015 $9.99N/A (N/A/55%)200,000 .. 500,00000:00 (00:00)GRINRebellion
317 Son of Nor Apr 27, 2015 $19.99N/A (N/A/54%)20,000 .. 50,00000:00 (00:00)stillalive studiosViva Media
318 Hatoful Boyfriend: Holiday Star Dec 15, 2015 $9.99N/A (N/A/54%)20,000 .. 50,00000:00 (00:00)MediatonicMediatonic
319 Bedlam Oct 13, 2015 N/AN/A (N/A/54%)100,000 .. 200,00000:00 (00:00)RedBedlamKISS ltd
320 Red Goddess: Inner World Sep 1, 2015 $9.99N/A (N/A/53%)0 .. 20,00000:00 (00:00)Yanim StudioYanim Studio
321 Worlds of Magic Mar 19, 2015 $24.99N/A (N/A/52%)20,000 .. 50,00000:00 (00:00)Wastelands InteractiveWastelands Interactive
322 Five Nights at Freddy's 4 Jul 23, 2015 $7.99N/A (N/A/51%)200,000 .. 500,00000:00 (00:00)Scott CawthonScott Cawthon
323 Animal Gods Oct 12, 2015 $9.99N/A (N/A/50%)0 .. 20,00000:00 (00:00)Still GamesStill Games
324 Anomaly 1729 Dec 30, 2015 $9.99N/A (N/A/49%)0 .. 20,00000:00 (00:00)Anvil Drop, LLCBlack Shell Media
325 TRISTOY Jan 15, 2015 $6.99N/A (N/A/49%)20,000 .. 50,00000:00 (00:00)Uniworlds Game StudiosHeadup Games
326 Corpse of Discovery Aug 25, 2015 $1.99N/A (N/A/49%)0 .. 20,00000:00 (00:00)Phosphor GamesPhosphor Games
327 theHunter: Primal Mar 31, 2015 N/AN/A (N/A/49%)100,000 .. 200,00000:00 (00:00)Expansive Worlds, Avalanche StudiosExpansive Worlds, Avalanche Studios
328 Epanalepsis May 21, 2015 $3.99N/A (N/A/48%)0 .. 20,00000:00 (00:00)Cameron Kunzelman2tainment GmbH
329 Lucius II Feb 13, 2015 $3.74N/A (N/A/48%)100,000 .. 200,00000:00 (00:00)Shiver GamesShiver Games
330 COAST GUARD Oct 21, 2015 $17.99N/A (N/A/47%)20,000 .. 50,00000:00 (00:00)Reality Twist GmbHastragon Sales & Services GmbH
331 Karmaflow: The Rock Opera Videogame - Act I & Act II May 6, 2015 $4.99N/A (N/A/47%)0 .. 20,00000:00 (00:00)Basecamp GamesBasecamp Games
332 Solarix Apr 30, 2015 $19.99N/A (N/A/47%)100,000 .. 200,00000:00 (00:00)Pulsetense GamesPulseTense
333 Cities XXL Feb 5, 2015 $9.99N/A (N/A/47%)200,000 .. 500,00000:00 (00:00)Focus Home InteractiveFocus Home Interactive
334 Submerged Aug 3, 2015 $19.99N/A (N/A/47%)200,000 .. 500,00000:00 (00:00)Uppercut Games Pty LtdUppercut Games Pty Ltd
335 Viridi Aug 19, 2015 FreeN/A (N/A/46%)500,000 .. 1,000,00000:00 (00:00)Zoe Vartanian, Badru, Isa Hutchinson, Michael BellIce Water Games
336 LA Cops Mar 13, 2015 $14.99N/A (N/A/45%)20,000 .. 50,00000:00 (00:00)Modern DreamTeam17 Digital Ltd
337 I Can't Escape: Darkness Sep 17, 2015 $11.99N/A (N/A/43%)0 .. 20,00000:00 (00:00)Fancy Fish GamesFancy Fish Games
338 ENKI Jul 31, 2015 $4.99N/A (N/A/43%)20,000 .. 50,00000:00 (00:00)Storm in a TeacupStorm in a Teacup
339 Hatred Jun 1, 2015 $5.99N/A (N/A/43%)500,000 .. 1,000,00000:38 (00:12)Destructive CreationsDestructive Creations
340 The Flock Aug 21, 2015 $16.99N/A (N/A/36%)20,000 .. 50,00000:00 (00:00)VogelsapVogelsap
341 Zombeer Jan 30, 2015 $4.99N/A (N/A/32%)20,000 .. 50,00000:00 (00:00)Moonbite Games, PadaOne GamesNew Gravity Laws
342 Professor Teaches QuickBooks 2015 Jul 27, 2015 N/AN/A (N/A)0 .. 20,00000:00 (00:00)Individual SoftwareIndividual Software
343 Cliffs of War: Fortress Defenders Nov 3, 2015 N/AN/A (N/A)0 .. 20,00000:00 (00:00)
344 The Final Stand Jul 16, 2015 N/AN/A (N/A)0 .. 20,00000:00 (00:00)Hella Games EntertainmentSteam
345 Dragon Rider Nov 2, 2015 N/AN/A (N/A)0 .. 20,00000:00 (00:00)S.F. Bay Studios, Inc.S.F. Bay Studios, Inc.
346 MasterCook 15 May 29, 2015 N/AN/A (N/A)0 .. 20,00000:00 (00:00)CosmiIndividual Software
347 Forever Lost: Episode 3 Jul 9, 2015 N/AN/A (N/A)0 .. 20,00000:00 (00:00)Glitch Games LtdGlitch Games Ltd
348 Pluck Jul 31, 2015 N/AN/A (N/A)0 .. 20,00000:00 (00:00)Benjamin LapidBenjamin Lapid
349 Blessed Ones: The Magic Wolves Dec 4, 2015 N/AN/A (N/A)0 .. 20,00000:00 (00:00)Wolf Ray StudiosWolf Ray Studios
350 Quicken WillMaker Plus 2016 Oct 15, 2015 N/AN/A (N/A)0 .. 20,00000:00 (00:00)NoloIndividual Software
351 AnyTime Organizer Standard 15 Nov 13, 2015 N/AN/A (N/A)0 .. 20,00000:00 (00:00)Individual SoftwareIndividual Software
352 Convoy Mod Tools Apr 15, 2015 N/AN/A (N/A)0 .. 20,00000:00 (00:00)Convoy GamesIndietopia Games
353 Professor Teaches QuickBooks 2016 Nov 10, 2015 N/AN/A (N/A)0 .. 20,00000:00 (00:00)Individual SoftwareIndividual Software
354 Strange Space Dec 22, 2015 N/AN/A (N/A)0 .. 20,00000:00 (00:00)Mayhem Games USAMayhem Games USA
355 Muvee Reveal 11 Apr 10, 2015 N/AN/A (N/A)0 .. 20,00000:00 (00:00)muvee TechnologiesDegica
356 The Facility Sep 3, 2015 N/AN/A (N/A)0 .. 20,00000:00 (00:00)PolyDigitalPolyDigital
357 Relic Alone Nov 26, 2015 N/AN/A (N/A)0 .. 20,00000:00 (00:00)NTT Plala Inc., Roconilo ProjectZoo Corporation
358 Withstand: Apotheosis Jul 31, 2015 N/AN/A (N/A)0 .. 20,00000:00 (00:00)EpicHouse Studios LLCEpicHouse Studios LLC
359 Driveby Gangster Sep 8, 2015 N/AN/A (N/A)0 .. 20,00000:00 (00:00)Verto Studio LLCVerto Studio LLC
360 Containment Protocol Aug 31, 2015 N/AN/A (N/A)0 .. 20,00000:00 (00:00)Xiotex Studios LtdXiotex Studios Ltd
361 Magician's Apprentice Nov 9, 2015 N/AN/A (N/A)0 .. 20,00000:00 (00:00)Kosek.comKosek.com
362 Dad Beat Dads Oct 19, 2015 N/AN/A (N/A)0 .. 20,00000:00 (00:00)Stellar Jay StudiosStellar Jay Studios
363 Velocity Stream Oct 5, 2015 N/AN/A (N/A)0 .. 20,00000:00 (00:00)Cavelight EntertainmentCavelight Entertainment
364 Ramayana May 25, 2015 FreeN/A (N/A)0 .. 20,00000:00 (00:00)Rakesh MalikRakesh Malik
365 Umbra: Shadow of Death Dec 18, 2015 N/AN/A (N/A)0 .. 20,00000:00 (00:00)Colludium LtdColludium Ltd
366 Chronoclysm Nov 12, 2015 $4.99N/A (N/A)0 .. 20,00000:00 (00:00)Zed-exZed-ex
367 Soccer Legends Aug 5, 2015 N/AN/A (N/A)20,000 .. 50,00000:00 (00:00)ZackBellGames
368 Eternal Realm May 18, 2015 FreeN/A (N/A)0 .. 20,00000:00 (00:00)Omega GamesOmega Games
369 Tiki Galore Oct 5, 2015 N/AN/A (N/A)0 .. 20,00000:00 (00:00)Abyss StudiosAbyss Studios
370 VR Karts Apr 17, 2015 N/AN/A (N/A)0 .. 20,00000:00 (00:00)Viewpoint GamesViewpoint Games
371 none Nov 5, 2015 N/AN/A (N/A)20,000 .. 50,00000:00 (00:00)nonenone
372 Quadle Jul 23, 2015 N/AN/A (N/A)0 .. 20,00000:00 (00:00)GamesareClickteam
373 Crimson Light Jul 28, 2015 FreeN/A (N/A)0 .. 20,00000:00 (00:00)NandeeCrimson Lodge
374 Bridge Creator 2015 Jan 26, 2015 N/AN/A (N/A)0 .. 20,00000:00 (00:00)Zojoi
375 The Legend of Tango Sep 11, 2015 N/AN/A (N/A)20,000 .. 50,00000:00 (00:00)Spilt Milk Studios LtdSpilt Milk Studios Ltd
376 Reiner Knizia's The Confrontation Sep 21, 2015 N/AN/A (N/A)0 .. 20,00000:00 (00:00)Offworld Games, LLCOffworld Games, LLC
377 Naught Reawakening Sep 10, 2015 N/AN/A (N/A)0 .. 20,00000:00 (00:00)Wild SphereGenera Games
378 Rising Runner Nov 1, 2015 N/AN/A (N/A)50,000 .. 100,00000:00 (00:00)MagicbaneMagicbane
379 Celestial Tear: Demon's Revenge Nov 19, 2015 N/AN/A (N/A)0 .. 20,00000:00 (00:00)White Guardian Studios, LLCWhite Guardian Studios, LLC
380 Mystical Jul 31, 2015 N/AN/A (N/A)0 .. 20,00000:00 (00:00)Philippe ForgeurPhilippe Forgeur
381 Colony Assault Dec 15, 2015 N/AN/A (N/A)0 .. 20,00000:00 (00:00)Logic treeLogic tree
382 Crazy Steam Bros 2 Apr 2, 2015 FreeN/A (N/A)0 .. 20,00000:00 (00:00)Ars CreativaArs Creativa
383 KreisReise Jun 8, 2015 FreeN/A (N/A)0 .. 20,00000:00 (00:00)Twilling Skyeonayu
384 MAGIX Music Maker 2016 Live Steam Edition Oct 19, 2015 N/AN/A (N/A)0 .. 20,00000:00 (00:00)MAGIX Software GmbHMAGIX Software GmbH
385 Legena: Union Tides Oct 8, 2015 FreeN/A (N/A)0 .. 20,00000:00 (00:00)Grandpa PixelGrandpa Pixel
386 FranknJohn Mar 4, 2015 N/AN/A (N/A)0 .. 20,00000:00 (00:00)bitSmith GamesbitSmith Games
387 A.V. Feb 13, 2015 FreeN/A (N/A)0 .. 20,00000:00 (00:00)FirstForever StudiosMAGIC Spell Studios
388 Dark Storm: VR Missions Aug 19, 2015 N/AN/A (N/A)0 .. 20,00000:00 (00:00)Fenrir StudiosFenrir Studios
389 Offscreen Colonies: VR Edition Apr 5, 2015 FreeN/A (N/A)0 .. 20,00000:00 (00:00)ConspiracyConspiracy
390 Rapture Session & Pro Apr 28, 2015 N/AN/A (N/A)0 .. 20,00000:00 (00:00)CakewalkCakewalk
391 In Space We Brawl Jul 17, 2015 N/AN/A (N/A)0 .. 20,00000:00 (00:00)Forge Reply srlPLAYISM
392 Crystal Picnic Nov 2, 2015 N/AN/A (N/A)0 .. 20,00000:00 (00:00)NooskewlNooskewl
393 AWAKE Dec 16, 2015 N/AN/A (N/A)0 .. 20,00000:00 (00:00)DiiosYeti Studio©
394 Red Spider2: Exiled Jan 17, 2015 FreeN/A (N/A)0 .. 20,00000:00 (00:00)studio waspstudio wasp
395 Lapland Solitaire Sep 14, 2015 N/AN/A (N/A)0 .. 20,00000:00 (00:00)Lemon MooseNomad Games
396 Macabre Jul 6, 2015 N/AN/A (N/A)20,000 .. 50,00000:00 (00:00)MOCBJ SoftwareMOCBJ Software
397 Mech Marines: Steel March Jan 9, 2015 N/AN/A (N/A)0 .. 20,00000:00 (00:00)ByteTrail SoftwareByteTrail Software
398 IPackThat Oct 6, 2015 N/AN/A (N/A)0 .. 20,00000:00 (00:00)Piranha Bytes Distribution UG&Co KGPiranha Bytes Distribution UG&Co KG
399 Pilot Crusader Jul 3, 2015 N/AN/A (N/A)0 .. 20,00000:00 (00:00)RadLabGamingLudomotion
400 Factions: Origins of Malu Mar 23, 2015 N/AN/A (N/A)0 .. 20,00000:00 (00:00)Burning Dog MediaBurning Dog Media
401 Wonky Pigeon! Nov 26, 2015 N/AN/A (N/A)0 .. 20,00000:00 (00:00)Carlotta TattiCarlotta Tatti
402 Advent May 15, 2015 FreeN/A (N/A)0 .. 20,00000:00 (00:00)Omega GamesOmega Games
403 Chronicles of a Dark Lord: Rhapsody Clash Nov 20, 2015 N/AN/A (N/A)50,000 .. 100,00000:00 (00:00)Kisareth StudiosKisareth Studios
404 Amihailu in Dreamland Feb 15, 2015 FreeN/A (N/A)0 .. 20,00000:00 (00:00)DelmunsoftDelmunsoft
405 Monster RPG 2 Oct 12, 2015 N/AN/A (N/A)20,000 .. 50,00000:00 (00:00)NooskewlNooskewl
406 Artizens Mar 5, 2015 N/AN/A (N/A)0 .. 20,00000:00 (00:00)Artizens, Inc.Artizens, Inc.
407 The Lost Island Nov 20, 2015 N/AN/A (N/A)50,000 .. 100,00000:00 (00:00)Finalspark GamestudiosFinalspark Gamestudios
408 Rogue Continuum Sep 15, 2015 N/AN/A (N/A)0 .. 20,00000:00 (00:00)Rocktastic GamesRocktastic Games
409 UnSummoning: the Spectral Horde Dec 21, 2015 FreeN/A (N/A)0 .. 20,00000:00 (00:00)Roaming Ground StudioRoaming Ground Studio
410 Pump-Action Captain Aug 20, 2015 N/AN/A (N/A)0 .. 20,00000:00 (00:00)Paradox Interactive
411 PeriAreion Feb 19, 2015 FreeN/A (N/A)0 .. 20,00000:00 (00:00)Explorasaurus StudiosExplorasaurus Studios
412 Six F and Six 0 Sep 15, 2015 FreeN/A (N/A)0 .. 20,00000:00 (00:00)うどんぱうどんぱ
413 Necromonads Oct 27, 2015 N/AN/A (N/A)0 .. 20,00000:00 (00:00)GamesareClickteam
414 The Architect Jun 4, 2015 N/AN/A (N/A)0 .. 20,00000:00 (00:00)Spooky StarSpooky Star
415 Anti-Opoly Aug 14, 2015 N/AN/A (N/A)0 .. 20,00000:00 (00:00)WebfootViva Media
416 Exowar Mar 26, 2015 N/AN/A (N/A)20,000 .. 50,00000:00 (00:00)Aleksander CiesielskiNeomex-Games
417 Cosplay Maker Dec 10, 2015 FreeN/A (N/A)0 .. 20,00000:00 (00:00)Locked Door PuzzleLupus Studios Limited
418 Scott in Space Jul 23, 2015 FreeN/A (N/A)20,000 .. 50,00000:00 (00:00)Ragiva Games e.K.Chris Hopkin
419 MyRPG Master Feb 9, 2015 N/AN/A (N/A)0 .. 20,00000:00 (00:00)DragonHead StudioPlug In Digital
420 Naninights Jul 24, 2015 N/AN/A (N/A)0 .. 20,00000:00 (00:00)Maxim MooreAldorlea Games
421 Spy Bugs Jun 26, 2015 N/AN/A (N/A)0 .. 20,00000:00 (00:00)Digital Soul GamesTheGameWall Studios
422 Flem Apr 28, 2015 FreeN/A (N/A)0 .. 20,00000:00 (00:00)Henchman & GoonHenchman & Goon
423 SECTOR Jun 29, 2015 FreeN/A (N/A)20,000 .. 50,00000:00 (00:00)UDUD
424 Ted by Dawn Jun 29, 2015 N/AN/A (N/A)0 .. 20,00000:00 (00:00)Proteus PixelProteus Pixel
425 Wonky Ship Sep 10, 2015 FreeN/A (N/A)0 .. 20,00000:00 (00:00)Kiz StudiosYou42, Inc.
426 Runes of Brennos Oct 16, 2015 FreeN/A (N/A)0 .. 20,00000:00 (00:00)LuGus StudiosLuGus Studios
427 Hoyle Official Card Games Nov 18, 2015 N/AN/A (N/A)20,000 .. 50,00000:00 (00:00)Webfoot GamesViva Media
428 MiniBikers Nov 5, 2015 N/AN/A (N/A)20,000 .. 50,00000:00 (00:00)Ivanovich GamesIvanovich Games
429 Shadowrun Chronicles: INFECTED Director's Cut Dec 10, 2015 N/AN/A (N/A)0 .. 20,00000:00 (00:00)Cliffhanger ProductionsCliffhanger Productions
430 Hyphen Feb 12, 2015 N/AN/A (N/A)0 .. 20,00000:00 (00:00)FarSpace StudiosFarSpace Studios
431 Arclight Cascade Aug 25, 2015 FreeN/A (N/A)0 .. 20,00000:00 (00:00)Hexdragonal GamesHexdragonal Games
432 Attack of the Labyrinth + Mar 3, 2015 FreeN/A (N/A)0 .. 20,00000:00 (00:00)Timedrop StudiosTimedrop Studios
433 Arcane Sorcery Sep 15, 2015 FreeN/A (N/A)200,000 .. 500,00000:00 (00:00)Andrew RoweAndrew Rowe
434 Damnation City of Death Mar 3, 2015 N/AN/A (N/A)0 .. 20,00000:00 (00:00)AntiprotoAntiproto
435 Streets of Chaos Jan 23, 2015 N/AN/A (N/A)100,000 .. 200,00000:00 (00:00)SimProse StudiosSimProse Studios
436 Shadow of Kingdoms Aug 11, 2015 FreeN/A (N/A)50,000 .. 100,00000:00 (00:00)TernGameAdmax Game
437 Retaliation Nov 24, 2015 FreeN/A (N/A)20,000 .. 50,00000:00 (00:00)Cameron Baxter, Billy Jazz Hills StickleyCameron Baxter
438 Kenney Game Assets May 8, 2015 N/AN/A (N/A)0 .. 20,00000:00 (00:00)KenneyKenney
439 Abomination Tower Feb 13, 2015 N/AN/A (N/A)0 .. 20,00000:00 (00:00)Amethyst QuarterAmethyst Quarter
440 Command: Northern Inferno Oct 22, 2015 N/AN/A (N/A)0 .. 20,00000:00 (00:00)WarfareSimsSlitherine Ltd.
441 Leadwerks Game Launcher Aug 24, 2015 FreeN/A (N/A)50,000 .. 100,00000:00 (00:00)Leadwerks SoftwareLeadwerks Software
442 Chronicles of a Dark Lord: Episode II War of The Abyss Jan 16, 2015 N/AN/A (N/A)50,000 .. 100,00000:00 (00:00)Kisareth StudiosKisareth Studios
443 Bard to the Future Feb 27, 2015 N/AN/A (N/A)20,000 .. 50,00000:00 (00:00)Battlebard GamesBattlebard Games
444 REVERSE SIDE Jul 30, 2015 N/AN/A (N/A)0 .. 20,00000:00 (00:00)RED STAR GAMESRED STAR GAMES
445 Butsbal Jun 2, 2015 FreeN/A (N/A)0 .. 20,00000:00 (00:00)Xtase StudiosXtase Studios
446 Axion Dec 11, 2015 N/AN/A (N/A)0 .. 20,00000:00 (00:00)Droog71Droog71
447 DigiFish Aqua Real 2 Jun 10, 2015 N/AN/A (N/A)0 .. 20,00000:00 (00:00)Formosoft InternationalDegica
448 HueBots Aug 26, 2015 FreeN/A (N/A)0 .. 20,00000:00 (00:00)HueboticsHuebotics
449 liquivid Video Improve 2 Apr 21, 2015 N/AN/A (N/A)0 .. 20,00000:00 (00:00)nullplussoftwarenullplussoftware
450 Black Island Oct 14, 2015 FreeN/A (N/A)0 .. 20,00000:00 (00:00)Helsinki NoirHelsinki Noir
451 Gem Wars: Attack of the Jiblets Dec 15, 2015 FreeN/A (N/A)20,000 .. 50,00000:00 (00:00)Queen Birdface ProductionsQueen Birdface Productions
452 Handball 16 Nov 27, 2015 N/AN/A (N/A)0 .. 20,00000:00 (00:00)Eko SoftwareNacon, Plug In Digital
453 Lilly and Sasha: Guardian Angels Jul 7, 2015 N/AN/A (N/A)20,000 .. 50,00000:00 (00:00)John WizardJohn Wizard
454 Spheroid Aug 29, 2015 N/AN/A (N/A)20,000 .. 50,00000:00 (00:00)From Soy Sauce LLCFrom Soy Sauce LLC
455 Lilly and Sasha: Nexus of Souls May 25, 2015 N/AN/A (N/A)20,000 .. 50,00000:00 (00:00)John WizardJohn Wizard
456 16 Bit Arena Mar 24, 2015 N/AN/A (N/A)50,000 .. 100,00000:00 (00:00)16bitarena.com16bitarena.com
457 Shadow Hunter Apr 20, 2015 FreeN/A (N/A)20,000 .. 50,00000:00 (00:00)Jeff TrierJeff Trier
458 Lovely Weather We're Having Nov 10, 2015 N/AN/A (N/A)0 .. 20,00000:00 (00:00)Julian GlanderGlanderco
459 ACID Music Studio 10 - Steam Powered Jun 2, 2015 N/AN/A (N/A)0 .. 20,00000:00 (00:00)MAGIX Software GmbHMAGIX Software GmbH
460 Servo May 28, 2015 N/AN/A (N/A)0 .. 20,00000:00 (00:00)BonusXPBonusXP
461 In Exilium Mar 13, 2015 N/AN/A (N/A)20,000 .. 50,00000:00 (00:00)Conflux GamesConflux Games
462 Visibility May 25, 2015 FreeN/A (N/A)20,000 .. 50,00000:00 (00:00)ZeritumZeritum
463 Straima Sep 25, 2015 $4.99N/A (N/A)0 .. 20,00000:00 (00:00)Anthony CaseCaiysware
464 Infinitrap Classic: Ohio Jack and The Cup Of Eternity Dec 22, 2015 FreeN/A (N/A)20,000 .. 50,00000:00 (00:00)Shadebob GamesShadebob Games
465 Bitweb Jun 3, 2015 FreeN/A (N/A)50,000 .. 100,00000:00 (00:00)practicing01practicing01
466 Farm Mechanic Simulator 2015 Apr 23, 2015 N/AN/A (N/A)0 .. 20,00000:00 (00:00)PlayWay, Si7Thomas Gwaltney
467 Force of Elements Dec 29, 2015 FreeN/A (N/A)20,000 .. 50,00000:00 (00:00)Wicked Fun, Inc.Wicked Fun, Inc.
468 Rise: Battle Lines Nov 17, 2015 N/AN/A (N/A)0 .. 20,00000:00 (00:00)The Secret Games CompanyDigital Tribe
469 Return NULL - Episode 1 Apr 2, 2015 FreeN/A (N/A)20,000 .. 50,00000:00 (00:00)Michael LückgenDigital Tribe, iNDEE SOLO
470 Monster Jam Battlegrounds Jun 10, 2015 N/AN/A (N/A)20,000 .. 50,00000:00 (00:00)Team6 game studios B.V.GameMill Entertainment
471 Epsilon Oct 1, 2015 N/AN/A (N/A)50,000 .. 100,00000:00 (00:00)Serellan LLCSerellan LLC
472 MyDream Feb 20, 2015 FreeN/A (N/A)20,000 .. 50,00000:00 (00:00)MyDream Interactive, IncMyDream Interactive, Inc
473 ENYO Arcade Nov 9, 2015 FreeN/A (N/A)20,000 .. 50,00000:00 (00:00)James Mearmanwww.dev-zoo.net
474 Badland Bandits Jul 16, 2015 FreeN/A (N/A)0 .. 20,00000:00 (00:00)Wild Wolf StdWild Wolf Std
475 Emerland Solitaire: Endless Journey Jan 6, 2015 FreeN/A (N/A)20,000 .. 50,00000:00 (00:00)Rainbow GamesRainbow Games
476 R.B.I. Baseball 15 Apr 30, 2015 N/AN/A (N/A)0 .. 20,00000:00 (00:00)MLB.comMLB.com
477 I must kill...: Fresh Meat Nov 30, 2015 FreeN/A (N/A)50,000 .. 100,00000:00 (00:00)Gaming Cats StudioGaming Cats Studio
478 Dead Sea Mar 25, 2015 N/AN/A (N/A)50,000 .. 100,00000:00 (00:00)๋The Dead Sea is changing.The Dead Sea is changing.
479 MiniDrivers Aug 20, 2015 N/AN/A (N/A)20,000 .. 50,00000:00 (00:00)Ivanovich GamesIvanovich Games
480 Kingdoms CCG Jan 22, 2015 N/AN/A (N/A)200,000 .. 500,00000:00 (00:00)Ganz StudioGanz
481 Foosball: World Tour Dec 11, 2015 N/AN/A (N/A)0 .. 20,00000:00 (00:00)Grip Games, 3DivisionGrip Games
482 Jagged Alliance Online: Reloaded Sep 24, 2015 N/AN/A (N/A)0 .. 20,00000:00 (00:00)Cliffhanger ProductionsCliffhanger Productions
483 Indie Game Battle Oct 29, 2015 N/AN/A (N/A)50,000 .. 100,00000:00 (00:00)Blob Games StudioBlob Games Studio
484 Shot In The Dark Jun 10, 2015 FreeN/A (N/A)50,000 .. 100,00000:00 (00:00)Technomancy StudiosTechnomancy Studios
485 Glass Wing Jun 24, 2015 FreeN/A (N/A)50,000 .. 100,00000:00 (00:00)From Soy Sauce LLCFrom Soy Sauce LLC
486 Steel Rain Dec 3, 2015 $9.99N/A (N/A)20,000 .. 50,00000:00 (00:00)PolarityFlow, Adrian ZinggPolarityFlow
487 Your Quest Apr 13, 2015 FreeN/A (N/A)50,000 .. 100,00000:00 (00:00)Oblivionburn ProductionsOblivionburn Productions
488 Arms Dealer Mar 26, 2015 N/AN/A (N/A)0 .. 20,00000:00 (00:00)Case in Point Studios, LLCCase in Point Studios, LLC
489 The Lady Jan 29, 2015 FreeN/A (N/A)50,000 .. 100,00000:00 (00:00)Mikeypoo's Games, Roger LevyMPR ART Hallucinations
490 Farmocalypse Nov 24, 2015 N/AN/A (N/A)20,000 .. 50,00000:00 (00:00)Glowstick EntertainmentGlowstick Entertainment
491 EV3 - Drag Racing Mar 1, 2015 FreeN/A (N/A)50,000 .. 100,00000:00 (00:00)KABloom InteractiveKABloom Interactive
492 Clandestinity of Elsie Jul 8, 2015 FreeN/A (N/A)20,000 .. 50,00000:00 (00:00)COLNELIUS, Albin BernhardssonCOLNELIUS
493 Big Fish Legend Jul 20, 2015 FreeN/A (N/A)0 .. 20,00000:00 (00:00)Igry.ruIgry.ru
494 Elements: Soul of Fire Jan 12, 2015 N/AN/A (N/A)50,000 .. 100,00000:01 (00:00)Soul CatapultNew Reality Games
495 Woof Blaster Sep 22, 2015 FreeN/A (N/A)20,000 .. 50,00000:00 (00:00)Fabian JarrettFabian Jarrett
496 Mold on Pizza Sep 25, 2015 $5.99N/A (N/A)0 .. 20,00000:00 (00:00)BTNcafeBTNcafe
497 Relive Oct 15, 2015 N/AN/A (N/A)50,000 .. 100,00000:00 (00:00)Studio EvilStudio Evil
498 Into The War Dec 2, 2015 N/AN/A (N/A)50,000 .. 100,00000:00 (00:00)Small Town StudiosSmall Town Studios
499 Selfie : Sisters of the Amniotic Lens May 8, 2015 N/AN/A (N/A)100,000 .. 200,00000:00 (00:00)Rail Slave GamesKISS ltd
500 Porradaria 2: Pagode of the Night Mar 12, 2015 N/AN/A (N/A)50,000 .. 100,00000:00 (00:00)CleanWaterSoftCleanWaterSoft
501 Pixel Fodder Jul 20, 2015 FreeN/A (N/A)20,000 .. 50,00000:00 (00:00)Wachawacha.ru
502 Sound Shift Aug 26, 2015 FreeN/A (N/A)20,000 .. 50,00000:00 (00:00)Matthew BrownMatthew Brown
503 SickBrick Jan 30, 2015 N/AN/A (N/A)50,000 .. 100,00000:00 (00:00)Maxwolf, FoxMaxwolf, Fox
504 March of War: FaceOff - XL Nov 18, 2015 N/AN/A (N/A)50,000 .. 100,00000:00 (00:00)ISOTXISOTX
505 Emergency 2016 Oct 15, 2015 N/AN/A (N/A)20,000 .. 50,00000:00 (00:00)Sixteen Tons EntertainmentDeep Silver
506 Legend of Dungeon: Masters Nov 30, 2015 N/AN/A (N/A)100,000 .. 200,00000:00 (00:00)Robot Loves KittyRobot Loves Kitty
507 Астролорды: Облако Оорта Sep 29, 2015 FreeN/A (N/A)50,000 .. 100,00000:00 (00:00)Aratog LLCTartezal Holdings Ltd.
508 Freshman Year Apr 20, 2015 FreeN/A (N/A)20,000 .. 50,00000:00 (00:00)Nina Freeman, Laura Knetzger, Stephen Lawrence ClarkN/A
509 Tetris Ultimate Dec 10, 2015 N/AN/A (N/A)50,000 .. 100,00000:00 (00:00)Ubisoft - San FranciscoUbisoft - San Francisco
510 Combat Monsters Jan 20, 2015 N/AN/A (N/A)100,000 .. 200,00000:00 (00:00)Rubicon DevelopmentRubicon Development
511 Legacy of Dorn: Herald of Oblivion Dec 2, 2015 N/AN/A (N/A)20,000 .. 50,00000:00 (00:00)Tin Man GamesTin Man Games
512 The Gate Apr 22, 2015 FreeN/A (N/A)50,000 .. 100,00000:00 (00:00)Spicy Horse GamesSpicy Horse Games
513 Bloodwood Reload Nov 2, 2015 FreeN/A (N/A)100,000 .. 200,00000:00 (00:00)Luminy StudiosLuminy Studios
514 Lethal RPG: War Jul 17, 2015 FreeN/A (N/A)20,000 .. 50,00000:00 (00:00)EyeSpyda GamesEyeSpyda Games
515 Metaverse Construction Kit Dec 6, 2015 FreeN/A (N/A)100,000 .. 200,00000:00 (00:00)MetawareMetaware
516 Curse of Mermos Jun 23, 2015 FreeN/A (N/A)100,000 .. 200,00000:00 (00:00)TEAM101TEAM101
517 Hotel Remorse Apr 28, 2015 FreeN/A (N/A)0 .. 20,00000:00 (00:00)Charlie Behan, Raddy PeidCharlie Behan
518 Bloop Jan 16, 2015 FreeN/A (N/A)100,000 .. 200,00000:00 (00:00)2SDKISS ltd
519 Affected Zone Tactics Nov 17, 2015 FreeN/A (N/A)50,000 .. 100,00000:00 (00:00)Light Vision InteractiveLight Vision Interactive
520 Red Stone Online Apr 2015 N/AN/A (N/A)100,000 .. 200,00000:00 (00:00)L&K Co., Ltd.L&K Co., Ltd.
521 InCell VR Sep 3, 2015 FreeN/A (N/A)100,000 .. 200,00000:00 (00:00)Luden.ioNival
522 Escape Apr 20, 2015 FreeN/A (N/A)100,000 .. 200,00000:00 (00:00)Stephane BottinStephane Bottin
523 The Knobbly Crook Jun 9, 2015 FreeN/A (N/A)50,000 .. 100,00000:00 (00:00)Gnarled Scar ManipulationsGnarled Scar Manipulations
524 RFLEX Aug 26, 2015 FreeN/A (N/A)0 .. 20,00000:00 (00:00)Wesley LaFerriereSystem Void Games
525 Gunslingers Dec 17, 2015 N/AN/A (N/A)50,000 .. 100,00000:00 (00:00)KovalimKovalim
526 Krosmaster Arena Nov 9, 2015 N/AN/A (N/A)100,000 .. 200,00000:00 (00:00)Ankama StudioAnkama Games
527 One Way To Die Sep 1, 2015 FreeN/A (N/A)50,000 .. 100,00000:00 (00:00)CoaguCo IndustriesCoaguCo Industries
528 Sphere III: Rage of the Devastator Aug 18, 2015 FreeN/A (N/A)100,000 .. 200,00000:00 (00:00)GameXP.comGameXP.com
529 HIT Feb 9, 2015 FreeN/A (N/A)200,000 .. 500,00000:00 (00:00)Shifty Chair GamesShifty Chair Games
530 Iggy's Egg Adventure Aug 27, 2015 N/AN/A (N/A)20,000 .. 50,00000:00 (00:00)Ginger Labs LLCGinger Labs LLC
531 Wyrmsun May 22, 2015 FreeN/A (N/A)50,000 .. 100,00000:00 (00:00)AndrettinAndrettin
532 Epic Arena May 5, 2015 FreeN/A (N/A)100,000 .. 200,00000:00 (00:00)Shadow MastersShadow Masters
533 Heroes of SoulCraft - Arcade MOBA Jul 2, 2015 FreeN/A (N/A)100,000 .. 200,00000:00 (00:00)MobileBitsMobileBits
534 Ubinota Mar 4, 2015 FreeN/A (N/A)50,000 .. 100,00000:00 (00:00)RotateamPlug In Digital
535 Nyctophilia Sep 23, 2015 FreeN/A (N/A)100,000 .. 200,00000:00 (00:00)Cat In A Jar GamesCat In A Jar Games
536 Mainland May 8, 2015 FreeN/A (N/A)100,000 .. 200,00000:00 (00:00)Vasily Voronkov, Ryan Joseph, Peter KosyhINSTEAD Community
537 Magical Otoge Ciel Aug 7, 2015 FreeN/A (N/A)50,000 .. 100,00000:00 (00:00)batensanbatensan
538 Manyland Dec 7, 2015 FreeN/A (N/A)0 .. 20,00000:00 (00:00)Anyland + ManylandMatt Roszak
539 Immortal Empire Dec 3, 2015 FreeN/A (N/A)100,000 .. 200,00000:00 (00:00)Tactic Studios Inc.Tactic Studios Inc.
540 Pregnancy Feb 18, 2015 N/AN/A (N/A)0 .. 20,00000:00 (00:00)LocomotivahLocomotivah
541 Rustbucket Rumble May 4, 2015 FreeN/A (N/A)200,000 .. 500,00000:00 (00:00)Reactor ZeroScrap Yard Productions, LLC
542 HIS (Heroes In the Sky) Mar 3, 2015 N/AN/A (N/A)200,000 .. 500,00000:00 (00:00)GameUS Inc.GameUS Inc.
543 CroNix Jul 17, 2015 FreeN/A (N/A)200,000 .. 500,00000:00 (00:00)MAGICSMAGICS
544 Command Ops 2 Mar 15, 2015 FreeN/A (N/A)50,000 .. 100,00000:00 (00:00)Panther GamesLock 'n Load Publishing
545 Bloop Reloaded Feb 6, 2015 FreeN/A (N/A)100,000 .. 200,00000:00 (00:00)2SDKISS ltd
546 Hotline Miami 2: Wrong Number Digital Comic Feb 17, 2015 FreeN/A (N/A)100,000 .. 200,00000:00 (00:00)Dennaton Games, Dayjob StudioDevolver Digital
547 Comedy Quest Sep 2, 2015 FreeN/A (N/A)50,000 .. 100,00000:00 (00:00)Trav NashCrothers Games
548 Golden Rush Sep 23, 2015 N/AN/A (N/A)100,000 .. 200,00000:00 (00:00)Forbes Consult LtdELYLAND INVESTMENT COMPANY Ltd
549 Rats - Time is running out! Aug 19, 2015 N/AN/A (N/A)50,000 .. 100,00000:00 (00:00)Citeremis Inc.Citeremis Inc.
550 The Secret of Tremendous Corporation Oct 12, 2015 FreeN/A (N/A)100,000 .. 200,00000:00 (00:00)Sebastian Krzyszkowiak, Konrad Burandt, Paweł Radejdosowisko.net
551 Otherland MMO Sep 10, 2015 FreeN/A (N/A)50,000 .. 100,00000:00 (00:00)Drago EntertainmentGame OL GmbH
552 Just Survive Test Server Apr 16, 2015 N/AN/A (N/A)50,000 .. 100,00000:00 (00:00)Daybreak Game CompanyDaybreak Game Company
553 Firefly Online Cortex Jan 29, 2015 FreeN/A (N/A)100,000 .. 200,00000:00 (00:00)Spark Plug GamesQMx Interactive
554 Camtasia - Subscription Aug 29, 2015 N/AN/A (N/A)50,000 .. 100,00000:00 (00:00)TechSmith CorporationTechSmith Corporation
555 War of Beach Oct 15, 2015 FreeN/A (N/A)20,000 .. 50,00000:00 (00:00)LUCKY GIRLS LIMITEDLUCKY GIRLS LIMITED
556 Dream Of Mirror Online Aug 14, 2015 FreeN/A (N/A)100,000 .. 200,00000:00 (00:00)SoftStarSubaGames
557 Invisible Apartment Mar 2, 2015 N/AN/A (N/A)100,000 .. 200,00000:00 (00:00)Milan Kazarka, Jeroen van OostenVysoko Anime Production
558 Alpha Polaris : A Horror Adventure Game Oct 21, 2015 FreeN/A (N/A)50,000 .. 100,00000:00 (00:00)Turmoil GamesTurmoil Games
559 Lilly and Sasha: Curse of the Immortals Apr 28, 2015 N/AN/A (N/A)100,000 .. 200,00000:00 (00:00)John WizardJohn Wizard
560 Might & Magic Heroes Online Nov 24, 2015 N/AN/A (N/A)200,000 .. 500,00000:00 (00:00)Blue ByteUbisoft
561 7,62 Hard Life Oct 1, 2015 $4.99N/A (N/A)50,000 .. 100,00000:00 (00:00)HLA team1C Entertainment
562 Noct Oct 21, 2015 N/AN/A (N/A)50,000 .. 100,00000:00 (00:00)C3SKDevolver Digital
563 Cereal Soup Feb 14, 2015 FreeN/A (N/A)100,000 .. 200,00000:00 (00:00)Wild Arts LLCWild Arts LLC
564 Ruzh Delta Z May 8, 2015 FreeN/A (N/A)50,000 .. 100,00000:00 (00:00)PribuniInterplay Entertainment Corp.
565 InMind VR Jan 19, 2015 FreeN/A (N/A)200,000 .. 500,00000:00 (00:00)Luden.ioNival
566 March of War: FaceOff - M Jul 16, 2015 N/AN/A (N/A)100,000 .. 200,00000:00 (00:00)ISOTXISOTX
567 Heroes of Scene Aug 26, 2015 FreeN/A (N/A)200,000 .. 500,00000:00 (00:00)Icy DonutIcy Donut
568 Major\Minor Dec 2015 N/AN/A (N/A)20,000 .. 50,00000:01 (00:00)KlaceKlace
569 Spartans Vs Zombies Defense Jan 6, 2015 N/AN/A (N/A)100,000 .. 200,00000:00 (00:00)LeiLei
570 Tales Runner Feb 17, 2015 N/AN/A (N/A)200,000 .. 500,00000:00 (00:00)Rhaon EntertainmentOGPlanet
571 Metal Reaper Online Sep 16, 2015 N/AN/A (N/A)100,000 .. 200,00000:00 (00:00)N2GamesSesisoft, JC Planet
572 Burstfire Sep 24, 2015 N/AN/A (N/A)100,000 .. 200,00000:00 (00:00)Nacho GamesNacho Games
573 GASP Nov 12, 2015 FreeN/A (N/A)200,000 .. 500,00000:00 (00:00)Dark Day InteractiveDark Day Interactive
574 Merchant Jan 1, 2015 FreeN/A (N/A)100,000 .. 200,00000:00 (00:00)Retora GamesRetora Games
575 Soccer Manager 2015 Jul 16, 2015 N/AN/A (N/A)200,000 .. 500,00000:00 (00:00)Soccer Manager LtdSoccer Manager Ltd
576 Who Is Mike - A Visual Novel Sep 29, 2015 FreeN/A (N/A)20,000 .. 50,00000:00 (00:00)FerventAfterthought Studios
577 Epic Cards Battle(TCG) Jul 9, 2015 FreeN/A (N/A)100,000 .. 200,00000:00 (00:00)momoStorm EntertainmentmomoStorm Entertainment
578 Egg Returns Home May 5, 2015 N/AN/A (N/A)50,000 .. 100,00000:00 (00:00)PigelPix GamesPigelPix Games
579 Grey Cubes May 15, 2015 N/AN/A (N/A)0 .. 20,00000:00 (00:00)Deion MobileDeion Mobile
580 Deepworld Apr 22, 2015 FreeN/A (N/A)200,000 .. 500,00000:00 (00:00)BytebinBytebin
581 Driver Booster 3 for STEAM Sep 22, 2015 FreeN/A (N/A)100,000 .. 200,00000:00 (00:00)IObitIObit
582 Subspace Continuum Jul 3, 2015 FreeN/A (N/A)50,000 .. 100,00000:00 (00:00)Virgin Interactive Entertainment, PriitKSubspace Continuum
583 War Trigger 2 Sep 15, 2015 FreeN/A (N/A)200,000 .. 500,00000:00 (00:00)Rocketeer Games Studio, LLCRocketeer Games Studio, LLC
584 Soccer Manager 2016 Oct 7, 2015 N/AN/A (N/A)200,000 .. 500,00000:00 (00:00)Soccer Manager LtdSoccer Manager Ltd
585 Silver Creek Falls: Chapter 1 Aug 12, 2015 FreeN/A (N/A)50,000 .. 100,00000:00 (00:00)Sapphire Dragon ProductionsSapphire Dragon Productions
586 Clown House (Palyaço Evi) Jul 14, 2015 FreeN/A (N/A)200,000 .. 500,00000:00 (00:00)gord10, Aslan Game StudioAslan Game Studio
587 Metal War Online: Retribution Dec 11, 2015 FreeN/A (N/A)200,000 .. 500,00000:00 (00:00)GDT LimitedGDT Limited
588 Cards and Castles Dec 18, 2015 FreeN/A (N/A)100,000 .. 200,00000:00 (00:00)Red Team GamesRed Team Games
589 Chip's Challenge 1 May 28, 2015 FreeN/A (N/A)100,000 .. 200,00000:00 (00:00)Niffler Ltd.Niffler Ltd.
590 Battle for Blood - Epic battles within 30 seconds! Jul 8, 2015 FreeN/A (N/A)200,000 .. 500,00000:00 (00:00)YFC gamesYFC games
591 All Is Dust Jun 26, 2015 FreeN/A (N/A)200,000 .. 500,00000:00 (00:00)Mannequin Games LLCMannequin Games LLC
592 Genesis Online Nov 5, 2015 FreeN/A (N/A)200,000 .. 500,00000:00 (00:00)Shumkov DmitriyShumkov Dmitriy
593 Navy Field 2 : Conqueror of the Ocean Mar 5, 2015 N/AN/A (N/A)500,000 .. 1,000,00000:00 (00:00)SDEnterNetSDEnterNet
594 Interplanetary May 12, 2015 N/AN/A (N/A)100,000 .. 200,00000:00 (00:00)Team Jolly RogerTeam17 Digital Ltd
595 Pink Heaven Nov 4, 2015 FreeN/A (N/A)100,000 .. 200,00000:00 (00:00)Studio PixelPLAYISM
596 Tap Tap Infinity Jun 26, 2015 FreeN/A (N/A)200,000 .. 500,00000:00 (00:00)Scary Bee LLCScary Bee LLC
597 Close Your Eyes [Old Version] Aug 31, 2015 FreeN/A (N/A)100,000 .. 200,00000:00 (00:00)Yai GameworksYai Gameworks
598 The Mammoth: A Cave Painting Aug 24, 2015 FreeN/A (N/A)20,000 .. 50,00000:00 (00:00)inbetweengamesinbetweengames
599 World of Soccer Aug 26, 2015 N/AN/A (N/A)200,000 .. 500,00000:00 (00:00)WoS Development TeamHuebotics
600 TeraBlaster Jul 10, 2015 FreeN/A (N/A)50,000 .. 100,00000:00 (00:00)Black Shell GamesAbsolutist Ltd.
601 ePic Character Generator Nov 5, 2015 FreeN/A (N/A)100,000 .. 200,00000:00 (00:00)Overhead GamesOverhead Games
602 Shadowrun Chronicles - Boston Lockdown Apr 28, 2015 N/AN/A (N/A)200,000 .. 500,00000:00 (00:00)Cliffhanger ProductionsCliffhanger Productions
603 Fausts Alptraum Aug 14, 2015 FreeN/A (N/A)100,000 .. 200,00000:00 (00:00)LaboRatStudioLaboRatStudio
604 Let the Cat in Aug 27, 2015 N/AN/A (N/A)200,000 .. 500,00000:00 (00:00)EforbEforb
605 Echoes+ Jan 15, 2015 FreeN/A (N/A)100,000 .. 200,00000:00 (00:00)Binary ZooKikiwik Games
606 CaesarIA Jan 20, 2015 FreeN/A (N/A)200,000 .. 500,00000:00 (00:00)rdt.32rdt.32
607 SC2VN - The eSports Visual Novel Sep 7, 2015 FreeN/A (N/A)100,000 .. 200,00000:00 (00:00)Team ElevenTeam Eleven
608 Apotheon Arena Dec 8, 2015 FreeN/A (N/A)200,000 .. 500,00000:00 (00:00)AlientrapAlientrap
609 Pink Hour Oct 28, 2015 FreeN/A (N/A)100,000 .. 200,00000:00 (00:00)Studio PixelPLAYISM
610 Aberoth Jul 17, 2015 FreeN/A (N/A)100,000 .. 200,00000:00 (00:00)Jarbit, Castle art by Yuriy GusevJarbit
611 AX:EL - Air XenoDawn Dec 4, 2015 N/AN/A (N/A)1,000,000 .. 2,000,00000:00 (00:00)Alex PiolaKISS ltd
612 METAL SLUG DEFENSE May 1, 2015 FreeN/A (N/A)500,000 .. 1,000,00000:00 (00:00)SNK CORPORATIONSNK CORPORATION
613 VEGAS Movie Studio 13 Platinum - Steam Powered Feb 5, 2015 N/AN/A (N/A)20,000 .. 50,00000:00 (00:00)MAGIX Software GmbHMAGIX Software GmbH
614 Air Brawl Jun 2, 2015 FreeN/A (N/A)100,000 .. 200,00000:00 (00:00)LandfallLandfall
615 Among Ripples Jan 22, 2015 N/AN/A (N/A)200,000 .. 500,00000:00 (00:00)Eat Create SleepEat Create Sleep
616 FINAL FANTASY V Sep 24, 2015 N/AN/A (N/A)100,000 .. 200,00000:00 (00:00)Square EnixSquare Enix
617 Space Pilgrim Episode I: Alpha Centauri Dec 14, 2015 FreeN/A (N/A)1,000,000 .. 2,000,00000:00 (00:00)Pilgrim Adventures, GrabTheGames StudiosGrabTheGames
618 Port of Call Aug 28, 2015 FreeN/A (N/A)50,000 .. 100,00000:00 (00:00)Underdog GamesUnderdog Games
619 Destination Sol Feb 5, 2015 FreeN/A (N/A)200,000 .. 500,00000:00 (00:00)MovingBlocksMovingBlocks
620 Pool Nation FX Lite Dec 7, 2015 FreeN/A (N/A)200,000 .. 500,00000:01 (00:00)Cherry Pop GamesCherry Pop Games
621 Off-Peak Feb 15, 2015 FreeN/A (N/A)100,000 .. 200,00000:00 (00:00)Cosmo DCosmo D Studios
622 Frozen Free Fall: Snowball Fight Sep 15, 2015 N/AN/A (N/A)200,000 .. 500,00000:00 (00:00)SuperVillain StudiosDisney
623 Over 9000 Zombies! Feb 25, 2015 $1.99N/A (N/A)100,000 .. 200,00000:00 (00:00)Loren LemckeLoren Lemcke
624 Ultimate Tic-Tac-Toe Apr 28, 2015 FreeN/A (N/A)200,000 .. 500,00000:00 (00:00)Tigerish GamesTigerish Games
625 Frosty Kiss Jan 31, 2015 FreeN/A (N/A)100,000 .. 200,00000:00 (00:00)2Chance Projects, IIchan Eroge Team2Chance Projects
626 404Sight Apr 16, 2015 FreeN/A (N/A)200,000 .. 500,00000:00 (00:00)Retro Yeti GamesRetro Yeti Games
627 Dev Guy May 20, 2015 FreeN/A (N/A)100,000 .. 200,00000:00 (00:00)Daniel Jonathan BourkeProject Tranquil
628 Mortal Online Aug 31, 2015 FreeN/A (N/A)500,000 .. 1,000,00000:00 (00:00)Star Vault ABStar Vault AB
629 Jigoku Kisetsukan: Sense of the Seasons May 12, 2015 FreeN/A (N/A)100,000 .. 200,00000:00 (00:00)EmadEmad
630 Written in the Sky Oct 31, 2015 N/AN/A (N/A)100,000 .. 200,00000:00 (00:00)Unwonted Studios14 Hours Productions
631 Without Within Jan 22, 2015 FreeN/A (N/A)200,000 .. 500,00000:00 (00:00)InvertMouseInvertMouse
632 Seduce Me the Otome Feb 12, 2015 FreeN/A (N/A)200,000 .. 500,00000:00 (00:00)Michaela LawsMichaela Laws
633 FINAL FANTASY VI Dec 16, 2015 N/AN/A (N/A)200,000 .. 500,00000:00 (00:00)Square EnixSquare Enix
634 Armored Warfare Oct 8, 2015 FreeN/A (N/A)500,000 .. 1,000,00000:00 (00:00)Obsidian Entertainment, MY.GAMESMETA Publishing
635 Batla May 14, 2015 FreeN/A (N/A)500,000 .. 1,000,00000:00 (00:00)[geim].proAbyss Lights Studio LLP
636 Kung Fury: Street Rage May 28, 2015 N/AN/A (N/A)100,000 .. 200,00000:00 (00:00)Hello There ABHello There AB
637 RPG MO Aug 18, 2015 FreeN/A (N/A)500,000 .. 1,000,00000:00 (00:00)MarxnetMarxnet
638 King's Quest Jul 28, 2015 $24.99N/A (N/A)200,000 .. 500,00000:00 (00:00)The Odd GentlemenSierra
639 Simply Chess Sep 11, 2015 FreeN/A (N/A)500,000 .. 1,000,00000:00 (00:00)BlueLine GamesBlueLine Games
640 Crusaders of the Lost Idols Oct 13, 2015 FreeN/A (N/A)200,000 .. 500,00000:00 (00:00)Codename Entertainment Inc.Codename Entertainment Inc.
641 The Four Kings Casino and Slots Jun 1, 2015 FreeN/A (N/A)200,000 .. 500,00005:05 (01:41)Digital Leisure Inc.Digital Leisure Inc.
642 VEGA Conflict Dec 14, 2015 FreeN/A (N/A)500,000 .. 1,000,00000:00 (00:00)KIXEYEKIXEYE
643 Saint Seiya: Soldiers' Soul Nov 27, 2015 N/AN/A (N/A)50,000 .. 100,00000:00 (00:00)DIMPSBANDAI NAMCO Entertainment
644 Missing Translation Sep 24, 2015 FreeN/A (N/A)200,000 .. 500,00000:00 (00:00)AlPixel Games, Luis Diaz, Gustavo Santos, Albert Fernandez, Tice ThomasonGamesBoosters
645 8BitMMO Jan 26, 2015 FreeN/A (N/A)500,000 .. 1,000,00000:00 (00:00)Archive EntertainmentArchive Entertainment
646 Nomad Jun 26, 2015 FreeN/A (N/A)200,000 .. 500,00000:00 (00:00)Diminished StudiosDiminished Studios
647 Dead Realm Aug 3, 2015 N/AN/A (N/A)200,000 .. 500,00000:00 (00:00)Section Studios3BLACKDOT
648 Higurashi When They Cry Hou - Ch.1 Onikakushi May 15, 2015 FreeN/A (N/A)100,000 .. 200,00000:00 (00:00)07th ExpansionMangaGamer
649 Steel Ocean Nov 12, 2015 FreeN/A (N/A)500,000 .. 1,000,00000:00 (00:00)ICE EntertainmentChangyou.com Limited
650 Strife May 22, 2015 FreeN/A (N/A)1,000,000 .. 2,000,00000:00 (00:00)S2 GamesS2 Games
651 NBA 2K16 Sep 29, 2015 N/AN/A (N/A)200,000 .. 500,00000:00 (00:00)Visual Concepts2K
652 Time Clickers Jul 23, 2015 FreeN/A (N/A)500,000 .. 1,000,00000:00 (00:00)Proton Studio Inc
653 the static speaks my name Aug 10, 2015 FreeN/A (N/A)200,000 .. 500,00000:00 (00:00)the whale husbandthe whale husband
654 Lost Lands: A Hidden Object Adventure Sep 24, 2015 FreeN/A (N/A)200,000 .. 500,00000:00 (00:00)FIVE-BN GAMESFIVE-BN GAMES
655 Trine 3: The Artifacts of Power Aug 20, 2015 $21.99N/A (N/A)500,000 .. 1,000,00000:00 (00:00)FrozenbyteFrozenbyte
656 Endless Sky Oct 30, 2015 FreeN/A (N/A)500,000 .. 1,000,00000:00 (00:00)Michael ZahniserMichael Zahniser
657 War Trigger 3 Dec 22, 2015 FreeN/A (N/A)1,000,000 .. 2,000,00000:00 (00:00)Rocketeer Games Studio, LLCRocketeer Games Studio, LLC
658 Romero's Aftermath Sep 24, 2015 N/AN/A (N/A)1,000,000 .. 2,000,00000:00 (00:00)Free Reign EntertainmentOP Productions LLC, Free Reign East LLC
659 Primal Carnage: Extinction Apr 3, 2015 $12.99N/A (N/A)500,000 .. 1,000,00000:00 (00:00)Circle Five Studios, Pub GamesCircle Five Publishing
660 Steam Link Nov 10, 2015 N/AN/A (N/A)200,000 .. 500,00000:00 (00:00)Anima Locus
661 Minecraft: Story Mode - A Telltale Games Series Oct 13, 2015 N/AN/A (N/A)200,000 .. 500,00000:00 (00:00)Telltale GamesTelltale Games
662 Relic Hunters Zero: Remix Aug 18, 2015 FreeN/A (N/A)1,000,000 .. 2,000,00000:06 (00:02)Rogue SnailAkupara Games
663 Gear Up Jan 28, 2015 FreeN/A (N/A)1,000,000 .. 2,000,00000:00 (00:00)Doctor Entertainment ABDoctor Entertainment AB
664 MechWarrior Online Solaris 7 Dec 10, 2015 FreeN/A (N/A)1,000,000 .. 2,000,00000:00 (00:00)Piranha Games Inc.Piranha Games Inc.
665 Carpe Diem Nov 30, 2015 FreeN/A (N/A)200,000 .. 500,00000:00 (00:00)Moonlit WorksMoonlit Works
666 America's Army: Proving Grounds Oct 1, 2015 N/AN/A (N/A)2,000,000 .. 5,000,00002:51 (01:43)U.S. ArmyU.S. Army
667 Freestyle 2: Street Basketball Apr 1, 2015 FreeN/A (N/A)2,000,000 .. 5,000,00000:00 (00:00)JOYCITYJOYCITY
668 Dr. Langeskov, The Tiger, and The Terribly Cursed Emerald: A Whirlwind Heist Dec 4, 2015 FreeN/A (N/A)500,000 .. 1,000,00000:00 (00:00)Crows Crows CrowsCrows Crows Crows
669 Mitos.is: The Game Jul 29, 2015 FreeN/A (N/A)2,000,000 .. 5,000,00000:00 (00:00)Freakinware StudiosFreakinware Studios
670 Eternal Senia Jun 18, 2015 FreeN/A (N/A)500,000 .. 1,000,00005:08 (01:42)Sanctum GamesSanctum Games
671 Spooky's Jump Scare Mansion Jul 28, 2015 FreeN/A (N/A)1,000,000 .. 2,000,00000:03 (00:01)Lag StudiosLag Studios
672 Sakura Clicker Jul 29, 2015 FreeN/A (N/A)1,000,000 .. 2,000,00000:00 (00:00)Winged CloudWinged Cloud
673 Survarium Apr 2, 2015 FreeN/A (N/A)2,000,000 .. 5,000,00001:22 (00:27)Vostok GamesVostok Games
674 Resident Evil Revelations 2 Feb 24, 2015 $0.77N/A (N/A)1,000,000 .. 2,000,00000:00 (00:00)CAPCOM Co., Ltd.CAPCOM Co., Ltd.
675 Magic Duels Jul 29, 2015 N/AN/A (N/A)2,000,000 .. 5,000,00000:00 (00:00)Stainless Games Ltd.Wizards of the Coast LLC
676 Transformice Jan 30, 2015 FreeN/A (N/A)2,000,000 .. 5,000,00000:46 (00:28)Atelier 801Atelier 801
677 Fishing Planet Aug 11, 2015 FreeN/A (N/A)2,000,000 .. 5,000,00000:12 (00:05)Fishing Planet LLCFishing Planet LLC
678 Emily is Away Nov 20, 2015 FreeN/A (N/A)1,000,000 .. 2,000,00000:00 (00:00)Kyle SeeleyKyle Seeley
679 AdVenture Capitalist Mar 30, 2015 FreeN/A (N/A)5,000,000 .. 10,000,00005:21 (10:17)Hyper Hippo GamesHyper Hippo Games
680 Tabletop Simulator Jun 5, 2015 $19.99N/A (N/A)2,000,000 .. 5,000,00010:26 (13:15)Berserk GamesBerserk Games
681 Just Survive Jan 15, 2015 N/AN/A (N/A)2,000,000 .. 5,000,00000:00 (00:00)Daybreak Game CompanyDaybreak Game Company
682 Clicker Heroes May 13, 2015 FreeN/A (N/A)5,000,000 .. 10,000,00036:02 (04:35)PlaysaurusPlaysaurus
683 Trove Jul 9, 2015 N/AN/A (N/A)10,000,000 .. 20,000,00008:39 (14:10)Trion WorldsTrion Worlds
684 Life is Strange - Episode 1 Jan 29, 2015 FreeN/A (N/A)5,000,000 .. 10,000,00000:00 (00:00)DONTNOD Entertainment, Feral Interactive (Mac), Feral Interactive (Linux)Square Enix, Feral interactive (Mac), Feral Interactive (Linux)
685 Professor Teaches Word 2013 & 365 Jun 29, 2015 $14.99N/A (N/A)0 .. 20,00000:00 (00:00)Individual SoftwareIndividual Software
686 Deficis Jul 30, 2015 $14.99N/A (N/A)0 .. 20,00000:00 (00:00)Gneu LLCGneu LLC
687 Professor Teaches OneNote 2013 & 365 Jul 22, 2015 $14.99N/A (N/A)0 .. 20,00000:00 (00:00)Individual SoftwareIndividual Software
688 Professor Teaches Outlook 2013 & 365 Jul 22, 2015 $14.99N/A (N/A)0 .. 20,00000:00 (00:00)Individual SoftwareIndividual Software
689 Baxter's Venture: Director's Cut Jul 30, 2015 $3.99N/A (N/A)0 .. 20,00000:00 (00:00)GG-WorksGG-Works
690 Professor Teaches Outlook 2016 Oct 12, 2015 $14.99N/A (N/A)0 .. 20,00000:00 (00:00)Individual SoftwareIndividual Software
691 Professor Teaches Excel 2013 & 365 Jun 29, 2015 $14.99N/A (N/A)0 .. 20,00000:00 (00:00)Individual SoftwareIndividual Software
692 Professor Teaches PowerPoint 2016 Sep 15, 2015 $14.99N/A (N/A)0 .. 20,00000:00 (00:00)Individual SoftwareIndividual Software
693 Quiz Time Jun 23, 2015 $9.99N/A (N/A)0 .. 20,00000:00 (00:00)Yash Future Tech Solutions Pvt LtdYash Future Tech Solutions Pvt Ltd
694 Temporal Shift Jul 16, 2015 $9.99N/A (N/A)0 .. 20,00000:00 (00:00)Four LightsFour Lights
695 Vol'Talkes - The AI War Nov 11, 2015 $29.99N/A (N/A)0 .. 20,00000:00 (00:00)HyperDrive GamesHyperDrive Games
696 Resume Maker for Windows Nov 12, 2015 $19.99N/A (N/A)0 .. 20,00000:00 (00:00)Individual SoftwareIndividual Software
697 Spoko and Poko May 18, 2015 $3.99N/A (N/A)0 .. 20,00000:00 (00:00)Volens Nolens GamesVolens Nolens Games
698 Radial Impact Jul 31, 2015 $0.99N/A (N/A)0 .. 20,00000:00 (00:00)Devin SherryDevin Sherry
699 Nightclub Emporium Aug 7, 2015 $4.99N/A (N/A)20,000 .. 50,00000:00 (00:00)United Independent Entertainment GmbHUnited Independent Entertainment GmbH
700 Professor Teaches Access 2013 & 365 Jul 14, 2015 $14.99N/A (N/A)0 .. 20,00000:00 (00:00)Individual SoftwareIndividual Software
701 Fjall Sep 19, 2015 $2.99N/A (N/A)0 .. 20,00000:00 (00:00)dimecoin, BestowDimecoin Games, LLC
702 Fringes of the Empire Nov 16, 2015 $0.99N/A (N/A)0 .. 20,00000:00 (00:00)Lost Astronaut StudiosSelf-Published
703 Save the Creatures Oct 18, 2015 $1.99N/A (N/A)20,000 .. 50,00000:00 (00:00)Michael Porter, Aaron Smith, Andrew ThomasMichael Porter
704 One Bit May 12, 2015 $0.99N/A (N/A)0 .. 20,00000:00 (00:00)VeibynVeibyn
705 Proxyah v3.1 Nov 5, 2015 $3.99N/A (N/A)0 .. 20,00000:00 (00:00)Viktor TimofeevViktor Timofeev
706 House of Nightmares B-Movie Edition Apr 19, 2015 $0.99N/A (N/A)0 .. 20,00000:00 (00:00)Morphodox StudiosMorphodox Studios
707 Gremlin Invasion: Survivor May 1, 2015 $0.99N/A (N/A)0 .. 20,00000:00 (00:00)CS Squared Games, Among GiantsCS Squared Games
708 Family Tree Heritage Platinum 9 May 26, 2015 $29.99N/A (N/A)0 .. 20,00000:00 (00:00)Individual SoftwareIndividual Software
709 Professor Teaches Excel 2016 Sep 15, 2015 $14.99N/A (N/A)0 .. 20,00000:00 (00:00)Individual SoftwareIndividual Software
710 Professor Teaches OneNote 2016 Sep 15, 2015 $14.99N/A (N/A)0 .. 20,00000:00 (00:00)Individual SoftwareIndividual Software
711 Professor Teaches Word 2016 Sep 15, 2015 $14.99N/A (N/A)0 .. 20,00000:00 (00:00)Individual SoftwareIndividual Software
712 Heresy Nov 19, 2015 $19.99N/A (N/A)0 .. 20,00000:00 (00:00)dark made gamesdark made games
713 Perfection of Wisdom Apr 6, 2015 $8.99N/A (N/A)0 .. 20,00000:00 (00:00)14Dimension Enterprise14Dimension Enterprise
714 Unlimited Escape 3 & 4 Double Pack May 21, 2015 $6.99N/A (N/A)0 .. 20,00000:00 (00:00)Carlo D'Apostoli ProjectsStrategy First
715 World Circuit Boxing Jan 24, 2015 $4.99N/A (N/A)0 .. 20,00000:00 (00:00)J3I GamesJ3I Games
716 Infinite Game Works Episode 1 Oct 26, 2015 $7.99N/A (N/A)0 .. 20,00000:00 (00:00)Sakura River InteractiveSakura River Interactive
717 Egyptian Settlement Gold May 12, 2015 $7.99N/A (N/A)0 .. 20,00000:00 (00:00)magnussoftmagnussoft
718 Production Inc. Dec 31, 2015 $19.99N/A (N/A)0 .. 20,00000:00 (00:00)Solo InstinctSolo Instinct
719 Unlimited Escape 2 Apr 22, 2015 $4.99N/A (N/A)0 .. 20,00000:00 (00:00)Carlo D'Apostoli ProjectsStrategy First
720 Zxill: A Legend of Time Sep 4, 2015 $6.99N/A (N/A)0 .. 20,00000:00 (00:00)ZXDigital Ltd, Polyquest GamesZXDigital Ltd
721 RigIT Oct 1, 2015 $8.99N/A (N/A)0 .. 20,00000:00 (00:00)RigITRigIT
722 Monkey King Saga Nov 30, 2015 $4.99N/A (N/A)0 .. 20,00000:00 (00:00)T-Rex GamesT-Rex Games
723 The Light Empire Dec 2, 2015 $5.99N/A (N/A)0 .. 20,00000:00 (00:00)JemyJemy
724 Zone 22 Jun 26, 2015 $7.99N/A (N/A)0 .. 20,00000:00 (00:00)Nordic LegacyNordic Legacy
725 Hope in Hell Oct 31, 2015 $2.99N/A (N/A)0 .. 20,00000:00 (00:00)Emeryon gamesEmeryon games
726 Caribbean Odyssey Nov 12, 2015 $9.99N/A (N/A)0 .. 20,00000:00 (00:00)Imran ArafatReality Gameware
727 Professor Teaches PowerPoint 2013 & 365 Jul 14, 2015 $14.99N/A (N/A)0 .. 20,00000:00 (00:00)Individual SoftwareIndividual Software
728 Hauntsters Dec 22, 2015 $4.99N/A (N/A)0 .. 20,00000:00 (00:00)Shark Tree StudiosShark Tree Studios
729 Grim Tales: Threads of Destiny Collector's Edition Oct 10, 2015 $9.99N/A (N/A)0 .. 20,00000:00 (00:00)Elephant GamesBig Fish Games
730 Snails May 1, 2015 $0.99N/A (N/A)20,000 .. 50,00000:00 (00:00)Jorge Lima, Alexandre Fontoura2Brains Games
731 UfoPilot : Astro-Creeps Elite May 5, 2015 $4.99N/A (N/A)0 .. 20,00000:00 (00:00)nornware ABnornware AB
732 ScudBuster Dec 18, 2015 $4.99N/A (N/A)0 .. 20,00000:00 (00:00)HyperKat GamesHyperKat Games
733 最強の囲碁 ~名人への道~ / Igo Meijin Jan 30, 2015 $79.99N/A (N/A)0 .. 20,00000:00 (00:00)UNBALANCE CorporationUNBALANCE Corporation
734 Haunted Hotel: Eternity Collector's Edition May 27, 2015 $13.99N/A (N/A)20,000 .. 50,00000:00 (00:00)Elephant GamesBig Fish Games
735 Dungeoncraft Jun 5, 2015 $9.99N/A (N/A)0 .. 20,00000:00 (00:00)ZinnuslZinnusl
736 Voxel Blast Oct 22, 2015 $11.99N/A (N/A)0 .. 20,00000:00 (00:00)Ceiba Software and ArtsCeiba Software and Arts
737 Zombien Mar 6, 2015 $2.99N/A (N/A)0 .. 20,00000:00 (00:00)Hosted GamesHosted Games
738 Unlimited Escape Feb 5, 2015 $4.99N/A (N/A)0 .. 20,00000:00 (00:00)Carlo D'Apostoli ProjectsStrategy First
739 Luminoso Apr 17, 2015 $4.99N/A (N/A)0 .. 20,00000:00 (00:00)blizzy Gamesblizzy Games
740 Valzar Dec 22, 2015 $9.99N/A (N/A)0 .. 20,00000:00 (00:00)Whale NebulaWhale Nebula
741 Coated Aug 25, 2015 $4.99N/A (N/A)0 .. 20,00000:00 (00:00)mamoniem, OwlnightOwlnight
742 Death Pirate Jun 6, 2015 $3.99N/A (N/A)0 .. 20,00000:00 (00:00)Singe StudioSinge Studio
743 Ironkraft - Road to Hell Oct 22, 2015 $9.99N/A (N/A)0 .. 20,00000:00 (00:00)Invoker StudiosInvoker Studios
744 Datswer Feb 4, 2015 $3.99N/A (N/A)0 .. 20,00000:00 (00:00)Behtam DeveloperBehtam Developer, UK VENUS
745 CHARIOT WARS May 25, 2015 $6.99N/A (N/A)0 .. 20,00000:00 (00:00)OM ENTERTAINMENTOM ENTERTAINMENT
746 Luxury Hotel Emporium Aug 7, 2015 $4.99N/A (N/A)0 .. 20,00000:00 (00:00)United Independent Entertainment GmbHUnited Independent Entertainment GmbH
747 Prison Tycoon Alcatraz May 11, 2015 $9.99N/A (N/A)0 .. 20,00000:00 (00:00)ValuSoftCosmi Valusoft
748 Band of Drones Mar 25, 2015 $7.99N/A (N/A)0 .. 20,00000:00 (00:00)Kiritsu GamesKiritsu Games
749 DNO Rasa's Journey May 23, 2015 $2.99N/A (N/A)0 .. 20,00000:00 (00:00)EZDesignerEZDesigner
750 Puzzle Expedition Jun 29, 2015 $7.99N/A (N/A)0 .. 20,00000:00 (00:00)Top3LineTop3Line
751 Dolguth Oct 20, 2015 $5.99N/A (N/A)0 .. 20,00000:00 (00:00)Boiagames20Tab
752 Questria: Rise of the Robot Skullfaces Nov 9, 2015 $9.99N/A (N/A)0 .. 20,00000:00 (00:00)AltImage GamesAltImage Games
753 TNN Motorsports Hardcore TR Aug 10, 2015 $4.99N/A (N/A)0 .. 20,00000:00 (00:00)ASC GamesConsole Classics
754 The Makeshifter Aug 21, 2015 $8.99N/A (N/A)0 .. 20,00000:00 (00:00)Squirrel PhysicsSquirrel Physics
755 Professor Teaches Access 2016 Sep 15, 2015 $14.99N/A (N/A)0 .. 20,00000:00 (00:00)Individual SoftwareIndividual Software
756 Mass Vector Nov 24, 2015 $5.99N/A (N/A)0 .. 20,00000:00 (00:00)Moving Pixel GamesMoving Pixel Games
757 SuperBike TT Feb 25, 2015 $12.99N/A (N/A)0 .. 20,00000:00 (00:00)Ghost MachineGhost Machine
758 OVERGRAVITY Jul 24, 2015 $2.99N/A (N/A)0 .. 20,00000:00 (00:00)TinycorpTinycorp
759 Spectrum: First Light Jul 24, 2015 $9.99N/A (N/A)0 .. 20,00000:00 (00:00)Mido Basim, Danny WeiMido Basim
760 Magnetron Nov 16, 2015 $5.99N/A (N/A)0 .. 20,00000:00 (00:00)Jay-RunJay-Run
761 InsanZ - Retro Survival Horror Apr 27, 2015 $6.99N/A (N/A)20,000 .. 50,00000:00 (00:00)SimplexGameStudioSimplexGameStudio
762 Revenge: Rhobar's myth Sep 8, 2015 $4.99N/A (N/A)0 .. 20,00000:00 (00:00)Polygon ArtPolygon Art
763 CONTASION 2 Nov 29, 2015 $6.99N/A (N/A)0 .. 20,00000:00 (00:00)Alex WoodcockAlex Woodcock
764 Vortex Jul 17, 2015 $4.99N/A (N/A)0 .. 20,00000:00 (00:00)Displace MediaDisplace Media
765 The Empty Inn Jul 10, 2015 $3.99N/A (N/A)0 .. 20,00000:00 (00:00)Candlelight StudiosCandlelight Studios
766 Rock, the Tree Hugger Jul 30, 2015 $4.99N/A (N/A)0 .. 20,00000:00 (00:00)Machineman1357, Phanom GamesMachineman1357, Phanom Games
767 Terminal Hacker - Into the Deep Oct 30, 2015 $1.99N/A (N/A)0 .. 20,00000:00 (00:00)SecuritySession.comSecuritySession.com
768 Shmup Love Boom Sep 18, 2015 $2.99N/A (N/A)0 .. 20,00000:00 (00:00)NickySwanDharker Studios Ltd
769 Evolution II: Fighting for Survival Feb 12, 2015 $1.99N/A (N/A)0 .. 20,00000:00 (00:00)LiveItGames LLCLiveItGames LLC
770 Voodoo Chronicles: The First Sign HD - Director’s Cut Edition May 28, 2015 $6.99N/A (N/A)0 .. 20,00000:00 (00:00)Space Monkey International1C Online Games
771 栄冠は君に レジェンドパック Jan 8, 2015 $34.99N/A (N/A)0 .. 20,00000:00 (00:00)ARTDINKDegica
772 Gene Jan 30, 2015 $0.99N/A (N/A)0 .. 20,00000:00 (00:00)Vital Games LtdVital Games Ltd
773 Star Balls Aug 18, 2015 $4.99N/A (N/A)0 .. 20,00000:00 (00:00)Bolder GamesBolder Games
774 Birth of Shadows Nov 5, 2015 $4.99N/A (N/A)0 .. 20,00000:00 (00:00)Precision Games, LLCPrecision Games, LLC
775 Christmas Stories: Puss in Boots Collector's Edition Dec 5, 2015 $9.99N/A (N/A)0 .. 20,00000:00 (00:00)Elephant GamesBig Fish Games
776 Spheritis Jun 4, 2015 $4.99N/A (N/A)0 .. 20,00000:00 (00:00)BluestrikeBluestrike
777 Wildlife Creative Studio Jan 28, 2015 $6.99N/A (N/A)0 .. 20,00000:00 (00:00)Alternative Software LtdAlternative Software Ltd
778 Snapshot - DSLR Camera Control Jul 23, 2015 $2.99N/A (N/A)0 .. 20,00000:00 (00:00)Chris HopkinChris Hopkin
779 Axes and Arrows Sep 29, 2015 $2.99N/A (N/A)20,000 .. 50,00000:00 (00:00)The Net ChampsThe Net Champs
780 Ninja Outbreak Sep 20, 2015 $9.99N/A (N/A)0 .. 20,00000:00 (00:00)Renegade Sector GamesRenegade Sector Games
781 Soda Star May 14, 2015 $3.99N/A (N/A)20,000 .. 50,00000:00 (00:00)Tiny UtopiaTiny Utopia
782 Blues and Bullets - Digital Comic Jul 23, 2015 $2.99N/A (N/A)0 .. 20,00000:00 (00:00)A Crowd of MonstersA Crowd of Monsters
783 Professor Teaches Windows 10 Jul 29, 2015 $14.99N/A (N/A)0 .. 20,00000:00 (00:00)Individual SoftwareIndividual Software
784 Tick: The Time Based Puzzle Game Dec 1, 2015 $2.99N/A (N/A)0 .. 20,00000:00 (00:00)Fingertip Games UKFingertip Games UK
785 History in Letters - The Eternal Alchemist Dec 8, 2015 $7.99N/A (N/A)0 .. 20,00000:00 (00:00)Z-SoftwareZ-Software GmbH
786 Maraiyum: Rise of the Setting Sun Aug 1, 2015 $5.99N/A (N/A)0 .. 20,00000:00 (00:00)Humdrum Software LLCHumdrum Software LLC
787 Nirvana: The First Travel Jul 31, 2015 $3.99N/A (N/A)0 .. 20,00000:00 (00:00)Jardel EliasJardel Elias
788 Actua Golf 3 Aug 31, 2015 $4.99N/A (N/A)0 .. 20,00000:00 (00:00)UrbanscanConsole Classics
789 The Ultimate Showdown Sep 16, 2015 $2.99N/A (N/A)0 .. 20,00000:00 (00:00)Harrison WaltersSole Propriotership
790 Geared May 15, 2015 $2.99N/A (N/A)0 .. 20,00000:00 (00:00)Playful Art, LLCPlayful Art, LLC
791 SBX: Invasion Jun 1, 2015 $1.99N/A (N/A)20,000 .. 50,00000:00 (00:00)Jason CarterWakeskater Studio
792 Oncoming Death Steam Edition Oct 12, 2015 $0.99N/A (N/A)0 .. 20,00000:00 (00:00)David Vogt, Christoph WinklerShit-Happens-Software
793 Toy Wars Invasion May 28, 2015 $11.99N/A (N/A)0 .. 20,00000:00 (00:00)Web Interactive SolutionsWeb Interactive Solutions
794 Battletank LOBA Mar 17, 2015 $9.99N/A (N/A)0 .. 20,00000:00 (00:00)Five Archers GamesStrategy First
795 Fork Truck Challenge Jul 24, 2015 $7.99N/A (N/A)0 .. 20,00000:00 (00:00)Mint Arcade Ltd.Mint Arcade Ltd.
796 STOORM - Full Edition. Apr 28, 2015 $2.99N/A (N/A)0 .. 20,00000:00 (00:00)Garage Monkey StudioGarage Monkey Studio
797 Soccer Pinball Thrills Jun 26, 2015 $3.99N/A (N/A)0 .. 20,00000:00 (00:00)Fancy Bytes, ReactorUnited Independent Entertainment GmbH
798 Spellbind Mar 17, 2015 $9.99N/A (N/A)0 .. 20,00000:00 (00:00)Point2Point EntertainmentStrategy First
799 Island Flight Simulator Apr 17, 2015 $6.99N/A (N/A)0 .. 20,00000:00 (00:00)Caipirinha GamesLibredia
800 Mysteries & Nightmares: Morgiana Apr 13, 2015 $7.99N/A (N/A)0 .. 20,00000:00 (00:00)Little Games CompanyLittle Games Company
801 The Electric Shocktopus Jan 25, 2015 $6.99N/A (N/A)0 .. 20,00000:00 (00:00)TestTubeGamesTestTubeGames
802 Mahjong Magic Journey 3 Dec 12, 2015 $4.99N/A (N/A)0 .. 20,00000:00 (00:00)Creobit8floor
803 Christmas Mahjong 2 Dec 10, 2015 $0.49N/A (N/A)0 .. 20,00000:00 (00:00)Creobit8floor
804 Second Coming: Tactical Training Apr 30, 2015 $4.99N/A (N/A)0 .. 20,00000:00 (00:00)Modern Paradise Media Inc.Modern Paradise Media Inc.
805 Rktcr May 12, 2015 $4.99N/A (N/A)0 .. 20,00000:00 (00:00)TCHOWTCHOW
806 Ongaku May 29, 2015 $2.99N/A (N/A)0 .. 20,00000:00 (00:00)SmashMouth Games LtdSmashMouth Games Ltd
807 Knight & Damsel Aug 20, 2015 $9.99N/A (N/A)0 .. 20,00000:00 (00:00)MK-ULTRA GamesMK-ULTRA Games
808 Warlock's Citadel Oct 9, 2015 $5.99N/A (N/A)0 .. 20,00000:00 (00:00)Byte-UP Co., ltd.Byte-UP Co., ltd.
809 Fragmentum Dec 2, 2015 $9.99N/A (N/A)0 .. 20,00000:00 (00:00)Lundar GamesLundar Games
810 Prometheus - The Fire Thief Apr 20, 2015 $4.99N/A (N/A)0 .. 20,00000:00 (00:00)Magical HackersMagical Hackers
811 Floors of Discomfort May 26, 2015 $1.99N/A (N/A)0 .. 20,00000:00 (00:00)Three Prong ProductionsThree Prong Productions
812 Exostorm May 15, 2015 $3.99N/A (N/A)0 .. 20,00000:00 (00:00)Midnight Oil Games, LLCMidnight Oil Games, LLC
813 CastleAbra Jun 5, 2015 $0.99N/A (N/A)0 .. 20,00000:00 (00:00)CastleAbra StudiosCastleAbra Studios
814 Dissonance: An Interactive Novelette Dec 1, 2015 $0.99N/A (N/A)0 .. 20,00000:00 (00:00)Philip RoyerPhilip Royer
815 In The Dead Of Night - Urszula's Revenge Dec 18, 2015 $4.99N/A (N/A)0 .. 20,00000:00 (00:00)Axed Game StudioAxed Game Studio
816 Jane's Realty Oct 21, 2015 $2.99N/A (N/A)0 .. 20,00000:00 (00:00)RealoreQumaron
817 Vector Assault Dec 10, 2015 $4.99N/A (N/A)0 .. 20,00000:00 (00:00)WizByte GamesWizByte Games
818 Nature Defenders Dec 21, 2015 $4.99N/A (N/A)0 .. 20,00000:00 (00:00)Nordic Mist GamesNordic Mist Games
819 SnarfQuest Tales Sep 15, 2015 $19.99N/A (N/A)0 .. 20,00000:00 (00:00)Cellbloc StudiosCellbloc Studios
820 Rotieer Mar 5, 2015 $2.99N/A (N/A)0 .. 20,00000:00 (00:00)Enzo WhyteEnzo Whyte
821 Raise Your Own Clone Oct 13, 2015 $0.99N/A (N/A)100,000 .. 200,00000:00 (00:00)CoaguCo IndustriesCoaguCo Industries
822 Trucker 2 Aug 14, 2015 $2.99N/A (N/A)0 .. 20,00000:00 (00:00)SildenPlay Publishing
823 Catorize Nov 11, 2015 $2.99N/A (N/A)0 .. 20,00000:00 (00:00)Anima LocusAnima Locus
824 Man Alive May 25, 2015 $4.99N/A (N/A)0 .. 20,00000:00 (00:00)Global Empire SoftGlobal Empire Soft
825 Russian Front Jul 23, 2015 $14.99N/A (N/A)20,000 .. 50,00000:00 (00:00)Electric RuneHexWar Games
826 Legend of Moros May 21, 2015 $4.99N/A (N/A)0 .. 20,00000:00 (00:00)Cannibal InteractiveCannibal Interactive
827 Dr. Bulbaceous Nov 19, 2015 $3.99N/A (N/A)0 .. 20,00000:00 (00:00)WetgenesWetgenes
828 Lucid Awakening 2 Jan 7, 2015 $8.99N/A (N/A)0 .. 20,00000:00 (00:00)Momiji StudiosMomiji Studios
829 MicroRC Simulation Dec 15, 2015 $1.99N/A (N/A)0 .. 20,00000:00 (00:00)Minindustries Game FactoryMinindustries Game Factory
830 Raining Coins Jan 18, 2015 $3.99N/A (N/A)0 .. 20,00000:00 (00:00)Crazysoft LimitedCrazysoft Limited
831 Tower of Eglathia Apr 6, 2015 $3.99N/A (N/A)0 .. 20,00000:00 (00:00)Lord EglathiaEglathia Games
832 Mass Destruction Aug 24, 2015 $4.99N/A (N/A)0 .. 20,00000:00 (00:00)NMS SoftwareConsole Classics
833 Fatty Maze's Adventures Feb 19, 2015 $5.99N/A (N/A)0 .. 20,00000:00 (00:00)Five CubedT.G.S. TRUE GAMES STUDIO LIMITED
834 The Logomancer Aug 4, 2015 $3.99N/A (N/A)0 .. 20,00000:00 (00:00)Jeffrey Nordin, Justin NordinJeffrey Nordin
835 Rothschild: The Sheep Will Wake Nov 23, 2015 $9.99N/A (N/A)0 .. 20,00000:00 (00:00)Loudpak StudiosLoudpak Studios
836 Funtoon's World May 1, 2015 $4.99N/A (N/A)0 .. 20,00000:00 (00:00)Yash Future Tech Solutions Pvt LtdYash Future Tech Solutions Pvt Ltd
837 The Worm Sep 29, 2015 $4.99N/A (N/A)0 .. 20,00000:00 (00:00)Carlo D'Apostoli ProjectsStrategy First
838 GravBlocks Dec 16, 2015 $1N/A (N/A)0 .. 20,00000:00 (00:00)From Nothing Game StudiosFrom Nothing Game Studios
839 Cell HD: emergence Feb 19, 2015 $5.99N/A (N/A)0 .. 20,00000:00 (00:00)New Life Interactive, LLCNew Life Interactive, LLC
840 Super Pixalo Feb 3, 2015 $0.99N/A (N/A)0 .. 20,00000:00 (00:00)Philip RoyerPhilip Royer
841 Doomed'n Damned Jul 13, 2015 $5.99N/A (N/A)0 .. 20,00000:00 (00:00)Arc-genArc-gen
842 Purgatory: War of the Damned Feb 11, 2015 $14.99N/A (N/A)0 .. 20,00000:00 (00:00)Ironsun StudiosKISS ltd
843 Witches, Heroes and Magic Jun 29, 2015 $7.99N/A (N/A)0 .. 20,00000:00 (00:00)Michael SwanAweSwan
844 Flight Unlimited Las Vegas Jul 6, 2015 $2.99N/A (N/A)20,000 .. 50,00000:00 (00:00)Flight Systems LLCFlight Systems LLC
845 Super Space Meltdown Jul 31, 2015 $3.99N/A (N/A)0 .. 20,00000:00 (00:00)Polyquest Games, ZXDigital LtdZXDigital Ltd
846 QuestEvent Mar 24, 2015 $2.99N/A (N/A)0 .. 20,00000:00 (00:00)FivangFivang
847 The Legend of Candlewind: Nights & Candles Feb 12, 2015 $9.99N/A (N/A)20,000 .. 50,00000:00 (00:00)Atmosphere Entertainment Studios2tainment GmbH
848 SLIDE: platformer Jul 16, 2015 $4.99N/A (N/A)0 .. 20,00000:00 (00:00)APAS gamesAPAS games
849 Icebound Aug 5, 2015 $14.99N/A (N/A)0 .. 20,00000:00 (00:00)Fastermind GamesFastermind Games
850 Drone Zero Gravity Oct 2, 2015 $9.99N/A (N/A)0 .. 20,00000:00 (00:00)Isaac NicholsIsaac Nichols
851 Amos From Outer Space Oct 5, 2015 $2.99N/A (N/A)0 .. 20,00000:00 (00:00)Poisson Rouge Interactica ltdPoisson Rouge Interactica ltd
852 Quantum Lock Dec 14, 2015 $5.99N/A (N/A)0 .. 20,00000:00 (00:00)FAT BOMB STUDIOS, LLCFAT BOMB STUDIOS, LLC
853 Celestrion Dec 7, 2015 $0.99N/A (N/A)0 .. 20,00000:00 (00:00)dSky9, Inc.dSky9, Inc.
854 Celia's Quest Jun 24, 2015 $9.99N/A (N/A)0 .. 20,00000:00 (00:00)Duckvalley ProductionsDuckvalley Productions
855 Nulldrifters Dec 14, 2015 $1.99N/A (N/A)0 .. 20,00000:00 (00:00)Cliax GamesCliax Games
856 FALL Dec 17, 2015 $5.99N/A (N/A)0 .. 20,00000:00 (00:00)NorthbrainNorthbrain
857 Brain Guzzler: The End Is Nigh May 8, 2015 $0.99N/A (N/A)0 .. 20,00000:00 (00:00)Flaming Pumpkin LtdFlaming Pumpkin Ltd
858 Louie Cooks Nov 10, 2015 $4.99N/A (N/A)0 .. 20,00000:00 (00:00)starlit studios, http://starlit-studio.com/starlit studios, http://starlit-studio.com/
859 Poppy Kart Oct 9, 2015 $4.99N/A (N/A)0 .. 20,00000:00 (00:00)Stephane Graziano, Franck Graziano, Mathieu LamarcheWebrox
860 All Fall Down Oct 16, 2015 $0.99N/A (N/A)0 .. 20,00000:00 (00:00)khos85khos85
861 My Family Creative Studio Jan 28, 2015 $6.99N/A (N/A)0 .. 20,00000:00 (00:00)Alternative Software LtdAlternative Software Ltd
862 Heart of Ember CH1 Jul 27, 2015 $1.99N/A (N/A)0 .. 20,00000:00 (00:00)Animation CatalystAnimation Catalyst
863 Goggles - World of Vaporia Oct 9, 2015 $7.99N/A (N/A)20,000 .. 50,00000:00 (00:00)Bit2Good UgBit2Good Ug
864 The Quivering Jan 28, 2015 $3.99N/A (N/A)0 .. 20,00000:00 (00:00)Charybdis LtdAlternative Software Ltd
865 ReLoaded Jul 24, 2015 $4.99N/A (N/A)0 .. 20,00000:00 (00:00)UrbanscanConsole Classics
866 Mystery Maze Of Balthasar Castle Jul 10, 2015 $4.99N/A (N/A)0 .. 20,00000:00 (00:00)Caipirinha Games, DevQ1Libredia
867 Orc Slayer Nov 5, 2015 $4.99N/A (N/A)0 .. 20,00000:00 (00:00)Cooply SolutionsCooply Solutions
868 Dexterity Ball 3D Dec 7, 2015 $6.99N/A (N/A)0 .. 20,00000:00 (00:00)Quandary Solutions LTDQuandary Solutions LTD
869 Martial Law May 26, 2015 $2.99N/A (N/A)0 .. 20,00000:00 (00:00)DropDGamesDropDGames
870 Hatland Adventures Feb 3, 2015 $2.99N/A (N/A)0 .. 20,00000:00 (00:00)Fractal AlligatorFractal Alligator
871 Red Bit Ninja May 4, 2015 $4.99N/A (N/A)0 .. 20,00000:00 (00:00)Seven Sails GamesSeven Sails Games
872 Jurassic Island: The Dinosaur Zoo Jun 11, 2015 $3.99N/A (N/A)0 .. 20,00000:00 (00:00)FramelinenetworkFramelinenetwork
873 Invisible Apartment 2 Sep 24, 2015 $3.99N/A (N/A)0 .. 20,00000:00 (00:00)Milan Kazarka, Jeroen van OostenVysoko Anime Production
874 BEARZERKERS Oct 23, 2015 $12.99N/A (N/A)0 .. 20,00000:00 (00:00)WildgrassWildgrass
875 Eczema Angel Orifice Jun 27, 2015 $4.99N/A (N/A)0 .. 20,00000:00 (00:00)Porpentine, NeotenomiePorpentine
876 Dawn of the Plow Nov 3, 2015 $3.99N/A (N/A)0 .. 20,00000:00 (00:00)Dan FitzGerald, TrichotomyDan FitzGerald, Trichotomy
877 Treasure Hunter Man 2 Oct 24, 2015 $1.99N/A (N/A)0 .. 20,00000:00 (00:00)origamihero gamesorigamihero games
878 inSynch Sep 30, 2015 $4.99N/A (N/A)0 .. 20,00000:00 (00:00)Them GamesThem Games
879 عالم أريب Nov 2, 2015 $54.99N/A (N/A)0 .. 20,00000:00 (00:00)Remal ITRemal IT
880 Sakura Day Mahjong Jul 15, 2015 $4.99N/A (N/A)0 .. 20,00000:00 (00:00)Creobit8floor
881 ATLAS レジェンドパック Jan 8, 2015 $24.99N/A (N/A)0 .. 20,00000:00 (00:00)ARTDINKDegica
882 Everything is Black and White Apr 23, 2015 $1.99N/A (N/A)0 .. 20,00000:00 (00:00)Thomas GwaltneyThomas Gwaltney
883 Lighthockey Oct 30, 2015 $1.99N/A (N/A)0 .. 20,00000:00 (00:00)Aries-LenovAries-Lenov
884 Quatro Luzes Nov 15, 2015 $5.99N/A (N/A)0 .. 20,00000:00 (00:00)Jardel EliasJardel Elias
885 Con Amore Nov 28, 2015 $4.99N/A (N/A)0 .. 20,00000:00 (00:00)Team TajuWronghut
886 Super Goo Goo Apr 16, 2015 $2.99N/A (N/A)0 .. 20,00000:00 (00:00)Greg LobanovDonut Games
887 Gamefuel Driver Control Dec 10, 2015 $29.99N/A (N/A)0 .. 20,00000:00 (00:00)Auslogics SoftwareConsole Classics
888 Janky Tanks Feb 12, 2015 $4.99N/A (N/A)0 .. 20,00000:00 (00:00)Hyper Hippo GamesHyper Hippo Games
889 Downpour May 14, 2015 $0.99N/A (N/A)0 .. 20,00000:00 (00:00)Modesto A. RabenaDivergent Game Studio
890 Troubles Land Sep 11, 2015 $4.99N/A (N/A)0 .. 20,00000:00 (00:00)ENKSoftENKSoft
891 Atlantic Quest Solitaire Jun 22, 2015 $8.99N/A (N/A)0 .. 20,00000:00 (00:00)familyplay
892 Wicked Witches Nov 27, 2015 $9.99N/A (N/A)0 .. 20,00000:00 (00:00)Ectoplasm Studio Inc.Ectoplasm Studio Inc.
893 Unheard Screams - King Leopold II's Rule Over The Congo May 11, 2015 $2.99N/A (N/A)0 .. 20,00000:00 (00:00)LocomotivahLocomotivah
894 Professor Why: The Quantum Eye Dec 1, 2015 $9.99N/A (N/A)0 .. 20,00000:00 (00:00)Professor WhyProfessor Why
895 Rooftop Cop Mar 2, 2015 $2.99N/A (N/A)0 .. 20,00000:00 (00:00)S. L. ClarkIndependent
896 TOTM Feb 3, 2015 $7.99N/A (N/A)0 .. 20,00000:00 (00:00)Juniper GamesJuniper GmbH
897 Two Steps Back Aug 6, 2015 $2.99N/A (N/A)0 .. 20,00000:00 (00:00)Kristen CheelyKristen Cheely
898 Pocket God vs Desert Ashes Aug 20, 2015 $4.99N/A (N/A)0 .. 20,00000:00 (00:00)Nine Tales Digital, Bolt CreativeNine Tales Digital
899 Relativity Wars - A Science Space RTS Apr 10, 2015 $5.99N/A (N/A)20,000 .. 50,00000:00 (00:00)Fungameco LtdFungameco Ltd
900 Shiny Gauntlet Oct 1, 2015 $0.99N/A (N/A)0 .. 20,00000:00 (00:00)SpritewrenchSpritewrench
901 Fruits Inc. Deluxe Pack Feb 19, 2015 $0.79N/A (N/A)0 .. 20,00000:00 (00:00)Manifesto Game StudioStrategy First
902 The Glow Dec 10, 2015 $3.99N/A (N/A)0 .. 20,00000:00 (00:00)Brainwashing gamesBrainwashing games
903 3D Paraglider Aug 3, 2015 $1.99N/A (N/A)0 .. 20,00000:00 (00:00)khos85khos85
904 You Are Not The Hero Jun 2, 2015 $14.99N/A (N/A)0 .. 20,00000:00 (00:00)ToMorning ProductionsToMorning Productions
905 TAKEN Jul 7, 2015 $1.99N/A (N/A)0 .. 20,00000:00 (00:00)Undead Yeti SoftwareMath Nerd Productions, LLC
906 Caffeine Oct 12, 2015 $10.99N/A (N/A)0 .. 20,00000:00 (00:00)Incandescent ImagingIncandescent Imaging
907 Alchemist Penguin Jun 6, 2015 $1.99N/A (N/A)0 .. 20,00000:00 (00:00)Foot in the Box, LLCFoot in the Box, LLC
908 Steamalot: Epoch's Journey Aug 31, 2015 $4.99N/A (N/A)0 .. 20,00000:00 (00:00)Risen Phoenix StudiosRisen Phoenix Studios
909 RED Fuse: Rolling Explosive Device Sep 16, 2015 $4.99N/A (N/A)0 .. 20,00000:00 (00:00)Meteor ShockMeteor Shock
910 Diamond Deeps Jun 1, 2015 $4.99N/A (N/A)0 .. 20,00000:00 (00:00)BIT-GENBIT-GEN
911 Carrotting Brain Oct 23, 2015 $8.99N/A (N/A)0 .. 20,00000:00 (00:00)Raving BotsRaving Bots
912 Icarus-X: Tides of Fire Jun 24, 2015 $4.99N/A (N/A)0 .. 20,00000:00 (00:00)The QuadsphereThe Quadsphere
913 Hunter Gatherer Mar 24, 2015 $1.99N/A (N/A)0 .. 20,00000:00 (00:00)Hunter Gatherer GamesHunter Gatherer Games
914 The Sheltered Apr 16, 2015 $1.99N/A (N/A)0 .. 20,00000:00 (00:00)Benjamin FamigliettiPuppet Arcade
915 Galaxy Union Jun 1, 2015 $4.99N/A (N/A)20,000 .. 50,00000:00 (00:00)cybercriticscybercritics
916 Choice of the Petal Throne Apr 10, 2015 $3.99N/A (N/A)0 .. 20,00000:00 (00:00)Choice of GamesChoice of Games
917 Extreme Formula Championship May 4, 2015 $6.99N/A (N/A)0 .. 20,00000:00 (00:00)Yash Future Tech Solutions Pvt LtdYash Future Tech Solutions Pvt Ltd
918 Judgement Sep 15, 2015 $4.99N/A (N/A)0 .. 20,00000:00 (00:00)Nathan Archer, Luke Brown, Dan KramerNewfa Games
919 Hidden Mysteries: Civil War Aug 11, 2015 $4.99N/A (N/A)0 .. 20,00000:00 (00:00)Gunnar GamesGameMill Entertainment
920 Lonath Online Oct 16, 2015 $6.99N/A (N/A)0 .. 20,00000:00 (00:00)4NetGames4NetGames
921 Red Crow Mysteries: Legion May 28, 2015 $6.99N/A (N/A)0 .. 20,00000:00 (00:00)Cateia GamesLibredia Entertainment
922 Professor Why Chemistry 1 Oct 13, 2015 $9.99N/A (N/A)0 .. 20,00000:00 (00:00)Professor WhyProfessor Why
923 Aqua Panic ! Nov 9, 2015 $7.99N/A (N/A)0 .. 20,00000:00 (00:00)Eko SoftwareEko Software
924 The BoX Dec 7, 2015 $2.99N/A (N/A)0 .. 20,00000:00 (00:00)White Clover WorldsWhite Clover Inc.
925 MagNets Jan 30, 2015 $7.99N/A (N/A)0 .. 20,00000:00 (00:00)Total MonkeryTotal Monkery
926 Jaques Roque Apr 1, 2015 $8.99N/A (N/A)0 .. 20,00000:00 (00:00)Thomas Schreiter, Dirk Schreiter, Jörg Winterstein, Peer Draeger, Gereon BartelAugusta Software GmbH
927 Marble Muse Aug 14, 2015 $4.99N/A (N/A)0 .. 20,00000:00 (00:00)Ketos Games, Shiny Snail LLCShiny Snail LLC
928 Destructamundo Jan 28, 2015 $4.99N/A (N/A)0 .. 20,00000:00 (00:00)MiniVisionsChoice Provisions
929 Bass Blocks Sep 15, 2015 $4.99N/A (N/A)0 .. 20,00000:00 (00:00)Paul CooneyPaul Cooney
930 Decromancer Oct 13, 2015 $9.99N/A (N/A)0 .. 20,00000:00 (00:00)UNIT9UNIT9
931 Knight of the Hamsters Apr 15, 2015 $0.99N/A (N/A)0 .. 20,00000:00 (00:00)Johnny Death GamesRed Fly Studio
932 Sun Dogs Oct 29, 2015 $9.99N/A (N/A)0 .. 20,00000:00 (00:00)Royal PolygonRoyal Polygon
933 Freedom Poopie Oct 16, 2015 $2.99N/A (N/A)0 .. 20,00000:00 (00:00)Electroplasmatic GamesElectroplasmatic Games
934 Buggy Jul 6, 2015 $4.99N/A (N/A)0 .. 20,00000:00 (00:00)UrbanscanConsole Classics
935 It's Killing Time Jun 27, 2015 $3.99N/A (N/A)0 .. 20,00000:00 (00:00)Choice of GamesChoice of Games
936 WolfWars Jan 2, 2015 $2.99N/A (N/A)0 .. 20,00000:00 (00:00)Peter HrdyPeter Hrdy
937 Fury Of The Gods Jun 4, 2015 $2.99N/A (N/A)0 .. 20,00000:00 (00:00)Spectral GamesLibredia
938 Paparazzi Feb 17, 2015 $1.99N/A (N/A)0 .. 20,00000:00 (00:00)Pringo Dingo GamesPringo Dingo Games
939 Invisible Apartment Zero Sep 24, 2015 $2.99N/A (N/A)0 .. 20,00000:00 (00:00)Jeroen van Oosten, Milan KazarkaVysoko Anime Production
940 Parallels Nov 13, 2015 $0.99N/A (N/A)0 .. 20,00000:00 (00:00)RisingHighRisingHigh
941 The Hole Story Jul 13, 2015 $4.99N/A (N/A)0 .. 20,00000:00 (00:00)LearnDistrict Inc., The NegativesLearnDistrict Inc.
942 Hostile Dimension Jun 25, 2015 $1.99N/A (N/A)0 .. 20,00000:00 (00:00)Alrauna StudiosPlay sp. z o. o.
943 3d Bridges Mar 24, 2015 $3.99N/A (N/A)0 .. 20,00000:00 (00:00)Robert DahlenburgDahlenburg
944 Isaac the Adventurer Mar 2, 2015 $2.99N/A (N/A)0 .. 20,00000:00 (00:00)Artisiti, Studio VrtinecArtisiti
945 3d Engineers Feb 10, 2015 $5.99N/A (N/A)0 .. 20,00000:00 (00:00)Robert DahlenburgDahlenburg
946 Break the Cube Jan 26, 2015 $0.99N/A (N/A)0 .. 20,00000:00 (00:00)Raxi PetrovRaxi Petrov
947 CHAOS - In the Darkness Oct 7, 2015 $7.99N/A (N/A)0 .. 20,00000:00 (00:00)4Realms4Realms
948 Fantastic Pinball Thrills Jun 26, 2015 $4.99N/A (N/A)0 .. 20,00000:00 (00:00)Fancy Bytes, ReactorUnited Independent Entertainment GmbH
949 D/Generation HD Oct 23, 2015 $9.99N/A (N/A)0 .. 20,00000:00 (00:00)West Coast SoftwareWest Coast Software
950 One Final Chaos Oct 21, 2015 $4.99N/A (N/A)0 .. 20,00000:00 (00:00)Pusselbit, Sweet Studio LabsA Sweet Studio
951 Daily Espada Sep 30, 2015 $9.99N/A (N/A)0 .. 20,00000:00 (00:00)PidrohPidroh
952 Impulse Revolution Sep 9, 2015 $6.99N/A (N/A)0 .. 20,00000:00 (00:00)MandlebarMandlebar
953 SodaCity Dec 8, 2015 $9.99N/A (N/A)0 .. 20,00000:00 (00:00)Tochas StudiosTochas Studios
954 Operation KREEP Oct 31, 2015 $2.99N/A (N/A)0 .. 20,00000:00 (00:00)Magic Item TechMagic Item Tech
955 Tile Rider Jun 4, 2015 $3.99N/A (N/A)0 .. 20,00000:00 (00:00)7 Soft Pillows7 Soft Pillows
956 The Forgotten Forest Nov 11, 2015 $0.99N/A (N/A)0 .. 20,00000:00 (00:00)Dylan WentzDylan Wentz
957 Eisenbahn X Jun 8, 2015 $39.99N/A (N/A)0 .. 20,00000:00 (00:00)TREND, SoftproKoch Media
958 Bernie Needs Love Aug 21, 2015 $2.99N/A (N/A)0 .. 20,00000:00 (00:00)Protomni MultimediaProtomni Multimedia
959 SkyScrappers Oct 15, 2015 $9.99N/A (N/A)0 .. 20,00000:00 (00:00)Ground ShatterGround Shatter
960 Usagi Yojimbo: Way of the Ronin Jan 30, 2015 $4.99N/A (N/A)0 .. 20,00000:00 (00:00)HappyGiantHappyGiant
961 iso-Sphere Nov 13, 2015 $4.99N/A (N/A)0 .. 20,00000:00 (00:00)Mighty Fox StudioMighty Fox Studio
962 Angels That Kill - The Final Cut Nov 20, 2015 $4.99N/A (N/A)0 .. 20,00000:00 (00:00)Rising Sun InteractiveRising Sun Interactive
963 Tactical Soccer The New Season Nov 20, 2015 $9.99N/A (N/A)20,000 .. 50,00000:00 (00:00)EGCLKISS ltd
964 BattleQuiz Sep 3, 2015 $2.99N/A (N/A)0 .. 20,00000:00 (00:00)Rhema GroupPlay sp. z o. o.
965 Amygdala Jul 15, 2015 $9.99N/A (N/A)0 .. 20,00000:00 (00:00)MachineSpiritMachineSpirit
966 Karma Jul 14, 2015 $0.99N/A (N/A)0 .. 20,00000:00 (00:00)WnMStudioWnMStudio
967 Ice Cream Surfer Jul 21, 2015 $2.99N/A (N/A)0 .. 20,00000:00 (00:00)Dolores EntertainmentDolores Entertainment
968 ABD: A Beautiful Day Aug 14, 2015 $24.99N/A (N/A)0 .. 20,00000:00 (00:00)Robert Bonner, Jack Hanley, Ben Rawles, Boris BlosseGag A Maggot Entertainment, LLC.
969 Box Out! May 4, 2015 $6.99N/A (N/A)0 .. 20,00000:00 (00:00)Da Picky MonkeyDa Picky Monkey
970 Miko Gakkou Monogatari: Kaede Episode Aug 16, 2015 $8.99N/A (N/A)0 .. 20,00000:00 (00:00)xinoroxinoro
971 Bleeding Blocks Sep 5, 2015 $1.99N/A (N/A)0 .. 20,00000:00 (00:00)Killer Teapot GamesKiller Teapot Games
972 Titanis Jun 8, 2015 $4.99N/A (N/A)0 .. 20,00000:00 (00:00)Silver Goblet GamesSilver Goblet Games
973 The Eigengrau Menagerie Jun 4, 2015 $2.99N/A (N/A)0 .. 20,00000:00 (00:00)Ozzie SneddonLibrarium Studios
974 Helena The 3rd May 1, 2015 $0.99N/A (N/A)0 .. 20,00000:00 (00:00)Only Human StudiosOnly Human Studios
975 Superstar Dance Club Aug 4, 2015 $4.99N/A (N/A)0 .. 20,00000:00 (00:00)Atomic PlanetConsole Classics
976 Slinki Apr 15, 2015 $0.99N/A (N/A)0 .. 20,00000:00 (00:00)Titan Forged GamesTitan Forged Games
977 Beatbuddy: On Tour Dec 4, 2015 $6.99N/A (N/A)0 .. 20,00000:00 (00:00)ThreaksThreaks
978 Threads of Destiny Dec 4, 2015 $4.99N/A (N/A)0 .. 20,00000:00 (00:00)Warfare StudiosWarfare Studios
979 Hills Of Glory 3D May 28, 2015 $4.99N/A (N/A)0 .. 20,00000:00 (00:00)AMA, Mando ProductionsPlug In Digital
980 Signal to Noise Nov 20, 2015 $4.99N/A (N/A)0 .. 20,00000:00 (00:00)Solanimus Inc.Solanimus Inc.
981 Ashes of Immortality II Aug 28, 2015 $6.99N/A (N/A)0 .. 20,00000:00 (00:00)Warfare StudiosWarfare Studios
982 Deliverance Aug 31, 2015 $4.99N/A (N/A)0 .. 20,00000:00 (00:00)TBDTS GamesTBDTS Games
983 Get Over Here Aug 20, 2015 $9.99N/A (N/A)0 .. 20,00000:00 (00:00)Reload Games StudioStrategy First
984 Our Nation's Miner Dec 22, 2015 $5.99N/A (N/A)0 .. 20,00000:00 (00:00)Curtis HoltCurtis Holt
985 Vindicator: Uprising Jul 3, 2015 $2.99N/A (N/A)0 .. 20,00000:00 (00:00)GamePhaseGamePhase
986 JamG Jul 6, 2015 $9.99N/A (N/A)0 .. 20,00000:00 (00:00)Ernő KirályErnő Király
987 XO-Planets Oct 23, 2015 $3.99N/A (N/A)0 .. 20,00000:00 (00:00)BohfamBohfam
988 Pavel Quest May 13, 2015 $2.99N/A (N/A)0 .. 20,00000:00 (00:00)ElevenSeventy, LLCElevenSeventy, LLC
989 Erwin's Timewarp Sep 21, 2015 $9.99N/A (N/A)0 .. 20,00000:00 (00:00)JayanamJayanam
990 When In Rome Oct 29, 2015 $4.99N/A (N/A)0 .. 20,00000:00 (00:00)RealoreQumaron
991 Never Ending Night Sep 30, 2015 $0.99N/A (N/A)0 .. 20,00000:00 (00:00)Dot DreamDot Dream
992 Ghost in the Machine Apr 22, 2015 $4.99N/A (N/A)0 .. 20,00000:00 (00:00)Michael J. Moffitt, Julian J. HammersteinPolar Bunny Ltd
993 Tidal Affair: Before The Storm Nov 24, 2015 $9.99N/A (N/A)0 .. 20,00000:00 (00:00)OvercurfewOvercurfew
994 Frizzy Dec 22, 2015 $2.99N/A (N/A)0 .. 20,00000:00 (00:00)Team FrizzTeam Frizz
995 Vagrant Hearts 2 May 20, 2015 $9.99N/A (N/A)0 .. 20,00000:00 (00:00)Warfare StudiosWarfare Studios
996 Ride the Bullet May 22, 2015 $3.99N/A (N/A)0 .. 20,00000:00 (00:00)Jordan SendarJordan Sendar
997 The Language Game Jul 9, 2015 $0.99N/A (N/A)0 .. 20,00000:00 (00:00)Tap To WinTap To Win
998 Dorke and Ymp Oct 4, 2015 $4.99N/A (N/A)0 .. 20,00000:00 (00:00)Norse, Piko InteractivePiko Interactive LLC, Classics Digital
999 Reigning Cats Aug 28, 2015 $1.99N/A (N/A)0 .. 20,00000:00 (00:00)Myra D'AnnMyra D'Ann
1000 Trap Them - Sniper Edition Oct 9, 2015 $3.99N/A (N/A)0 .. 20,00000:00 (00:00)Juri SchupiloJuri Schupilo
1001 A-Men 2 Jun 24, 2015 $8.99N/A (N/A)0 .. 20,00000:00 (00:00)Bloober Team SABloober Team SA
1002 Red Goblin: Cursed Forest May 15, 2015 $4.99N/A (N/A)0 .. 20,00000:00 (00:00)Eerie GamesFlying Interactive
1003 Space Thinger Sep 25, 2015 $1.99N/A (N/A)0 .. 20,00000:00 (00:00)WytchlightWytchlight
1004 Human Extinction Simulator Jan 21, 2015 $19.99N/A (N/A)0 .. 20,00000:00 (00:00)Machine 22Machine 22
1005 Solar System Conflict Apr 6, 2015 $9.99N/A (N/A)0 .. 20,00000:00 (00:00)UnexEvoUnexEvo
1006 World of Cinema - Movie Tycoon Apr 2, 2015 $4.99N/A (N/A)0 .. 20,00000:00 (00:00)Pepi GamesPepi Games
1007 Car Washer: Summer of the Ninja Nov 4, 2015 $4.99N/A (N/A)0 .. 20,00000:00 (00:00)Pen and Sword GamesPen and Sword Games
1008 Hush Jul 29, 2015 $9.99N/A (N/A)0 .. 20,00000:00 (00:00)Game Studio 78Game Studio 78
1009 Industry Transporters Aug 31, 2015 $9.99N/A (N/A)0 .. 20,00000:00 (00:00)Markus FickMK game production
1010 10 Years After Jan 30, 2015 $5.99N/A (N/A)0 .. 20,00000:00 (00:00)Rock Paper GamesRock Paper Games
1011 Expander Dec 1, 2015 $2.99N/A (N/A)0 .. 20,00000:00 (00:00)All Civilized PlanetsAll Civilized Planets
1012 BADBLOOD Nov 13, 2015 $7.99N/A (N/A)0 .. 20,00000:00 (00:00)Winnie SongWSONG LLC
1013 Friendship Club Mar 24, 2015 $11.99N/A (N/A)0 .. 20,00000:00 (00:00)Force Of Habit, Clockwork CuckooForce Of Habit
1014 Pixel: ru² Mar 6, 2015 $9.99N/A (N/A)0 .. 20,00000:00 (00:00)C63 IndustriesC63 Industries
1015 Traps N' Gemstones Apr 16, 2015 $4.99N/A (N/A)0 .. 20,00000:00 (00:00)Donut GamesDonut Games
1016 Project Green Beat Jan 16, 2015 $4.99N/A (N/A)0 .. 20,00000:00 (00:00)SeattleEggIndie Game - None
1017 Déjà Vu II: MacVenture Series Jan 26, 2015 $2.99N/A (N/A)0 .. 20,00000:00 (00:00)ZojoiZojoi
1018 Panda School Browser May 22, 2015 $2.99N/A (N/A)0 .. 20,00000:00 (00:00)Wiseman SoftworksWiseman Softworks
1019 StandPoint Mar 5, 2015 $9.99N/A (N/A)0 .. 20,00000:00 (00:00)Unruly AttractionsBANDAI NAMCO Entertainment, United Independent Entertainment GmbH
1020 Tkl Online Jan 27, 2015 $7.99N/A (N/A)0 .. 20,00000:00 (00:00)KURONEKO SOFTKURONEKO SOFT
1021 NeXus: One Core Feb 26, 2015 $4.99N/A (N/A)20,000 .. 50,00000:00 (00:00)Hyde GamesBulkyPix
1022 Navpoint Sep 23, 2015 $4.99N/A (N/A)0 .. 20,00000:00 (00:00)Ross EdgarPlug In Digital
1023 Ghost Cleaner Nov 5, 2015 $5.99N/A (N/A)0 .. 20,00000:00 (00:00)LookAtMyGameLookAtMyGame, Plug In Digital
1024 The Last Dogma - Wilder Wein Edition Jun 30, 2015 $6.99N/A (N/A)0 .. 20,00000:00 (00:00)Sasha DarkoSasha Darko
1025 ROGUS - Kingdom of The Lost Souls Jun 30, 2015 $4.99N/A (N/A)0 .. 20,00000:00 (00:00)IronDrop StudiosIronDrop Studios
1026 Project Tarvotan Sep 25, 2015 $0.99N/A (N/A)20,000 .. 50,00000:00 (00:00)FlagmanJeremyFlagmanJeremy
1027 Go To Bed: Survive The Night Oct 28, 2015 $4.99N/A (N/A)0 .. 20,00000:00 (00:00)Touchfight Games LLCTouchfight Games LLC
1028 Hot Pinball Thrills Jun 26, 2015 $3.99N/A (N/A)0 .. 20,00000:00 (00:00)Fancy Bytes, ReactorUnited Independent Entertainment GmbH
1029 Run Run And Die Sep 11, 2015 $1.99N/A (N/A)0 .. 20,00000:00 (00:00)Pixel Bones StudioHeadup Games
1030 Assault Corps 2 Jul 16, 2015 $2.99N/A (N/A)0 .. 20,00000:00 (00:00)AOS GAMEAOS GAME
1031 Fireflies Sep 7, 2015 $1.99N/A (N/A)20,000 .. 50,00000:00 (00:00)Phanom GamesPhanom Games
1032 Raywin Jul 29, 2015 $0.99N/A (N/A)50,000 .. 100,00000:00 (00:00)FlatlineVolens Nolens Games
1033 MotorSport Revolution Jan 15, 2015 $14.99N/A (N/A)0 .. 20,00000:00 (00:00)Ghost MachineGhost Machine
1034 SUMICO - The Numbers Game Jul 3, 2015 $4.99N/A (N/A)0 .. 20,00000:00 (00:00)LudomotionLudomotion
1035 Shades of Black Aug 10, 2015 $11.99N/A (N/A)0 .. 20,00000:00 (00:00)MDNA GamesTri Synergy, Inc.
1036 Melter Man Sep 18, 2015 $1.99N/A (N/A)0 .. 20,00000:00 (00:00)Husky Swim TeamRMM Studios, LLC
1037 Champions Of Chaos 2 Sep 24, 2015 $1.99N/A (N/A)20,000 .. 50,00000:00 (00:00)Epic LLamaEpic LLama
1038 ルナティックドーン レジェンドパック Jan 8, 2015 $34.99N/A (N/A)0 .. 20,00000:00 (00:00)ARTDINKDegica
1039 Space Xonix Sep 17, 2015 $0.99N/A (N/A)0 .. 20,00000:00 (00:00)SRF GamesSRF Games
1040 Kagura Douchuuki Oct 22, 2015 $13.99N/A (N/A)0 .. 20,00000:00 (00:00)DebonosuWorks Inc.DebonosuWorks Inc.
1041 Country Tales Aug 27, 2015 $6.99N/A (N/A)0 .. 20,00000:00 (00:00)Cateia GamesLibredia Entertainment
1042 Spud! Mar 3, 2015 $3.99N/A (N/A)0 .. 20,00000:00 (00:00)Charybdis LtdAlternative Software Ltd
1043 Little Cells Jun 4, 2015 $3.99N/A (N/A)0 .. 20,00000:00 (00:00)Fully BuggedFully Bugged
1044 Super Mega Bob Dec 3, 2015 $4.99N/A (N/A)0 .. 20,00000:00 (00:00)JenitoJenito
1045 Voyage to Farland Jun 2, 2015 $5.99N/A (N/A)0 .. 20,00000:00 (00:00)Peculiar GamesPeculiar Games
1046 PING 1.5+ Aug 13, 2015 $4.99N/A (N/A)0 .. 20,00000:00 (00:00)Nami TentouNami Tentou
1047 99 Waves to Die Apr 9, 2015 $2.99N/A (N/A)0 .. 20,00000:00 (00:00)SpookyFish GamesSpookyFish Games
1048 Space Robot Samurai Zombie Slayer May 21, 2015 $1.99N/A (N/A)0 .. 20,00000:00 (00:00)Brandon BrizziBrandon Brizzi
1049 SCHAR: Blue Shield Alliance Mar 3, 2015 $1.99N/A (N/A)0 .. 20,00000:00 (00:00)Brainshape GamesBA Productions LLC
1050 Starlight Tactics Apr 7, 2015 $9.99N/A (N/A)0 .. 20,00000:00 (00:00)Escape Hatch Entertainment,LLCEscape Hatch Entertainment, LLC
1051 After All Apr 17, 2015 $2.99N/A (N/A)20,000 .. 50,00000:11 (00:11)JAMgamesW. T. B.
1052 Green Moon May 15, 2015 $6.99N/A (N/A)0 .. 20,00000:00 (00:00)Absolutist Ltd.Absolutist Ltd.
1053 Build 'n Bump Jul 22, 2015 $3.99N/A (N/A)20,000 .. 50,00000:00 (00:00)Roppy Chop StudiosRoppy Chop Studios
1054 Mad Snowboarding Sep 8, 2015 $4.99N/A (N/A)0 .. 20,00000:00 (00:00)Denis LapinerDenis Lapiner
1055 Barter Empire Feb 6, 2015 $4.99N/A (N/A)0 .. 20,00000:00 (00:00)Mayhem Games USAMayhem Games USA
1056 Omnipresent Sep 28, 2015 $3.99N/A (N/A)0 .. 20,00000:00 (00:00)Starkey IndustriesStarkey Industries
1057 The Curse of Nordic Cove Apr 23, 2015 $0.99N/A (N/A)0 .. 20,00000:00 (00:00)On The Level Game StudiosOn The Level Game Studios
1058 Barbarian Brawl Feb 12, 2015 $4.99N/A (N/A)0 .. 20,00000:00 (00:00)ThrillionThrillion
1059 Owys Aug 25, 2015 $0.99N/A (N/A)0 .. 20,00000:00 (00:00)Gameware StudiosGameware Studios
1060 Yasai Ninja Jul 21, 2015 $1.99N/A (N/A)0 .. 20,00000:00 (00:00)Recotechnology S.L.Recotechnology S.L.
1061 Apollo4x May 5, 2015 $1.99N/A (N/A)0 .. 20,00000:00 (00:00)Digital EntertainmentDigital Entertainment
1062 The Tower Aug 15, 2015 $0.99N/A (N/A)20,000 .. 50,00000:00 (00:00)Narrow MonolithNarrow Monolith
1063 Word Wonders: The Tower of Babel May 8, 2015 $3.99N/A (N/A)0 .. 20,00000:00 (00:00)Chimera EntertainmentGAMES in FLAMES
1064 articy:draft 3 - Flex License Oct 5, 2015 N/AN/A (N/A)0 .. 20,00000:00 (00:00)Articy SoftwareArticy Software
1065 Inventioneers Oct 5, 2015 $6.99N/A (N/A)0 .. 20,00000:00 (00:00)FilimundusFilimundus
1066 Furfly Dec 18, 2015 $4.99N/A (N/A)0 .. 20,00000:00 (00:00)SMD Gaming StudioSMD Gaming Studio
1067 Thundering Skies May 12, 2015 $0.99N/A (N/A)20,000 .. 50,00000:00 (00:00)Flat VoxelFlat Voxel
1068 Demigods Oct 13, 2015 $3.99N/A (N/A)0 .. 20,00000:00 (00:00)RealoreQumaron
1069 Nightmare on Azathoth Oct 30, 2015 $0.99N/A (N/A)0 .. 20,00000:00 (00:00)Modesto RabenaDivergent Game Studio
1070 Rise of Keepers Dec 4, 2015 $12.99N/A (N/A)0 .. 20,00000:00 (00:00)Samaritan StudiosSamaritan Studios
1071 DGU: Death God University Jul 15, 2015 $9.99N/A (N/A)0 .. 20,00000:00 (00:00)DSK Studios Pvt. LtdKPL
1072 Silicone-2 Jun 3, 2015 $0.99N/A (N/A)0 .. 20,00000:00 (00:00)TortTort
1073 Elements: Epic Heroes Dec 21, 2015 $6.99N/A (N/A)0 .. 20,00000:00 (00:00)Zadzen Games Ltd.Zadzen Games Ltd.
1074 Arevan Jul 24, 2015 $7.99N/A (N/A)20,000 .. 50,00000:00 (00:00)Overcloud9Aldorlea Games
1075 Dark Gates Jan 26, 2015 $3.99N/A (N/A)0 .. 20,00000:00 (00:00)DFour GamesDFour Games
1076 Epic Showdown Oct 27, 2015 $4.99N/A (N/A)0 .. 20,00000:00 (00:00)NalokiNaloki
1077 Shrooms May 8, 2015 $14.99N/A (N/A)0 .. 20,00000:00 (00:00)Immersive DouroImmersive Douro
1078 Taken Souls: Blood Ritual Collector's Edition Mar 23, 2015 $6.99N/A (N/A)0 .. 20,00000:00 (00:00)Space Monkey InternationalShaman Games Studio
1079 Once Bitten, Twice Dead! Jul 17, 2015 $4.99N/A (N/A)20,000 .. 50,00000:00 (00:00)GamestartersGamestarters Publisher, Gamestarter's
1080 Moonstrider Sep 30, 2015 $11.99N/A (N/A)0 .. 20,00000:00 (00:00)Triple LasersTriple Lasers
1081 Carnivore Land Sep 15, 2015 $7.99N/A (N/A)0 .. 20,00000:00 (00:00)dwCrewdwCrew
1082 InnerCube Feb 13, 2015 $3.99N/A (N/A)0 .. 20,00000:00 (00:00)Schell GamesSchell Games
1083 Mysterious Space May 15, 2015 $10N/A (N/A)0 .. 20,00000:00 (00:00)Ben Hendel-Doyingbenmakesgames.com
1084 Piloteer Sep 25, 2015 $2.99N/A (N/A)0 .. 20,00000:00 (00:00)Fixpoint ProductionsFixpoint Productions
1085 SCS deORBIT Aug 17, 2015 $0.99N/A (N/A)0 .. 20,00000:00 (00:00)Zero DollarzZero Dollarz
1086 Haywire on Fuel Station Zeta Sep 24, 2015 $3.99N/A (N/A)20,000 .. 50,00000:00 (00:00)Mad Goblin GamesMad Goblin Games
1087 Baseball Riot Dec 9, 2015 $4.99N/A (N/A)0 .. 20,00000:00 (00:00)10tons Ltd10tons Ltd
1088 Sir! I'd Like To Report A Bug! Oct 19, 2015 $1.99N/A (N/A)0 .. 20,00000:00 (00:00)Lord Puggington GamesLord Puggington Games
1089 Sherlock Holmes Consulting Detective: The Case of the Tin Soldier Jun 8, 2015 $2.99N/A (N/A)20,000 .. 50,00000:00 (00:00)ZojoiZojoi
1090 SWR JST DX Selective Memory Erase Effect Apr 20, 2015 $4.99N/A (N/A)0 .. 20,00000:00 (00:00)Nekomura GamesNekomura Games
1091 Spirit Run - Fire vs. Ice Feb 12, 2015 $1.99N/A (N/A)0 .. 20,00000:00 (00:00)LunagamesLibredia
1092 Gamer Simulator Sep 22, 2015 $0.99N/A (N/A)0 .. 20,00000:00 (00:00)Punk Games StudioPunk Games Studio
1093 Rumble Oct 14, 2015 $1.99N/A (N/A)0 .. 20,00000:00 (00:00)OverflowOverflow
1094 Gunslugs 2 Jan 14, 2015 $8.99N/A (N/A)0 .. 20,00000:00 (00:00)OrangepixelOrangepixel
1095 Don'Yoku Jun 29, 2015 $3.99N/A (N/A)0 .. 20,00000:00 (00:00)Dark-Spot StudioDark-Spot Studio
1096 Go Home - Rage incoming Aug 3, 2015 $1.99N/A (N/A)20,000 .. 50,00000:00 (00:00)Synter GamesSynter Games
1097 Damned Nation Reborn Feb 12, 2015 $12.99N/A (N/A)20,000 .. 50,00000:00 (00:00)SinisterSinister
1098 Dream Factory Nov 2, 2015 $9.99N/A (N/A)20,000 .. 50,00000:00 (00:00)The TambourineThe Tambourine
1099 Mos Speedrun 2 Sep 3, 2015 $3.99N/A (N/A)0 .. 20,00000:00 (00:00)PhysmoPhysmo
1100 Light Bound Apr 23, 2015 $9.99N/A (N/A)0 .. 20,00000:00 (00:00)Garden Knight GamesGarden Knight Games
1101 Crystal Towers 2 XL Aug 11, 2015 $7.99N/A (N/A)0 .. 20,00000:00 (00:00)David NewtonDavid Newton
1102 Daydreamer: Awakened Edition Aug 21, 2015 $10.99N/A (N/A)0 .. 20,00000:00 (00:00)Roland StudiosATLUS
1103 Innoquous 5 Aug 29, 2015 $0.99N/A (N/A)0 .. 20,00000:00 (00:00)Chequered Ink Ltd.Chequered Ink Ltd.
1104 Subaeria Sep 22, 2015 $12.99N/A (N/A)0 .. 20,00000:00 (00:00)Studios iLLOGIKAStudios iLLOGIKA
1105 Bocce Revolution Oct 23, 2015 $9.99N/A (N/A)0 .. 20,00000:00 (00:00)DysotekDysotek
1106 Hypnosis Jan 28, 2015 $4.99N/A (N/A)0 .. 20,00000:00 (00:00)NevosoftNevosoft
1107 Hacker Evolution Source Code May 11, 2015 $9.99N/A (N/A)0 .. 20,00000:00 (00:00)exosyphen studiosexosyphen studios
1108 Cheats 4 Hire Jun 25, 2015 $4.99N/A (N/A)0 .. 20,00000:00 (00:00)Travian Games GmbHTravian Games GmbH
1109 Lucadian Chronicles Oct 15, 2015 $7.99N/A (N/A)0 .. 20,00000:00 (00:00)Dark Roast EntertainmentDark Roast Entertainment
1110 The Ables: Freepoint High Dec 16, 2015 $4.99N/A (N/A)0 .. 20,00000:00 (00:00)Qiwi Games, LLC, GraveckQiwi Games, LLC
1111 Aveyond 3-3: The Lost Orb Jan 16, 2015 $9.99N/A (N/A)0 .. 20,00000:00 (00:00)Amaranth Games, LLCDegica
1112 Deity Quest Jan 20, 2015 $3.99N/A (N/A)0 .. 20,00000:00 (00:00)Fancy Fish GamesFancy Fish Games
1113 Fairspace Oct 21, 2015 $8.99N/A (N/A)0 .. 20,00000:00 (00:00)Sub Orbital SoftwareSub Orbital Software
1114 Nandeyanen!? - The 1st Sûtra Jul 22, 2015 $1.99N/A (N/A)0 .. 20,00000:00 (00:00)Tchagata GamesTchagata Games
1115 Robot Exploration Squad Sep 16, 2015 $2.99N/A (N/A)0 .. 20,00000:00 (00:00)Jack DolabanyDolaSoft
1116 ORBIT Sep 30, 2015 $6.99N/A (N/A)0 .. 20,00000:00 (00:00)4Bit Games4Bit Games
1117 PD Howler 9.6 Digital Painter and Visual FX box Mar 11, 2015 $8.99N/A (N/A)0 .. 20,00000:00 (00:00)Daniel Ritchie - PDHowler.com, Philip Staiger - TheBest3D.comKPL
1118 Wildlife Park - Wild Creatures Apr 1, 2015 $5.99N/A (N/A)20,000 .. 50,00000:00 (00:00)b-alive gmbhb-alive gmbh
1119 Evil Hazard Sep 16, 2015 $2.99N/A (N/A)20,000 .. 50,00000:00 (00:00)Pixel Blitz StudiosPixel Blitz Studios
1120 Expert Rifleman - Reloaded Aug 14, 2015 $14.99N/A (N/A)0 .. 20,00000:00 (00:00)BattleByteBattleByte
1121 Rolling Shapes Jun 5, 2015 $0.99N/A (N/A)0 .. 20,00000:00 (00:00)Vertex Games, S.C.Vertex Games, S.C.
1122 Dale Hardshovel HD Sep 22, 2015 $0.99N/A (N/A)20,000 .. 50,00000:00 (00:00)phime studio LLCphime studio LLC
1123 The Way of the Pixelated Fist Apr 27, 2015 $0.99N/A (N/A)0 .. 20,00000:00 (00:00)Blaze EpicBlaze Epic
1124 Playing History: Vikings Jul 1, 2015 $0.99N/A (N/A)20,000 .. 50,00000:00 (00:00)Serious Games InteractiveSerious Games Interactive
1125 Arkhelom 3D May 29, 2015 $3.99N/A (N/A)0 .. 20,00000:00 (00:00)DreamsSoftGamesDreamsSoftGames
1126 Big Journey to Home Aug 20, 2015 $2.99N/A (N/A)20,000 .. 50,00000:00 (00:00)The Light Sword TeamThe Light Sword Team
1127 Undead Shadows Feb 2, 2015 $3.99N/A (N/A)0 .. 20,00000:00 (00:00)Ignition Games Inc.Ignition Games Inc.
1128 Curse of the Assassin May 12, 2015 $4.99N/A (N/A)0 .. 20,00000:00 (00:00)Tin Man GamesTin Man Games
1129 Ludoku May 25, 2015 $4.99N/A (N/A)0 .. 20,00000:00 (00:00)Ludomo GamestudioLudomo Gamestudio
1130 Trigger Saint Oct 9, 2015 $6.99N/A (N/A)0 .. 20,00000:00 (00:00)Aaron ArcandUndergroundies
1131 Lightbender Dec 17, 2015 $2.99N/A (N/A)0 .. 20,00000:00 (00:00)Math Nerd Productions, LLCMath Nerd Productions, LLC
1132 ASDAD: All-Stars Dungeons and Diamonds Oct 1, 2015 $4.99N/A (N/A)0 .. 20,00000:00 (00:00)Giant Enemy LabsGiant Enemy Labs
1133 Metro Warp Aug 5, 2015 $4.99N/A (N/A)20,000 .. 50,00000:00 (00:00)Another YetiAnother Yeti
1134 Hoven the Sages Spinel Aug 31, 2015 $1.99N/A (N/A)20,000 .. 50,00000:00 (00:00)Bradley Elam, Colton BoneHoven Indies
1135 Mondrian - Abstraction in Beauty Sep 21, 2015 $4.99N/A (N/A)0 .. 20,00000:00 (00:00)Lantana GamesLantana Games
1136 TableTop Cricket Feb 25, 2015 $9.99N/A (N/A)0 .. 20,00000:00 (00:00)Big Ant StudiosBig Ant Studios
1137 Tisnart Tiles Aug 31, 2015 $0.99N/A (N/A)0 .. 20,00000:00 (00:00)TisnartTisnart
1138 Tenshu General Dec 1, 2015 $5.99N/A (N/A)0 .. 20,00000:00 (00:00)SmartArt Game StudioTenshu General
1139 But to Paint a Universe Jan 15, 2015 $4.99N/A (N/A)0 .. 20,00000:00 (00:00)Mårten JonssonJMJ Interactive
1140 DRIFT 84 Jul 14, 2015 $2.99N/A (N/A)0 .. 20,00000:00 (00:00)Reventador GamesReventador Games
1141 MadOut Ice Storm Sep 4, 2015 $6.99N/A (N/A)0 .. 20,00000:00 (00:00)Nuligine, MadOut GamesNuligine, MadOut Games
1142 MadOut Jun 6, 2015 $9.99N/A (N/A)0 .. 20,00000:00 (00:00)Nuligine, MadOut GamesNuligine, MadOut Games
1143 500 Years Act 1 Apr 15, 2015 $7.99N/A (N/A)0 .. 20,00000:00 (00:00)Poorwill GamesPoorwill Games
1144 Chunky Orbits Sep 8, 2015 $1.99N/A (N/A)0 .. 20,00000:00 (00:00)Don WhitakerBrain Blinks
1145 Getsuei Gakuen -kou- Nov 3, 2015 $24.99N/A (N/A)0 .. 20,00000:00 (00:00)Arc System WorksArc System Works
1146 High Strangeness May 6, 2015 $4.99N/A (N/A)0 .. 20,00000:00 (00:00)Barnyard Intelligence Games, Crystal LabsBarnyard Intelligence Games
1147 Unfair Jousting Fair Sep 3, 2015 $4.99N/A (N/A)0 .. 20,00000:00 (00:00)RodajaRodaja
1148 Weather Lord: The Successor's Path Apr 8, 2015 $4.99N/A (N/A)0 .. 20,00000:00 (00:00)Yustas Game Studio, Alawar EntertainmentBuka Entertainment
1149 The Journey Back Aug 12, 2015 $2.99N/A (N/A)0 .. 20,00000:00 (00:00)Erwin WolfMarWin Studios
1150 Geocore Jul 31, 2015 $2.99N/A (N/A)0 .. 20,00000:00 (00:00)Anarchy InteractiveAnarchy Interactive
1151 Shoot 'Em Up Kit Jun 5, 2015 $39.99N/A (N/A)0 .. 20,00000:00 (00:00)Tall StudiosTall Studios
1152 Nicolas Eymerich The Inquisitor Book II : The Village Jan 22, 2015 $9.99N/A (N/A)0 .. 20,00000:00 (00:00)TiconBluMicroids Indie
1153 Ninjahtic Mind Tricks Jul 16, 2015 $1.99N/A (N/A)0 .. 20,00000:00 (00:00)Blaze EpicBlaze Epic
1154 Undercover Missions: Operation Kursk K-141 Dec 11, 2015 $9.99N/A (N/A)0 .. 20,00000:00 (00:00)The Game SpeciesGrip Games
1155 Infect and Destroy Jan 29, 2015 $6.99N/A (N/A)0 .. 20,00000:00 (00:00)FarrugiaSoftFarrugiaSoft
1156 Spellcrafter May 4, 2015 $4.99N/A (N/A)0 .. 20,00000:00 (00:00)Jujubee S.A.Jujubee S.A.
1157 ABO MANDO Dec 31, 2015 $0.99N/A (N/A)50,000 .. 100,00000:00 (00:00)UNDEADAndrés Calva, Luis Calva
1158 One Final Breath Sep 28, 2015 $3.99N/A (N/A)0 .. 20,00000:00 (00:00)Dark Day InteractiveDark Day Interactive
1159 Fractured Soul Feb 5, 2015 $9.99N/A (N/A)0 .. 20,00000:00 (00:00)Endgame StudiosEndgame Studios
1160 Networm Oct 27, 2015 $1.99N/A (N/A)0 .. 20,00000:00 (00:00)Cuddly Zombie GamesCuddly Zombie Games
1161 Reverse x Reverse Dec 10, 2015 $9.99N/A (N/A)0 .. 20,00000:00 (00:00)desunoyaSekai Project
1162 Gulf of Aden - Task Force Somalia Dec 14, 2015 $8.99N/A (N/A)0 .. 20,00000:00 (00:00)BlewScreenBlewScreen
1163 Daemon Detective Gaiden Aug 14, 2015 $9.99N/A (N/A)0 .. 20,00000:00 (00:00)YalDegica
1164 Zeuxis : procedural texture generator Jun 2, 2015 $6.99N/A (N/A)0 .. 20,00000:00 (00:00)Martin VeilleuxMartin Veilleux
1165 ZombieZoid Zenith Sep 30, 2015 $5.99N/A (N/A)0 .. 20,00000:00 (00:00)Adhoc GamesAdhoc Games
1166 Aveyond 3-4: The Darkthrop Prophecy Feb 13, 2015 $9.99N/A (N/A)0 .. 20,00000:00 (00:00)Amaranth Games, LLCDegica
1167 Dungeon Highway Mar 23, 2015 $3.99N/A (N/A)0 .. 20,00000:00 (00:00)SubstantialSubstantial
1168 Throbax TD Nov 5, 2015 $2.99N/A (N/A)0 .. 20,00000:00 (00:00)Unterrainer Informatik OGUnterrainer Informatik OG
1169 Superstatic Sep 15, 2015 $4.99N/A (N/A)0 .. 20,00000:00 (00:00)Sleepy StudiosSleepy Studios
1170 Let There Be Life Feb 13, 2015 $5.99N/A (N/A)0 .. 20,00000:00 (00:00)Backward pieSBackward pieS
1171 Crossbow Warrior - The Legend of William Tell Dec 10, 2015 $4.99N/A (N/A)0 .. 20,00000:00 (00:00)MobyDick GamesScherrer Medien GmbH
1172 The Little Crane That Could Apr 27, 2015 $11.99N/A (N/A)0 .. 20,00000:00 (00:00)Game Studio Abraham Stolk Inc.Game Studio Abraham Stolk Inc.
1173 Ancestory Oct 13, 2015 $14.99N/A (N/A)0 .. 20,00000:00 (00:00)Kajak GamesKajak Games
1174 Lightrise Dec 21, 2015 $0.99N/A (N/A)0 .. 20,00000:00 (00:00)Bulkhead Studios CorporationBulkhead Studios Corporation
1175 NOBUNAGA'S AMBITION: Tenshouki WPK HD Version / 信長の野望・天翔記 with パワーアップキット HD Version Nov 11, 2015 $54.99N/A (N/A)20,000 .. 50,00000:00 (00:00)KOEI TECMO GAMES CO., LTD.KOEI TECMO GAMES CO., LTD.
1176 A Mass of Dead Jul 15, 2015 $4.99N/A (N/A)0 .. 20,00000:00 (00:00)Dev ArcDev Arc
1177 Forest Warrior Jun 25, 2015 $3.99N/A (N/A)0 .. 20,00000:00 (00:00)Inferno StudioPlug In Digital
1178 Age of Castles: Warlords May 15, 2015 $2.99N/A (N/A)0 .. 20,00000:00 (00:00)Anarchy EnterprisesAnarchy Enterprises
1179 The Clans - Saga of the Twins Apr 21, 2015 $9.99N/A (N/A)20,000 .. 50,00000:00 (00:00)Supreme Clans EntertainmentSupreme Clans Entertainment
1180 Sim Junta Aug 18, 2015 $1.99N/A (N/A)0 .. 20,00000:00 (00:00)Icehole GamesStrategy First
1181 A.I. Invasion Sep 30, 2015 $9.99N/A (N/A)0 .. 20,00000:00 (00:00)GameArt Studio GmbHGameArt Studio GmbH
1182 WE ARE DOOMED Apr 21, 2015 $9.99N/A (N/A)0 .. 20,00000:00 (00:00)Vertex PopVertex Pop
1183 Cloudrift Oct 30, 2015 $6.99N/A (N/A)0 .. 20,00000:00 (00:00)friendlyOctopusfriendlyOctopus
1184 Super Snow Fight Nov 24, 2015 $4.99N/A (N/A)0 .. 20,00000:00 (00:00)Patrick GodPatrick God
1185 Damn virgins Jul 31, 2015 $0.89N/A (N/A)0 .. 20,00000:00 (00:00)Luis RuizLuis Ruiz
1186 Xenocide Aug 28, 2015 $2.99N/A (N/A)0 .. 20,00000:00 (00:00)Confused GeniusSpawn Point OSK
1187 Kaiju Panic Oct 9, 2015 $9.99N/A (N/A)0 .. 20,00000:00 (00:00)Mechabit LtdMechabit Ltd
1188 The Viceroy Jul 28, 2015 $19.99N/A (N/A)0 .. 20,00000:00 (00:00)Goatee GamesGoatee Games
1189 Sherlock Holmes Consulting Detective: The Case of the Mystified Murderess Jun 8, 2015 $2.99N/A (N/A)20,000 .. 50,00000:00 (00:00)ZojoiZojoi
1190 Unfinished - An Artist's Lament Aug 4, 2015 $4.99N/A (N/A)20,000 .. 50,00000:00 (00:00)Dust Scratch GamesDust Scratch Games
1191 ORBITOR Aug 21, 2015 $14.99N/A (N/A)0 .. 20,00000:00 (00:00)Evil AliensEvil Aliens
1192 Vicky Saves the Big Dumb World Oct 1, 2015 $0.99N/A (N/A)20,000 .. 50,00000:00 (00:00)DumbfoundedDumbfounded
1193 Sunken Dec 3, 2015 $6.99N/A (N/A)0 .. 20,00000:00 (00:00)Hit the CrowJenito
1194 Veteran Combat Feb 16, 2015 $1.99N/A (N/A)0 .. 20,00000:00 (00:00)CyberphobXCyberphobX
1195 Mars Colony: Frontier Sep 25, 2015 $4.99N/A (N/A)0 .. 20,00000:00 (00:00)HyperKat GamesHyperKat Games
1196 Just Alone Jul 28, 2015 $12.99N/A (N/A)0 .. 20,00000:00 (00:00)EvergreenEvergreen
1197 Legends of Dawn Reborn Oct 20, 2015 $29.99N/A (N/A)20,000 .. 50,00000:00 (00:00)DreamatrixDreamatrix
1198 The Asskickers-Steam Edition Feb 6, 2015 $9.99N/A (N/A)0 .. 20,00000:00 (00:00)AGO GamesAGO Games
1199 SHOFER Race Driver Jun 30, 2015 $8.99N/A (N/A)0 .. 20,00000:00 (00:00)Zhoori Maang EntertainmentZhoori Maang Entertainment
1200 Rainbow Hero Feb 27, 2015 $4.99N/A (N/A)0 .. 20,00000:00 (00:00)Pixel ElephantBigger Boat
1201 Color Guardians May 12, 2015 $14.99N/A (N/A)0 .. 20,00000:00 (00:00)Fair Play LabsNiffler Ltd.
1202 Deathless: The City's Thirst Oct 23, 2015 $3.99N/A (N/A)0 .. 20,00000:00 (00:00)Choice of GamesChoice of Games
1203 Where Angels Cry: Tears of the Fallen (Collector's Edition) Nov 9, 2015 $9.99N/A (N/A)0 .. 20,00000:00 (00:00)Cateia GamesLibredia Entertainment
1204 Gran Vitreous May 20, 2015 $4.99N/A (N/A)0 .. 20,00000:00 (00:00)Heliocentric StudiosHeliocentric Studios
1205 Caverns of the Snow Witch (Standalone) Aug 3, 2015 $4.99N/A (N/A)0 .. 20,00000:00 (00:00)Tin Man GamesTin Man Games
1206 Capsule Force Aug 25, 2015 $4.99N/A (N/A)0 .. 20,00000:00 (00:00)klobit LLCIron Galaxy
1207 Musclecar Online Feb 12, 2015 $5.99N/A (N/A)0 .. 20,00000:00 (00:00)Psychic SoftwarePsychic Software
1208 Soul Locus Apr 30, 2015 $9.99N/A (N/A)0 .. 20,00000:00 (00:00)Fat Loot GamesFat Loot Games
1209 Sentris Aug 12, 2015 $14.99N/A (N/A)0 .. 20,00000:00 (00:00)Timbre InteractiveTimbre Interactive
1210 Save Halloween: City of Witches Oct 20, 2015 $4.99N/A (N/A)20,000 .. 50,00000:00 (00:00)Quick Click GamesCalenture Remedy Ltd
1211 Not without my donuts Apr 28, 2015 $1.99N/A (N/A)0 .. 20,00000:00 (00:00)Ben Aprigliano, Stefan EversEvilized productions, Different donut
1212 Knight Adventure Oct 15, 2015 $0.99N/A (N/A)20,000 .. 50,00000:00 (00:00)SyberstudioSyberstudio
1213 Outpost 13 Oct 26, 2015 $0.99N/A (N/A)0 .. 20,00000:00 (00:00)Cantina Games and Entertainment, Inc.Cantina Games and Entertainment, Inc.
1214 Second Warfare Jun 22, 2015 $14.99N/A (N/A)0 .. 20,00000:00 (00:00)Kobra StudioKobra Studio
1215 ENIGMA : An Illusion Named Family Mar 16, 2015 $4.99N/A (N/A)0 .. 20,00000:00 (00:00)AV media labAV media lab
1216 Nubs' Adventure Oct 12, 2015 $6.99N/A (N/A)0 .. 20,00000:00 (00:00)IMakeGamesIMakeGames
1217 Roads of Rome 3 Oct 19, 2015 $3.99N/A (N/A)0 .. 20,00000:00 (00:00)WhiterraQumaron
1218 APT Aug 27, 2015 $14.99N/A (N/A)0 .. 20,00000:00 (00:00)RIP Studios LLCRIP Studios LLC
1219 Heroes of Legionwood Jul 24, 2015 $6.99N/A (N/A)0 .. 20,00000:00 (00:00)Dark Gaia StudiosDegica
1220 Stone Tales Dec 11, 2015 $0.99N/A (N/A)0 .. 20,00000:00 (00:00)Yellow Worm StudiosKISS ltd
1221 Faron's Fate Aug 14, 2015 $0.99N/A (N/A)0 .. 20,00000:00 (00:00)Winter Drake TellerWinter Drake Teller
1222 XenoBloom Sep 23, 2015 $4.99N/A (N/A)0 .. 20,00000:00 (00:00)IBOLOGY LLCIBOLOGY LLC
1223 Illuminascii Aug 11, 2015 $10.99N/A (N/A)0 .. 20,00000:00 (00:00)DDD WaresDDD Wares
1224 Zombie Killtime Aug 4, 2015 $1.99N/A (N/A)0 .. 20,00000:00 (00:00)Nicholas MalloryNicholas Mallory
1225 Blowy Fish Sep 25, 2015 $1.99N/A (N/A)20,000 .. 50,00000:00 (00:00)One Man Band GamesOne Man Band Games
1226 The Archetype Sep 18, 2015 $4.99N/A (N/A)0 .. 20,00000:00 (00:00)Rafael Barreto, MacKenzie KaserThe Mundi Project Game Studios
1227 D Series OFF ROAD Driving Simulation May 19, 2015 $7.99N/A (N/A)0 .. 20,00000:00 (00:00)devotiddevotid Media
1228 Pirate's Life Apr 17, 2015 $4.99N/A (N/A)0 .. 20,00000:00 (00:00)Team EyepatchNone
1229 Princess Kaguya: Legend of the Moon Warrior Aug 4, 2015 $10.99N/A (N/A)0 .. 20,00000:00 (00:00)Zoo CorporationZoo Corporation
1230 Professional Lumberjack 2015 Mar 5, 2015 $19.99N/A (N/A)20,000 .. 50,00000:00 (00:00)PlayWay S.A.BANDAI NAMCO Entertainment, United Independent Entertainment GmbH
1231 CortexGear: AngryDroids Sep 6, 2015 $5.99N/A (N/A)50,000 .. 100,00000:00 (00:00)JH12world, Jordan BenoitJH12world
1232 Polychromatic Oct 2, 2015 $2.99N/A (N/A)0 .. 20,00000:00 (00:00)Brushfire GamesBrushfire Games
1233 Volvox Dec 7, 2015 $9.99N/A (N/A)0 .. 20,00000:00 (00:00)NeoteniaNeotenia
1234 Trigonarium Aug 31, 2015 $2.99N/A (N/A)0 .. 20,00000:00 (00:00)Kimmo LahtinenKimmo Factor Oy
1235 Bit Shifter Nov 2, 2015 $14.99N/A (N/A)0 .. 20,00000:00 (00:00)Plastic GamesPlastic Games
1236 Viking Saga: New World Nov 5, 2015 $3.99N/A (N/A)0 .. 20,00000:00 (00:00)RealoreQumaron
1237 Color Assembler Jun 3, 2015 $7.99N/A (N/A)0 .. 20,00000:00 (00:00)Purple NebulaPurple Nebula
1238 Robinson Crusoe and the Cursed Pirates Feb 10, 2015 $9.99N/A (N/A)20,000 .. 50,00000:00 (00:00)MagicIndieMumboJumbo
1239 DSY: Don't Shoot Yourself Apr 10, 2015 $4.99N/A (N/A)0 .. 20,00000:00 (00:00)Silverware Games, Inc.Silverware Games, Inc.
1240 XLarn May 25, 2015 $4.99N/A (N/A)0 .. 20,00000:00 (00:00)Swinfjord-GamesSwinfjord-Games
1241 My Paper Boat Sep 23, 2015 $4.99N/A (N/A)0 .. 20,00000:00 (00:00)TML-StudiosAerosoft GmbH
1242 Castles Oct 9, 2015 $0.99N/A (N/A)0 .. 20,00000:00 (00:00)WhootgamesBadLand Publishing
1243 Skyflower Jun 25, 2015 $2.99N/A (N/A)0 .. 20,00000:00 (00:00)The Taco HeavenKOEI TECMO GAMES CO., LTD.
1244 Seeders Aug 21, 2015 $4.99N/A (N/A)0 .. 20,00000:00 (00:00)BigosaurBigosaur
1245 Match 3 Revolution Sep 11, 2015 $3.99N/A (N/A)20,000 .. 50,00000:00 (00:00)DreamsSoftGamesDreamsSoftGames
1246 Giana Sisters: Dream Runners Aug 26, 2015 $9.99N/A (N/A)0 .. 20,00000:00 (00:00)Black Forest GamesEuroVideo Medien
1247 Freedom Cry Sep 4, 2015 $6.99N/A (N/A)0 .. 20,00000:00 (00:00)Warfare StudiosWarfare Studios
1248 Hatch and Slay Dec 22, 2015 $1.99N/A (N/A)20,000 .. 50,00000:00 (00:00)Myrolit StudiosMyrolit Studios
1249 Pilot Brothers 3: Back Side of the Earth Jan 22, 2015 $4.99N/A (N/A)20,000 .. 50,00000:00 (00:00)1C Wireless1C Entertainment
1250 President for a Day - Corruption Aug 5, 2015 $0.99N/A (N/A)0 .. 20,00000:00 (00:00)Serious Games InteractiveSerious Games Interactive
1251 Battle For The Sun Jul 22, 2015 $4.99N/A (N/A)20,000 .. 50,00000:00 (00:00)Appsolutely StudiosAppsolutely Studios
1252 Corona MotorSport Mar 13, 2015 $9.99N/A (N/A)0 .. 20,00000:00 (00:00)LucasGameLucasGame
1253 March of Industry: Very Capitalist Factory Simulator Entertainments Oct 7, 2015 $9.99N/A (N/A)0 .. 20,00000:00 (00:00)Archive EntertainmentArchive Entertainment
1254 Legends of Pixelia Jun 17, 2015 $1.74N/A (N/A)0 .. 20,00000:00 (00:00)SimaGamesSimaGames
1255 Way to Go! Jun 8, 2015 $4.99N/A (N/A)0 .. 20,00000:00 (00:00)Makivision GamesMakivision Games
1256 TorqueL Jan 22, 2015 $4.99N/A (N/A)0 .. 20,00000:00 (00:00)Nanmo (Takayuki Yanagihara) @ FullPowerSideAttack.com, sanodg (Nobuyoshi Sano), FullPowerSideAttack.comPLAYISM
1257 Megatect Nov 4, 2015 $7.99N/A (N/A)0 .. 20,00000:00 (00:00)Timedrop StudiosTimedrop Studios
1258 Inside Me Sep 29, 2015 FreeN/A (N/A)0 .. 20,00000:00 (00:00)SnowBiteGamesSnowBiteGames
1259 Devouring Stars Jul 3, 2015 $9.99N/A (N/A)0 .. 20,00000:00 (00:00)NerialBulkyPix
1260 Lord of the Dark Castle Apr 20, 2015 $0.99N/A (N/A)200,000 .. 500,00000:00 (00:00)Craze Creative StudiosTrinity Project
1261 JUMP Jul 30, 2015 $9.99N/A (N/A)0 .. 20,00000:00 (00:00)Endeavor One Inc.Endeavor One Inc.
1262 Midnight's Blessing May 25, 2015 $9.99N/A (N/A)20,000 .. 50,00000:00 (00:00)Warfare StudiosWarfare Studios
1263 Break_In Apr 29, 2015 $9.99N/A (N/A)0 .. 20,00000:00 (00:00)Craig GibbsCraig Gibbs
1264 GeoVox May 22, 2015 $24.99N/A (N/A)0 .. 20,00000:00 (00:00)Axis Game Factory, Inc.Axis Game Factory, Inc.
1265 B.A.D Battle Armor Division Aug 18, 2015 $5.99N/A (N/A)0 .. 20,00000:00 (00:00)Crian SoftCrian Soft
1266 Sky Battles Mar 25, 2015 $3.99N/A (N/A)20,000 .. 50,00000:00 (00:00)Peter LacalamitaVolens Nolens Games
1267 ZombieRun Jun 3, 2015 $2.99N/A (N/A)0 .. 20,00000:00 (00:00)Guerrilla BanditGuerrilla Bandit
1268 After Reset RPG Mar 9, 2015 N/AN/A (N/A)0 .. 20,00000:00 (00:00)Black Cloud StudiosBlack Cloud Studios
1269 Age of Survival Aug 25, 2015 $18.99N/A (N/A)0 .. 20,00000:00 (00:00)SeattletekSeattletek
1270 Machineers - Episode 1: Tivoli Town May 14, 2015 $4.99N/A (N/A)0 .. 20,00000:00 (00:00)Lohika GamesLohika Games
1271 Khaba Jan 12, 2015 $3.99N/A (N/A)0 .. 20,00000:00 (00:00)Hello There ABHello There AB
1272 N2O: Nitrous Oxide Jun 29, 2015 $4.99N/A (N/A)0 .. 20,00000:00 (00:00)UrbanscanConsole Classics
1273 Shu's Garden Aug 11, 2015 $4.99N/A (N/A)0 .. 20,00000:00 (00:00)Colin Sanders, Jason RT BondJason RT Bond
1274 Island Tribe Oct 19, 2015 $2.99N/A (N/A)0 .. 20,00000:00 (00:00)RealoreQumaron
1275 Deadlands Noir - That Old Time Religion Jul 3, 2015 $0.99N/A (N/A)0 .. 20,00000:00 (00:00)SmiteWorks USA, LLCSmiteWorks USA, LLC
1276 Dr.Green Jan 2, 2015 $2.99N/A (N/A)0 .. 20,00000:00 (00:00)Johan AronssonJohan Aronsson
1277 Supreme League of Patriots - Episode 3: Ice Cold in Ellis Jan 29, 2015 $5.99N/A (N/A)20,000 .. 50,00000:00 (00:00)No Bull IntentionsPhoenix Online Publishing
1278 Deadly Sin Mar 27, 2015 $4.99N/A (N/A)20,000 .. 50,00000:00 (00:00)Dancing Dragon GamesDegica
1279 President for a Day - Floodings Aug 12, 2015 $0.99N/A (N/A)20,000 .. 50,00000:00 (00:00)Serious Games InteractiveSerious Games Interactive
1280 Puzzle Ball Oct 1, 2015 $2.99N/A (N/A)20,000 .. 50,00000:00 (00:00)Почежерцев Влад, Кашковский Антон, Бурков НикитаArt-Pulsar
1281 3D MiniGolf May 29, 2015 $4.99N/A (N/A)0 .. 20,00000:00 (00:00)Z-Software GmbHfamilyplay
1282 Dark Years Oct 16, 2015 $14.99N/A (N/A)20,000 .. 50,00000:00 (00:00)RSK EntertainmentKPL
1283 Hack Run ZERO Jul 13, 2015 $2.99N/A (N/A)0 .. 20,00000:00 (00:00)i273 LLCi273 LLC
1284 Dwarven Brawl Bros Jun 25, 2015 $4.99N/A (N/A)0 .. 20,00000:00 (00:00)Dwarves Might FlyDwarves Might Fly
1285 Starsphere Oct 26, 2015 $3.99N/A (N/A)0 .. 20,00000:00 (00:00)Julia GamesJulia Games
1286 Autumn Park Mini Golf Apr 2, 2015 $1.99N/A (N/A)0 .. 20,00000:00 (00:00)Serious TangentsSerious Tangents
1287 The World Named Fred Feb 27, 2015 $3.99N/A (N/A)0 .. 20,00000:00 (00:00)Here Be DragonzHere Be Dragonz
1288 Super Sky Arena Oct 5, 2015 $14.99N/A (N/A)0 .. 20,00000:00 (00:00)Hammer LabsHammer Labs, Deck13
1289 Alarameth TD Jun 23, 2015 N/AN/A (N/A)0 .. 20,00000:00 (00:00)Matt GadientMatt Gadient
1290 Centauri Sector Jun 24, 2015 $4.99N/A (N/A)20,000 .. 50,00000:00 (00:00)LW GamesLW Games
1291 Drew and the Floating Labyrinth Feb 4, 2015 $4.99N/A (N/A)0 .. 20,00000:00 (00:00)Dust Scratch GamesDust Scratch Games
1292 Goodnight Butcher Dec 18, 2015 $1.99N/A (N/A)0 .. 20,00000:00 (00:00)Perfect Square StudiosPerfect Square Studios
1293 Cyberpunk 3776 Mar 24, 2015 $4.99N/A (N/A)0 .. 20,00000:00 (00:00)Peter HannPeter Hann
1294 A.R.M. PLANETARY PROSPECTORS EP1 Asteroid Resource Mining Oct 1, 2015 $9.99N/A (N/A)0 .. 20,00000:00 (00:00)Nefarious Dimensions Interactive Games, NDiGNefarious Dimensions Inc.
1295 Astro Emporia Feb 2, 2015 $0.99N/A (N/A)50,000 .. 100,00000:00 (00:00)Squirrelbot GamesSquirrelbot Games
1296 Hypership Out of Control Sep 29, 2015 $1.99N/A (N/A)0 .. 20,00000:00 (00:00)Fun Infused GamesFun Infused Games
1297 The Tiny Tale 2 Jan 30, 2015 $6.99N/A (N/A)0 .. 20,00000:00 (00:00)Running PillowRunning Pillow
1298 Turnover Dec 15, 2015 $1.99N/A (N/A)0 .. 20,00000:00 (00:00)Long Division LLCLong Division LLC
1299 Respawn Man Dec 21, 2015 $2.99N/A (N/A)0 .. 20,00000:00 (00:00)Evan (Solidplasma) PeiperlSolidplasma Studios LLC
1300 Super Slam Dunk Touchdown Dec 16, 2015 $15N/A (N/A)0 .. 20,00000:00 (00:00)Tipping Goat LLCTipping Goat LLC
1301 City Quest Aug 20, 2015 $1.99N/A (N/A)0 .. 20,00000:00 (00:00)Stone Monkey StudiosStone Monkey Studios
1302 CMYW Oct 16, 2015 $3.99N/A (N/A)20,000 .. 50,00000:00 (00:00)Shane BerezowskiZen Labs
1303 ASA: A Space Adventure - Remastered Edition Mar 4, 2015 $9.99N/A (N/A)20,000 .. 50,00000:00 (00:00)Simon Says: Play!Simon Says: Play!
1304 Gare Sapphire Mechs Apr 1, 2015 $4.99N/A (N/A)0 .. 20,00000:00 (00:00)Prexen StudiosPrexen Studios
1305 Thirty Years' War Sep 3, 2015 $29.99N/A (N/A)0 .. 20,00000:00 (00:00)Ageod, HQSlitherine Ltd.
1306 VolChaos Dec 8, 2015 $2.99N/A (N/A)50,000 .. 100,00000:00 (00:00)Fun Infused GamesFun Infused Games
1307 Inevitability Aug 24, 2015 $4.99N/A (N/A)0 .. 20,00000:00 (00:00)SFS StudiosSFS Studios
1308 Sister’s Secrecy: Arcanum Bloodlines - Premium Edition May 28, 2015 $6.99N/A (N/A)20,000 .. 50,00000:00 (00:00)Space Monkey International1C Company
1309 Hacker's Beat Sep 15, 2015 $9.99N/A (N/A)20,000 .. 50,00000:00 (00:00)TEAM TANDS PLUSPLAYISM
1310 The Book of Desires Dec 18, 2015 $6.99N/A (N/A)20,000 .. 50,00000:00 (00:00)Meridian'931C Entertainment
1311 Alexia Crow and the Cave of Heroes May 4, 2015 $5.99N/A (N/A)0 .. 20,00000:00 (00:00)QuesttracersQuesttracers
1312 CO-OP : Decrypted Apr 6, 2015 $9.99N/A (N/A)20,000 .. 50,00000:00 (00:00)Pixelz GamesPixelz Games
1313 Undeadz! Sep 25, 2015 $0.99N/A (N/A)0 .. 20,00000:00 (00:00)Miguel LlerasMiguel Lleras
1314 Kitchen Simulator 2015 Sep 4, 2015 $0.99N/A (N/A)20,000 .. 50,00000:00 (00:00)WhackAKey GamesBig Black Bear
1315 Project Druid - 2D Labyrinth Explorer- Jul 30, 2015 $0.99N/A (N/A)20,000 .. 50,00000:00 (00:00)Cemil TasdemirBack To Basics Gaming
1316 Space - The Return Of The Pixxelfrazzer Nov 2, 2015 $2.99N/A (N/A)0 .. 20,00000:00 (00:00)SørbSørb
1317 Sixth Grade Detective Dec 21, 2015 $3.99N/A (N/A)0 .. 20,00000:00 (00:00)Choice of GamesChoice of Games
1318 ルナティックドーン 前途への道標 Jan 8, 2015 $15.99N/A (N/A)0 .. 20,00000:00 (00:00)ARTDINKDegica
1319 quadrant May 1, 2015 $3.99N/A (N/A)0 .. 20,00000:00 (00:00)undefundef
1320 Samsa and the Knights of Light Dec 2, 2015 $4.99N/A (N/A)20,000 .. 50,00000:00 (00:00)Atixx, ClorithStudioClorithStudio
1321 Game Type Sep 23, 2015 $2.99N/A (N/A)20,000 .. 50,00000:00 (00:00)Mommy's Best GamesMommy's Best Games
1322 Zombie Camp: Last Survivor Apr 17, 2015 $1.99N/A (N/A)0 .. 20,00000:00 (00:00)LunagamesLibredia
1323 The Princess' Heart Jul 30, 2015 $4.99N/A (N/A)0 .. 20,00000:00 (00:00)RosePortal GamesDegica
1324 Card Dungeon Jun 2, 2015 $5.99N/A (N/A)0 .. 20,00000:00 (00:00)Playtap GamesPlaytap Games
1325 Fated Souls Jul 30, 2015 $9.99N/A (N/A)0 .. 20,00000:00 (00:00)Warfare StudiosAldorlea Games
1326 Front Wars Aug 17, 2015 $6.99N/A (N/A)0 .. 20,00000:00 (00:00)Homemade GamesHomemade Games
1327 Abduction Action! Plus Sep 1, 2015 $1.99N/A (N/A)0 .. 20,00000:00 (00:00)Fun Infused GamesFun Infused Games
1328 MAGIX Music Maker Hip Hop 6 Steam Edition Mar 30, 2015 $39.99N/A (N/A)0 .. 20,00000:00 (00:00)MAGIX Software GmbHMAGIX Software GmbH
1329 The Emptiness Deluxe Edition Apr 17, 2015 $9.99N/A (N/A)0 .. 20,00000:00 (00:00)Hooligans EntertainmentViva Media
1330 DungeonRift Jul 1, 2015 $9.99N/A (N/A)0 .. 20,00000:00 (00:00)RiftyGamesRiftyGames
1331 Mayhem Triple Sep 4, 2015 $4.99N/A (N/A)0 .. 20,00000:00 (00:00)Dustin GunnDustin Gunn
1332 RePete Nov 1, 2015 $1.99N/A (N/A)0 .. 20,00000:00 (00:00)Luke GodfreyLuke Godfrey
1333 Supreme League of Patriots - Episode 2: Patriot Frames Jan 29, 2015 $5.99N/A (N/A)0 .. 20,00000:00 (00:00)No Bull IntentionsPhoenix Online Publishing
1334 TREBUCHET Jul 30, 2015 $5.99N/A (N/A)0 .. 20,00000:00 (00:00)iconical Ltd.iconical Ltd.
1335 Exile's End Aug 31, 2015 $9.99N/A (N/A)0 .. 20,00000:00 (00:00)Magnetic RealmsMarvelous
1336 Alice's Mom's Rescue Sep 3, 2015 $5.99N/A (N/A)0 .. 20,00000:00 (00:00)OrionSoftOrionSoft
1337 Save Your Mother Dec 3, 2015 $2.99N/A (N/A)20,000 .. 50,00000:00 (00:00)Tuomo LaineTuomo's games
1338 Herding Dog Dec 25, 2015 $0.99N/A (N/A)0 .. 20,00000:00 (00:00)xixgamesxixgames
1339 The Race for the White House Jan 2, 2015 $14.99N/A (N/A)0 .. 20,00000:00 (00:00)EversimEversim
1340 Hyperspace Pinball Sep 30, 2015 $2.99N/A (N/A)20,000 .. 50,00000:00 (00:00)Gamieon, Inc.Gamieon, Inc.
1341 Avaris 2: The Return of the Empress Dec 15, 2015 $7.99N/A (N/A)0 .. 20,00000:00 (00:00)StudioGIWZoo Corporation
1342 Cave Coaster Jun 4, 2015 $4.99N/A (N/A)0 .. 20,00000:00 (00:00)SmyowlStrategy First
1343 A Sirius Game Aug 21, 2015 $4.99N/A (N/A)0 .. 20,00000:00 (00:00)Overcloud9, Phantasm GamesAldorlea Games
1344 Wrestling Spirit 3 Dec 9, 2015 $19.99N/A (N/A)0 .. 20,00000:00 (00:00)Grey Dog SoftwareViva Media
1345 Weather Lord: Following the Princess Collector's Edition Nov 4, 2015 $9.99N/A (N/A)0 .. 20,00000:00 (00:00)Yustas Game StudioAlawar Entertainment
1346 DP Animation Maker Feb 16, 2015 $69.99N/A (N/A)0 .. 20,00000:00 (00:00)DesktopPaints LLCDesktopPaints LLC
1347 Teddy Terror May 21, 2015 $4.99N/A (N/A)0 .. 20,00000:00 (00:00)Rage Monster GamesRage Monster Games
1348 Hypt Apr 23, 2015 $4.99N/A (N/A)20,000 .. 50,00000:00 (00:00)EmpI StudiosCowardly Creations
1349 Ironclads 2: American Civil War Nov 5, 2015 $9.99N/A (N/A)0 .. 20,00000:00 (00:00)Totem GamesStrategy First
1350 The Travels of Marco Polo May 6, 2015 $6.99N/A (N/A)0 .. 20,00000:00 (00:00)Totem StudioPlug In Digital
1351 Entropy Rising Nov 20, 2015 $0.99N/A (N/A)20,000 .. 50,00000:00 (00:00)Autotivity EntertainmentAutotivity Entertainment
1352 Pillar May 29, 2015 $7.99N/A (N/A)20,000 .. 50,00000:00 (00:00)MichaelArtsMichaelArts
1353 Cults and Daggers Feb 12, 2015 $29.99N/A (N/A)0 .. 20,00000:00 (00:00)ChaphatChaphat
1354 Starlaxis Supernova Edition Feb 11, 2015 $8.99N/A (N/A)0 .. 20,00000:00 (00:00)Spiderwork GamesSpiderwork Games
1355 Streamline Aug 21, 2015 $2.99N/A (N/A)20,000 .. 50,00000:00 (00:00)Frostcloud StudiosFrostcloud Studios
1356 Breakout Invaders Apr 24, 2015 $3.99N/A (N/A)20,000 .. 50,00000:00 (00:00)DreamsSoftGamesDreamsSoftGames
1357 Cylne Mar 5, 2015 $8.99N/A (N/A)0 .. 20,00000:00 (00:00)CylneCylne
1358 Barren Roads Jun 1, 2015 $8.99N/A (N/A)0 .. 20,00000:00 (00:00)ForcequitapplicatonsForcequitapplicatons
1359 Adelantado Trilogy. Book one Dec 1, 2015 $4.99N/A (N/A)0 .. 20,00000:00 (00:00)WhiterraQumaron
1360 Welcome to Boon Hill Oct 31, 2015 $7.99N/A (N/A)0 .. 20,00000:00 (00:00)Matthew Ritter14 Hours Productions
1361 Prismatica Jul 1, 2015 $4.99N/A (N/A)0 .. 20,00000:00 (00:00)Loomus GamesLoomus Games
1362 Nature's Zombie Apocalypse Jul 23, 2015 $12.99N/A (N/A)0 .. 20,00000:00 (00:00)AniodeAniode
1363 The Fool Mar 9, 2015 $9.99N/A (N/A)20,000 .. 50,00000:00 (00:00)MagicIndieMumboJumbo
1364 Cash_Out May 27, 2015 $4.99N/A (N/A)0 .. 20,00000:00 (00:00)UntouchUntouch
1365 Baseball Mogul Diamond Apr 3, 2015 $11.99N/A (N/A)0 .. 20,00000:00 (00:00)Sports Mogul, Inc.Sports Mogul, Inc.
1366 Wimp: Who Stole My Pants? Jun 5, 2015 $3.99N/A (N/A)0 .. 20,00000:00 (00:00)FlexileStudioFlexileStudio
1367 Valiant: Resurrection May 8, 2015 $9.99N/A (N/A)0 .. 20,00000:00 (00:00)Warfare StudiosAldorlea Games
1368 Spectra Jul 10, 2015 $7.49N/A (N/A)0 .. 20,00000:00 (00:00)Gateway InteractiveMastertronic
1369 Cannibal Oct 28, 2015 $13.99N/A (N/A)0 .. 20,00000:00 (00:00)Gametek BrasilGametek Brasil
1370 Spandex Force: Champion Rising Jun 24, 2015 $3.99N/A (N/A)20,000 .. 50,00000:00 (00:00)KarjaSoftVolens Nolens Games
1371 Castle Chaos Dec 8, 2015 $2.99N/A (N/A)0 .. 20,00000:00 (00:00)Odd Comet GamesOdd Comet Games
1372 One Hundred Ways Oct 23, 2015 $9.99N/A (N/A)0 .. 20,00000:00 (00:00)Sunlight GamesSunlight Games
1373 Overruled! Sep 15, 2015 $12.99N/A (N/A)20,000 .. 50,00000:00 (00:00)Dlala StudiosTeam17 Digital Ltd
1374 Heavy Fire: Shattered Spear Oct 23, 2015 $3.99N/A (N/A)0 .. 20,00000:00 (00:00)TeyonMastiff
1375 Blood of Magic Dec 18, 2015 $9.99N/A (N/A)20,000 .. 50,00000:00 (00:00)Stoneworks GamesStoneworks Games
1376 Roads of Rome 2 Oct 16, 2015 $3.99N/A (N/A)0 .. 20,00000:00 (00:00)WhiterraQumaron
1377 Monsterland Dec 14, 2015 $1.99N/A (N/A)0 .. 20,00000:00 (00:00)Second Variety GamesSecond Variety Games
1378 Serafina's Crown May 26, 2015 $7.99N/A (N/A)20,000 .. 50,00000:00 (00:00)Woodsy StudioThesis Games
1379 Black Home Aug 7, 2015 $9.99N/A (N/A)0 .. 20,00000:00 (00:00)Warfare StudiosAldorlea Games
1380 Rugby League Team Manager 2015 Jun 19, 2015 $19.99N/A (N/A)0 .. 20,00000:00 (00:00)Alternative Software LtdAlternative Software Ltd
1381 Cluck Yegger in Escape From The Planet of The Poultroid Nov 9, 2015 $2.99N/A (N/A)0 .. 20,00000:00 (00:00)Guys From Andromeda LLCGuys From Andromeda LLC
1382 Lost Labyrinth Extended Version Nov 24, 2015 $4.99N/A (N/A)0 .. 20,00000:00 (00:00)Markus DöbeleFlying Interactive
1383 Shadowgate: MacVenture Series Jan 26, 2015 $2.99N/A (N/A)50,000 .. 100,00000:00 (00:00)ZojoiZojoi
1384 The Land Of Lamia Nov 23, 2015 $0.99N/A (N/A)20,000 .. 50,00000:00 (00:00)Eddy GamesEddy Games
1385 Predator Simulator May 11, 2015 $7.99N/A (N/A)0 .. 20,00000:00 (00:00)Imran ArafatReality Gameware
1386 Starchaser: Priestess of the Night Sky Jul 24, 2015 $9.99N/A (N/A)0 .. 20,00000:00 (00:00)NonlinearPLAYISM
1387 Terraform May 8, 2015 $2.99N/A (N/A)0 .. 20,00000:00 (00:00)Holgersson EntertainmentHolgersson Entertainment
1388 Dandy: Or a Brief Glimpse Into the Life of the Candy Alchemist Aug 4, 2015 $9.99N/A (N/A)0 .. 20,00000:00 (00:00)wefiends, Inc.wefiends, Inc.
1389 Soccertron Mar 12, 2015 $1.99N/A (N/A)0 .. 20,00000:00 (00:00)David ErosaErosa Games
1390 Fermi's Path Apr 20, 2015 $8.99N/A (N/A)0 .. 20,00000:00 (00:00)GameArt Studio GmbHGameArt Studio GmbH
1391 CopperCube 5 Game Engine May 1, 2015 $19.99N/A (N/A)0 .. 20,00000:00 (00:00)Ambiera e.U.Ambiera e.U.
1392 R.O.O.T.S Sep 6, 2015 $1.99N/A (N/A)20,000 .. 50,00000:00 (00:00)reMaginariumreMaginarium
1393 Bomb The Monsters! Nov 6, 2015 $0.99N/A (N/A)20,000 .. 50,00000:00 (00:00)Finalboss game studioTrinity Project
1394 Space Station Alpha Feb 27, 2015 $5.99N/A (N/A)20,000 .. 50,00000:00 (00:00)NuclearFirecrackerNuclearFirecracker
1395 Nusantara: Legend of The Winged Ones Dec 13, 2015 $4.99N/A (N/A)0 .. 20,00000:00 (00:00)SweetChielSweetChiel
1396 Dragon Fantasy: The Volumes of Westeria Apr 9, 2015 $9.99N/A (N/A)0 .. 20,00000:00 (00:00)MutekiChoice Provisions
1397 The Indie Mixtape Apr 23, 2015 $9.99N/A (N/A)0 .. 20,00000:00 (00:00)Daniel Linssen, Detective, Ditto, Glitchnap, Shark Jump StudiosCDP
1398 WonderCat Adventures Sep 11, 2015 $2.99N/A (N/A)20,000 .. 50,00000:00 (00:00)Obscure CloudObscure Cloud
1399 Sherlock Holmes Consulting Detective: The Case of the Mummy's Curse Jun 8, 2015 $2.99N/A (N/A)20,000 .. 50,00000:00 (00:00)ZojoiZojoi
1400 Lootfest Mar 14, 2015 $1.99N/A (N/A)0 .. 20,00000:00 (00:00)vikingfabian.comvikingfabian.com
1401 Eternal Step Oct 16, 2015 $9.99N/A (N/A)0 .. 20,00000:00 (00:00)Once More With GustoGreen Man Gaming Publishing
1402 Deserter Simulator Jul 30, 2015 $9.99N/A (N/A)0 .. 20,00000:00 (00:00)Pocket QueriesZoo Corporation
1403 An Imp? A Fiend! Mar 16, 2015 $0.99N/A (N/A)20,000 .. 50,00000:00 (00:00)Blaze EpicBlaze Epic
1404 Hydraulic Empire Jul 31, 2015 $7.99N/A (N/A)0 .. 20,00000:00 (00:00)Batholith EntertainmentBatholith Entertainment
1405 Street Arena Jul 10, 2015 $6.99N/A (N/A)20,000 .. 50,00000:00 (00:00)Blossom GamesGlob Games Studio
1406 Galactic Inheritors Jun 9, 2015 $19.99N/A (N/A)100,000 .. 200,00000:00 (00:00)Crispon GamesPlug In Digital, Argonauts Interactive
1407 Arson and Plunder: Unleashed Sep 25, 2015 $0.99N/A (N/A)20,000 .. 50,00000:00 (00:00)Chainsaw SyndicateHeadup Games
1408 Switch Galaxy Ultra Nov 20, 2015 $9.99N/A (N/A)20,000 .. 50,00000:00 (00:00)Atomicom LimitedGreen Man Gaming Publishing
1409 Devils & Demons Oct 6, 2015 $9.99N/A (N/A)50,000 .. 100,00000:00 (00:00)HandyGamesHandyGames
1410 Tompi Jones May 22, 2015 $3.99N/A (N/A)20,000 .. 50,00000:00 (00:00)DreamsSoftGamesDreamsSoftGames
1411 Goscurry Jan 16, 2015 $7.99N/A (N/A)0 .. 20,00000:00 (00:00)Daniele Giardini, Isak J MartinssonDemigiant
1412 XIIZEAL Jun 5, 2015 $11.99N/A (N/A)0 .. 20,00000:00 (00:00)TRIANGLE SERVICEDegica
1413 Combat Cats Mar 2, 2015 $2.99N/A (N/A)0 .. 20,00000:00 (00:00)Dingo DangoDingo Dango
1414 Ultimate Space Commando May 12, 2015 $9.99N/A (N/A)0 .. 20,00000:00 (00:00)Creatio 49Angry Cat Ltd.
1415 Crayon Chronicles Mar 2, 2015 $3.99N/A (N/A)0 .. 20,00000:00 (00:00)Outer Grid Games LLCOuter Grid Games LLC
1416 Ladra Nov 13, 2015 $1.99N/A (N/A)20,000 .. 50,00000:00 (00:00)Bright Flask GamesBright Flask Games
1417 Cute Things Dying Violently Sep 2, 2015 $2.99N/A (N/A)0 .. 20,00000:00 (00:00)ApathyWorks, LLCApathyWorks, LLC
1418 Déjà Vu: MacVenture Series Jan 26, 2015 $2.99N/A (N/A)20,000 .. 50,00000:00 (00:00)ZojoiZojoi
1419 Ashley Clark: The Secrets of the Ancient Temple Jun 29, 2015 $9.99N/A (N/A)0 .. 20,00000:00 (00:00)N-Tri StudioN-Tri Studio
1420 Astronaut Simulator Apr 2, 2015 $1.99N/A (N/A)0 .. 20,00000:00 (00:00)AstrosimerAstrosimer
1421 Dead But Alive! Southern England Oct 2, 2015 $14.99N/A (N/A)20,000 .. 50,00000:00 (00:00)Niels Bauer GamesNiels Bauer Games
1422 Minimon Mar 25, 2015 $9.99N/A (N/A)0 .. 20,00000:00 (00:00)Lunar LabsLunar Labs
1423 Crystal Catacombs Jan 15, 2015 $7.99N/A (N/A)0 .. 20,00000:00 (00:00)Levels or Lives, Super Fun GamesCrescent Moon Games
1424 Solar Shifter EX Sep 11, 2015 $4.99N/A (N/A)0 .. 20,00000:00 (00:00)Elder GamesHeadup Games
1425 liteCam Game 5: 120 FPS Game Capture + Streamer Dec 18, 2015 $19.99N/A (N/A)0 .. 20,00000:00 (00:00)Rsupport Inc.Rsupport Inc.
1426 Moonbase 332 May 20, 2015 $4.99N/A (N/A)20,000 .. 50,00000:00 (00:00)camefrom.space, Marco Sadowskicamefrom.space
1427 Star Trek: Judgment Rites May 8, 2015 $9.99N/A (N/A)20,000 .. 50,00000:00 (00:00)Interplay Entertainment Corp.Interplay Entertainment Corp.
1428 Viking Saga: The Cursed Ring Oct 29, 2015 $2.99N/A (N/A)0 .. 20,00000:00 (00:00)RealoreQumaron
1429 Samurai of Hyuga Jul 17, 2015 $3.99N/A (N/A)0 .. 20,00000:00 (00:00)Hosted GamesHosted Games
1430 Silver Creek Falls: Chapter 2 Sep 30, 2015 $4.99N/A (N/A)0 .. 20,00000:00 (00:00)Sapphire Dragon ProductionsSapphire Dragon Productions
1431 Mighty Switch Force! Academy Nov 23, 2015 $9.99N/A (N/A)0 .. 20,00000:00 (00:00)WayForwardWayForward
1432 Fist Slash: Of Ultimate Fury Dec 10, 2015 $0.99N/A (N/A)20,000 .. 50,00000:00 (00:00)Sinclair StrangeRising Star Games
1433 Mystery Castle: The Mirror's Secret Dec 18, 2015 $6.99N/A (N/A)20,000 .. 50,00000:00 (00:00)Meridian'931C Entertainment
1434 Treeker: The Lost Glasses Remake May 13, 2015 $2.99N/A (N/A)20,000 .. 50,00000:00 (00:00)Fernando PauloFernando Paulo
1435 Dungeon Crawlers HD Jun 1, 2015 $4.99N/A (N/A)0 .. 20,00000:00 (00:00)Drowning Monkeys GamesDrowning Monkeys Games
1436 TownCraft Feb 25, 2015 $9.99N/A (N/A)0 .. 20,00000:00 (00:00)Flat Earth Games, Epiphany GamesFlat Earth Games
1437 Tiamat X May 29, 2015 $1.99N/A (N/A)20,000 .. 50,00000:00 (00:00)BBQ GamesBBQ Games
1438 KRUM - Edge Of Darkness Nov 24, 2015 $2.99N/A (N/A)50,000 .. 100,00000:00 (00:00)HA Studio Ltd.HA Studio Ltd.
1439 Wave Mechanics Apr 23, 2015 $3.99N/A (N/A)0 .. 20,00000:00 (00:00)Adam TarnowskiAdam Tarnowski
1440 Replay - VHS is not dead Jul 9, 2015 $9.99N/A (N/A)20,000 .. 50,00000:00 (00:00)Team ReplayNeko Entertainment
1441 Inferno 2 Jul 29, 2015 $4.99N/A (N/A)0 .. 20,00000:00 (00:00)RadiangamesRadiangames
1442 Ratings War Oct 2, 2015 $2.99N/A (N/A)0 .. 20,00000:00 (00:00)Choice of GamesChoice of Games
1443 The Lost Heir: The Fall of Daria Feb 20, 2015 $2.99N/A (N/A)0 .. 20,00000:00 (00:00)Hosted GamesHosted Games
1444 Lost in Paradise Aug 20, 2015 $2.99N/A (N/A)20,000 .. 50,00000:00 (00:00)Elev8 GamesElev8 Games
1445 //SNOWFLAKE TATTOO// Mar 27, 2015 $4.99N/A (N/A)50,000 .. 100,00000:00 (00:00)Rail Slave GamesKPL
1446 Scarab Tales Jul 1, 2015 $4.99N/A (N/A)20,000 .. 50,00000:00 (00:00)Playito.comPlayito.com
1447 Color Symphony 2 Oct 16, 2015 $9.99N/A (N/A)0 .. 20,00000:00 (00:00)REMIMORYREMIMORY
1448 Puzzle Strike Dec 21, 2015 $14.99N/A (N/A)0 .. 20,00000:00 (00:00)Sirlin GamesSirlin Games
1449 Trap Them Jul 10, 2015 $4.99N/A (N/A)0 .. 20,00000:00 (00:00)Juri SchupiloJuri Schupilo
1450 Moorhuhn Invasion (Crazy Chicken Invasion) Feb 20, 2015 $3.99N/A (N/A)20,000 .. 50,00000:00 (00:00)DoyodoRetroism
1451 Buff Knight Advanced Sep 4, 2015 $2.99N/A (N/A)0 .. 20,00000:00 (00:00)Buff Studio Co.,Ltd.Buff Studio Co.,Ltd.
1452 Tachyon Project Jul 15, 2015 $9.99N/A (N/A)0 .. 20,00000:00 (00:00)Eclipse GamesEclipse Games
1453 Cricket Captain 2015 Jul 8, 2015 $9.99N/A (N/A)0 .. 20,00000:00 (00:00)Childish ThingsKISS ltd
1454 Starship Traveller Mar 11, 2015 $4.99N/A (N/A)0 .. 20,00000:00 (00:00)Tin Man GamesTin Man Games
1455 STAR-BOX: RPG Adventures in Space Aug 17, 2015 $4.99N/A (N/A)20,000 .. 50,00000:00 (00:00)Michael FlynnFlynnFour Games
1456 CDF Ghostship Jun 26, 2015 $9.99N/A (N/A)0 .. 20,00000:00 (00:00)MadAboutGamesStudiosMadAboutGamesStudios
1457 Ninja Guy Jan 5, 2015 $1.99N/A (N/A)20,000 .. 50,00000:00 (00:00)Immunity StudiosImmunity Studios
1458 Burnstar Mar 18, 2015 $4.99N/A (N/A)0 .. 20,00000:00 (00:00)Nerve Software LLCNerve Software LLC
1459 Wait - Extended Oct 29, 2015 $7.99N/A (N/A)0 .. 20,00000:00 (00:00)rest.less Gamesrest.less Games
1460 Aquadelic GT Mar 25, 2015 $4.99N/A (N/A)0 .. 20,00000:00 (00:00)Hammerware, s.r.o.Hammerware, s.r.o.
1461 This Starry Midnight We Make Jun 1, 2015 $9.99N/A (N/A)0 .. 20,00000:00 (00:00)CAVYHOUSECarpe Fulgur LLC
1462 Pale Echoes Dec 10, 2015 $4.99N/A (N/A)0 .. 20,00000:00 (00:00)Wyrmling ProductionsDegica
1463 Payroll Nov 10, 2015 $0.99N/A (N/A)0 .. 20,00000:00 (00:00)GZ Storm, AstrojoneAstrojone
1464 The Body Changer Oct 15, 2015 $29.99N/A (N/A)0 .. 20,00000:00 (00:00)TheShortAndTheTallTheShortAndTheTall
1465 The fall of gods Dec 18, 2015 $2.99N/A (N/A)20,000 .. 50,00000:00 (00:00)GeexGamesGeexGames
1466 SEEP Universe Jul 15, 2015 $2.99N/A (N/A)0 .. 20,00000:00 (00:00)SEEPSEEP
1467 Devilry Jun 30, 2015 $3.99N/A (N/A)0 .. 20,00000:00 (00:00)New StateNew State
1468 Tango Fiesta – 80’s Action Film meets 2D Top Down Multiplayer Co-Op Roguelike Military Shooter Sep 24, 2015 $9.99N/A (N/A)20,000 .. 50,00000:00 (00:00)Spilt Milk Studios LtdSpilt Milk Studios Ltd
1469 Reflections Jun 26, 2015 $9.99N/A (N/A)0 .. 20,00000:00 (00:00)Broken Window StudiosBroken Window Studios
1470 Guild Commander Jan 23, 2015 $14.99N/A (N/A)0 .. 20,00000:00 (00:00)GTGDGTGD
1471 Apothecarium: The Renaissance of Evil - Premium Edition May 28, 2015 $6.99N/A (N/A)20,000 .. 50,00000:00 (00:00)Space Monkey International1C Online Games
1472 True Bliss May 22, 2015 $5.99N/A (N/A)20,000 .. 50,00000:00 (00:00)Artur MandasKPL
1473 Prompt Jul 6, 2015 $4.99N/A (N/A)0 .. 20,00000:00 (00:00)Peter GutenkoPeter Gutenko
1474 Bad Sector HDD Sep 3, 2015 $0.99N/A (N/A)0 .. 20,00000:00 (00:00)Dan RuscoeDan Ruscoe
1475 Big Thinkers Kindergarten Aug 18, 2015 $6.99N/A (N/A)20,000 .. 50,00000:00 (00:00)Humongous EntertainmentHumongous Entertainment, Nightdive Studios
1476 The Guilt and the Shadow Feb 2, 2015 $8.99N/A (N/A)50,000 .. 100,00000:00 (00:00)oophokoophok
1477 DELTAZEAL Oct 16, 2015 $11.99N/A (N/A)0 .. 20,00000:00 (00:00)TRIANGLE SERVICEDegica
1478 The Great Fusion Feb 25, 2015 $2.99N/A (N/A)20,000 .. 50,00000:00 (00:00)Loading HomeLoading Home
1479 ManaCollect Apr 17, 2015 $6.99N/A (N/A)0 .. 20,00000:00 (00:00)Tazigen ClockFruitbat Factory
1480 ADventure Lib Aug 4, 2015 $1.99N/A (N/A)0 .. 20,00000:00 (00:00)Fancy Fish GamesFancy Fish Games
1481 Bleeding Border Nov 9, 2015 $0.99N/A (N/A)50,000 .. 100,00000:00 (00:00)Curse Box StudiosVolens Nolens Games
1482 We Are Legion Aug 7, 2015 $9.99N/A (N/A)0 .. 20,00000:00 (00:00)Pwnee StudiosPwnee Studios
1483 Big Thinkers 1st Grade Aug 18, 2015 $6.99N/A (N/A)20,000 .. 50,00000:00 (00:00)Humongous EntertainmentHumongous Entertainment, Nightdive Studios
1484 Caromble! Aug 27, 2015 $12.99N/A (N/A)0 .. 20,00000:00 (00:00)Crimson Owl StudiosCrimson Owl Studios
1485 Army of Pixels Oct 29, 2015 $4.99N/A (N/A)0 .. 20,00000:00 (00:00)Gergely Zsolnay, Richard MarkosGergely Zsolnay, Richard Markos
1486 Isbarah Feb 25, 2015 $13.99N/A (N/A)0 .. 20,00000:00 (00:00)Leikir StudioLeikir Studio
1487 MOAI 2: Path to Another World Apr 11, 2015 $7.99N/A (N/A)0 .. 20,00000:00 (00:00)Toyman Interactive, Alawar EntertainmentBuka Entertainment
1488 Death Tractor Oct 29, 2015 $0.99N/A (N/A)0 .. 20,00000:00 (00:00)Exato Game StudiosExato Game Studios
1489 Spirit of War Mar 12, 2015 $9.99N/A (N/A)20,000 .. 50,00000:00 (00:00)G-OLDPlug In Digital
1490 Afterlife Empire Aug 21, 2015 $4.99N/A (N/A)0 .. 20,00000:00 (00:00)Autobotika, Game Nation IncThe Fine Young Capitalists
1491 PhysDrive Nov 10, 2015 $0.98N/A (N/A)100,000 .. 200,00000:00 (00:00)Royal Deal GamesRoyal Deal Games
1492 Rhino's Rage Mar 4, 2015 $4.99N/A (N/A)50,000 .. 100,00000:00 (00:00)DefroidsDefroids
1493 Stay Dead Evolution Feb 4, 2015 $5.99N/A (N/A)20,000 .. 50,00000:00 (00:00)BrucefilmPlug In Digital
1494 Strania - The Stella Machina - Nov 24, 2015 $14.99N/A (N/A)0 .. 20,00000:00 (00:00)G.rev Ltd.G.rev Ltd.
1495 Farm Mania: Hot Vacation Oct 23, 2015 $3.99N/A (N/A)0 .. 20,00000:00 (00:00)RealoreQumaron
1496 Toto Temple Deluxe Sep 29, 2015 $9.99N/A (N/A)0 .. 20,00000:00 (00:00)Juicy BeastJuicy Beast
1497 Default Dan Jan 15, 2015 $5.99N/A (N/A)0 .. 20,00000:00 (00:00)Kikiwik GamesKikiwik Games
1498 Link: The Unleashed Nexus Aug 21, 2015 $9.99N/A (N/A)0 .. 20,00000:00 (00:00)ReminisceReminisce
1499 Boneless Zombie Jul 27, 2015 $4.99N/A (N/A)0 .. 20,00000:00 (00:00)Zoo CorporationZoo Corporation
1500 iaidoka_interlude Apr 24, 2015 $0.99N/A (N/A)0 .. 20,00000:00 (00:00)Blaze EpicBlaze Epic
1501 Akuatica Nov 27, 2015 $4.99N/A (N/A)0 .. 20,00000:00 (00:00)Tianyu StudioTianyu Studio
1502 Orion: A Sci-Fi Visual Novel Sep 28, 2015 $12.99N/A (N/A)20,000 .. 50,00000:00 (00:00)Cylight StudiosCylight Studios
1503 Hello Kitty and Sanrio Friends Racing Jul 9, 2015 $19.99N/A (N/A)0 .. 20,00000:00 (00:00)Scarab EntertainmentScarab Entertainment
1504 The Lost Battalion: All Out Warfare Apr 23, 2015 $0.99N/A (N/A)20,000 .. 50,00000:00 (00:00)Jake OlsonImpartial Studios
1505 Ferrum's Secrets: Where Is Grandpa? Aug 14, 2015 $4.99N/A (N/A)0 .. 20,00000:00 (00:00)EJRGamesEJRGames
1506 One Ship Two Ship Redshift Blueshift Sep 24, 2015 $8.99N/A (N/A)0 .. 20,00000:00 (00:00)HYPYRYLHYPYRYL
1507 Umihara Kawase Shun Nov 24, 2015 $11.99N/A (N/A)0 .. 20,00000:00 (00:00)Studio SaizensenDegica
1508 Sentinel 4: Dark Star Aug 13, 2015 $6.99N/A (N/A)0 .. 20,00000:00 (00:00)Origin8 Technologies LtdOrigin8 Technologies Ltd
1509 The Living Dungeon Nov 2, 2015 $9.99N/A (N/A)0 .. 20,00000:00 (00:00)RadiationBurnRadiationBurn
1510 Pulsen Jul 27, 2015 $14.99N/A (N/A)0 .. 20,00000:00 (00:00)4-Panel Footprint4-Panel Footprint
1511 Discouraged Workers TEEN Nov 24, 2015 $4.99N/A (N/A)0 .. 20,00000:00 (00:00)YGGDRASIL STUDIOYGGDRASIL STUDIO
1512 Daughter of Shadows: An SCP Breach Event Jun 26, 2015 $0.99N/A (N/A)0 .. 20,00000:00 (00:00)Blackrose IndustriesBlackrose Industries
1513 Rubber and Lead Sep 4, 2015 $4.99N/A (N/A)50,000 .. 100,00000:00 (00:00)Omega Point GamesCleverweek
1514 The Uninvited: MacVenture Series Jan 26, 2015 $2.99N/A (N/A)20,000 .. 50,00000:00 (00:00)ZojoiReverb Triple XP
1515 Dreamscape Feb 2, 2015 $9.99N/A (N/A)0 .. 20,00000:00 (00:00)Aldorlea GamesDegica
1516 Design it, Drive it : Speedboats Nov 28, 2015 $24.99N/A (N/A)0 .. 20,00000:00 (00:00)Performance SimulationsPerformance Simulations
1517 Planet Diver Nov 30, 2015 $3.99N/A (N/A)0 .. 20,00000:00 (00:00)FabrazFabraz
1518 Explosionade Sep 23, 2015 $3.99N/A (N/A)20,000 .. 50,00000:00 (00:00)Mommy's Best GamesMommy's Best Games
1519 Planetship Feb 6, 2015 $8.99N/A (N/A)0 .. 20,00000:00 (00:00)LaserWzzrd GamesLaserWzzrd Games
1520 The Ritual on Weylyn Island Dec 4, 2015 $11.99N/A (N/A)20,000 .. 50,00000:00 (00:00)zemaGamezzemaGamez
1521 Lost in a Forest Jan 21, 2015 $1.99N/A (N/A)0 .. 20,00000:00 (00:00)KonsordoKonsordo
1522 C-Wars Aug 13, 2015 $12.99N/A (N/A)0 .. 20,00000:00 (00:00)Onipunks Studio Inc.Onipunks Studio Inc.
1523 Ookibloks Oct 8, 2015 $1.99N/A (N/A)0 .. 20,00000:00 (00:00)Studio Work3, Lampert & Sons, Skyboy GamesSkyboy Games
1524 Gravity Error Aug 12, 2015 $4.99N/A (N/A)20,000 .. 50,00000:00 (00:00)Faris MohammedFaris Mohammed
1525 STEEL STRIDER Nov 12, 2015 $5.99N/A (N/A)20,000 .. 50,00000:00 (00:00)ASTRO PORTHenteko Doujin
1526 Sleep Attack May 28, 2015 $6.99N/A (N/A)0 .. 20,00000:00 (00:00)Bad SeedBad Seed
1527 Vector Strain Dec 9, 2015 $4.99N/A (N/A)20,000 .. 50,00000:00 (00:00)OMNIDREAM CREATIONSOMNIDREAM CREATIONS
1528 Natural Soccer Feb 2, 2015 $9.99N/A (N/A)0 .. 20,00000:00 (00:00)Thorsten SchleinzerThorsten Schleinzer
1529 Dungeon Manager ZV Oct 16, 2015 $9.99N/A (N/A)0 .. 20,00000:00 (00:00)StudioGIWZoo Corporation
1530 BOMB: Who let the dogfight? Aug 1, 2015 $7.99N/A (N/A)0 .. 20,00000:00 (00:00)La Moustache StudioLa Moustache Studio
1531 Cahors Sunset Jan 12, 2015 $1.99N/A (N/A)0 .. 20,00000:00 (00:00)LocomotivahLocomotivah
1532 The Defenders: The Second Wave Mar 30, 2015 $2.99N/A (N/A)20,000 .. 50,00000:00 (00:00)FallenMasterFallenMaster
1533 Redemption: Eternal Quest Aug 28, 2015 $0.99N/A (N/A)100,000 .. 200,00000:00 (00:00)SimProse StudiosTrinity Project
1534 Fuego! Nov 16, 2015 $4.99N/A (N/A)0 .. 20,00000:00 (00:00)radiostaticradiostatic
1535 Sandmason May 4, 2015 $3.99N/A (N/A)0 .. 20,00000:00 (00:00)GoodVoleGoodVole
1536 Spaceman Sparkles 2 May 20, 2015 $2.99N/A (N/A)20,000 .. 50,00000:00 (00:00)tjerntjern
1537 Warriors & Castles Jun 30, 2015 $2.99N/A (N/A)20,000 .. 50,00000:00 (00:00)Estudio Raed WulfEstudio Raed Wulf
1538 Ski Park Tycoon Feb 3, 2015 $9.99N/A (N/A)0 .. 20,00000:00 (00:00)Jan ZizkaJan Zizka
1539 AdvertCity Apr 17, 2015 $19.99N/A (N/A)0 .. 20,00000:00 (00:00)VoxelStormVoxelStorm
1540 Showing Tonight: Mindhunters Incident Nov 12, 2015 $2.99N/A (N/A)20,000 .. 50,00000:00 (00:00)phime studio LLCphime studio LLC
1541 Wave of Darkness Nov 5, 2015 $29.99N/A (N/A)20,000 .. 50,00000:00 (00:00)DreamatrixDreamatrix
1542 Wars of Napoleon Dec 3, 2015 $39.99N/A (N/A)20,000 .. 50,00000:00 (00:00)AgeodSlitherine Ltd.
1543 Club Manager 2016 Nov 19, 2015 $19.99N/A (N/A)0 .. 20,00000:00 (00:00)BigBlaze Games2tainment GmbH
1544 Steam and Metal Feb 9, 2015 $4.99N/A (N/A)0 .. 20,00000:00 (00:00)MaltakreuzMaltakreuz
1545 Snake Blocks Dec 21, 2015 $4.99N/A (N/A)20,000 .. 50,00000:00 (00:00)Spooky CatSpooky Cat
1546 Vektor Wars Jun 4, 2015 $9.99N/A (N/A)0 .. 20,00000:00 (00:00)Reset Games LtdReset Games Ltd
1547 Odysseus: Long Way Home Feb 23, 2015 $3.99N/A (N/A)50,000 .. 100,00000:00 (00:00)Rainbow GamesRainbow Games
1548 Tic-Toc-Tower Sep 28, 2015 $2.99N/A (N/A)20,000 .. 50,00000:00 (00:00)Sneaky MammothSOEDESCO
1549 FreezeME Dec 10, 2015 $13.99N/A (N/A)0 .. 20,00000:00 (00:00)Rainy Night CreationsRainy Night Creations
1550 Will Fight for Food: Super Actual Sellout: Game of the Hour Apr 22, 2015 $4.99N/A (N/A)20,000 .. 50,00000:00 (00:00)PyrodactylPyrodactyl
1551 True Lover's Knot Nov 19, 2015 $6.99N/A (N/A)20,000 .. 50,00000:00 (00:00)Sapphire Dragon ProductionsSapphire Dragon Productions
1552 The Last Warlock Aug 24, 2015 $4.99N/A (N/A)0 .. 20,00000:00 (00:00)Sonic SlothSonic Sloth
1553 stratO Jun 1, 2015 $4.99N/A (N/A)0 .. 20,00000:00 (00:00)Mark ChongMark Chong
1554 Garden Rescue: Christmas Edition Nov 9, 2015 $3.99N/A (N/A)20,000 .. 50,00000:00 (00:00)Rainbow GamesRainbow Games
1555 Twilight City: Love as a Cure Dec 18, 2015 $6.99N/A (N/A)0 .. 20,00000:00 (00:00)Meridian'931C Entertainment
1556 Swords & Crossbones: An Epic Pirate Story Sep 30, 2015 $4.99N/A (N/A)0 .. 20,00000:00 (00:00)Epic Devs LLCEpic Devs LLC
1557 Orbit HD Mar 18, 2015 $1.99N/A (N/A)20,000 .. 50,00000:00 (00:00)BrainchildBrainchild
1558 Stones of Sorrow May 26, 2015 $2.99N/A (N/A)50,000 .. 100,00000:00 (00:00)Cult SoftwareCult Software
1559 Pure Hold'em Aug 20, 2015 $19.99N/A (N/A)0 .. 20,00000:00 (00:00)VooFoo StudiosRipstone
1560 Quarries of Scred Apr 22, 2015 $5.99N/A (N/A)0 .. 20,00000:00 (00:00)Hammerspace GamesHammerspace Games
1561 Yet Another World Nov 30, 2015 $7.99N/A (N/A)50,000 .. 100,00000:00 (00:00)Energy MilkEnergy Milk
1562 Demon Hearts Aug 7, 2015 $3.99N/A (N/A)0 .. 20,00000:00 (00:00)Jon Harwood Games LLCJon Harwood Games LLC
1563 Disposable Heroes Oct 1, 2015 $1.99N/A (N/A)20,000 .. 50,00000:00 (00:00)Ben ApriglianoEvilized productions
1564 Osteya Nov 20, 2015 $3.99N/A (N/A)50,000 .. 100,00000:00 (00:00)Volens Nolens GamesVolens Nolens Games
1565 Dungeon Hero Jul 7, 2015 $9.99N/A (N/A)20,000 .. 50,00000:00 (00:00)Grzegorz SlazinskiGrzegorz Slazinski
1566 Days Under Custody Nov 23, 2015 $4.99N/A (N/A)20,000 .. 50,00000:00 (00:00)Abraham CarreolaGroupees Interactive
1567 The Interview Feb 3, 2015 $1.99N/A (N/A)0 .. 20,00000:00 (00:00)AnothinkAnothink
1568 JUDGEMENT SILVERSWORD - Resurrection - Sep 18, 2015 $4.99N/A (N/A)0 .. 20,00000:00 (00:00)QuteDegica
1569 Mighty Switch Force! Hose It Down! Jun 4, 2015 $2.99N/A (N/A)0 .. 20,00000:00 (00:00)WayForwardWayForward
1570 BRAWL Aug 13, 2015 $14.99N/A (N/A)0 .. 20,00000:00 (00:00)Bloober Team SABloober Team SA
1571 Mighty Dungeons Mar 3, 2015 $4.99N/A (N/A)20,000 .. 50,00000:00 (00:00)Yohan Launay, Frederic GaillardLaylio Games, Fire Biscuit Gaming
1572 Luminosity Apr 9, 2015 $4.99N/A (N/A)20,000 .. 50,00000:00 (00:00)Windmill GamesWindmill Games
1573 Weapon of Choice Sep 23, 2015 $4.99N/A (N/A)20,000 .. 50,00000:00 (00:00)Mommy's Best GamesMommy's Best Games
1574 Hidden: On the trail of the Ancients Aug 5, 2015 $9.99N/A (N/A)0 .. 20,00000:00 (00:00)Lost SpellLost Spell
1575 BlastZone 2 Feb 19, 2015 $9.99N/A (N/A)20,000 .. 50,00000:00 (00:00)Matt EdzengaStrategy First
1576 Masterspace Jun 15, 2015 $4.99N/A (N/A)0 .. 20,00000:00 (00:00)MastertechMastertech
1577 Time Ramesside (A New Reckoning) May 1, 2015 $7.99N/A (N/A)50,000 .. 100,00000:00 (00:00)Panzer Gaming StudiosPanzer Gaming Studios
1578 Roads of Rome Oct 16, 2015 $3.99N/A (N/A)0 .. 20,00000:00 (00:00)WhiterraQumaron
1579 Car Mechanic Manager Sep 23, 2015 $0.49N/A (N/A)50,000 .. 100,00000:00 (00:00)InImagesManager Games S.A.
1580 SoulCraft Jun 1, 2015 $4.99N/A (N/A)20,000 .. 50,00000:00 (00:00)MobileBitsHeadup Games
1581 Comic Book Hero: The Greatest Cape Dec 9, 2015 $19.99N/A (N/A)50,000 .. 100,00000:00 (00:00)Grey Dog SoftwareViva Media
1582 Kumoon : Ballistic Physics Puzzle Nov 10, 2015 $2.99N/A (N/A)20,000 .. 50,00000:00 (00:00)Lucky You StudioLucky You Studio
1583 Heroes of Loot May 25, 2015 $4.99N/A (N/A)0 .. 20,00000:00 (00:00)OrangepixelOrangepixel
1584 Shred! Downhill Mountain Biking Jul 8, 2015 $2.99N/A (N/A)0 .. 20,00000:00 (00:00)ASBO InteractiveASBO Interactive
1585 Mystery of Neuschwanstein Feb 18, 2015 $11.99N/A (N/A)0 .. 20,00000:00 (00:00)Chimera Entertainmentastragon Entertainment
1586 Galagan's Island: Reprymian Rising Jun 12, 2015 $1.99N/A (N/A)0 .. 20,00000:00 (00:00)Skinny Jean Death StudiosForever Humble PDX
1587 Incredible Dracula: Chasing Love Collector's Edition Nov 29, 2015 $9.99N/A (N/A)0 .. 20,00000:00 (00:00)New Bridge GamesAlawar Entertainment
1588 Keebles Mar 27, 2015 $9.99N/A (N/A)20,000 .. 50,00000:00 (00:00)Burnt FuseGreen Man Gaming Publishing
1589 City of Fools Jul 10, 2015 $7.99N/A (N/A)20,000 .. 50,00000:00 (00:00)Absolutist Ltd.Absolutist Ltd.
1590 Shoppy Mart: Steam Edition Sep 25, 2015 $1.99N/A (N/A)0 .. 20,00000:00 (00:00)PezomiPezomi
1591 The Mystery of a Lost Planet Dec 17, 2015 $4.99N/A (N/A)20,000 .. 50,00000:00 (00:00)AlikArt StudioAlikArt Studio
1592 Airport Simulator 2015 Apr 22, 2015 $17.99N/A (N/A)20,000 .. 50,00000:00 (00:00)LinkSolutions Ltd.rondomedia GmbH
1593 Ashes of Immortality Jun 26, 2015 $9.99N/A (N/A)50,000 .. 100,00000:00 (00:00)Warfare StudiosWarfare Studios
1594 Diadra Empty Jul 21, 2015 $5.99N/A (N/A)0 .. 20,00000:00 (00:00)Frozen OrbRockin' Android
1595 Shin Samurai Jazz Mar 16, 2015 $0.99N/A (N/A)0 .. 20,00000:00 (00:00)Blaze EpicBlaze Epic
1596 Pulut Adventure Jul 9, 2015 $1.99N/A (N/A)20,000 .. 50,00000:00 (00:00)yayapipiYayapipi Studio
1597 Aero's Quest Jun 8, 2015 $4.99N/A (N/A)0 .. 20,00000:00 (00:00)Soloweb Studios, Ravens Eye StudioSoloweb Studios
1598 The Battle of Sol Jul 1, 2015 $9.99N/A (N/A)20,000 .. 50,00000:00 (00:00)Bit Planet Games, LLCBit Planet Games, LLC
1599 Sword Daughter Feb 13, 2015 $4.99N/A (N/A)20,000 .. 50,00000:00 (00:00)HanabiraHanako Games
1600 Swapperoo Dec 18, 2015 $4.99N/A (N/A)0 .. 20,00000:00 (00:00)Fallen Tree Games LtdFallen Tree Games Ltd
1601 Mystery of Unicorn Castle: The Beastmaster Dec 2015 $6.99N/A (N/A)20,000 .. 50,00000:00 (00:00)Meridian'931C Entertainment
1602 Lost Legends: The Weeping Woman Collector's Edition Oct 21, 2015 $7.99N/A (N/A)0 .. 20,00000:00 (00:00)Gunnar GamesGunnar Games
1603 AquaSnap Window Manager Dec 18, 2015 $18.99N/A (N/A)20,000 .. 50,00000:00 (00:00)Nurgo SoftwareNurgo Software
1604 Ninjahtic Jul 6, 2015 $1.99N/A (N/A)20,000 .. 50,00000:00 (00:00)Blaze EpicBlaze Epic
1605 The Dreamatorium of Dr. Magnus 2 Sep 9, 2015 $7.99N/A (N/A)20,000 .. 50,00000:00 (00:00)Two DesperadosTwo Desperados
1606 Last Heroes Nov 13, 2015 $2.99N/A (N/A)20,000 .. 50,00000:00 (00:00)Warfare StudiosAldorlea Games
1607 Armor Clash Oct 22, 2015 $6.99N/A (N/A)0 .. 20,00000:00 (00:00)WindforceWindforce
1608 DEUS EX MACHINA 2 Mar 11, 2015 $6.99N/A (N/A)0 .. 20,00000:00 (00:00)Automata Source, QuirkafleegAutomata Source, Potassium Frog
1609 Island Defense Jul 23, 2015 $1.99N/A (N/A)50,000 .. 100,00000:00 (00:00)Stereo7 GamesStereo7 Games
1610 1,000 Heads Among the Trees Dec 11, 2015 $4.99N/A (N/A)100,000 .. 200,00000:00 (00:00)Aaron OldenburgKISS ltd
1611 Mechs & Mercs: Black Talons Jan 9, 2015 $9.99N/A (N/A)20,000 .. 50,00000:00 (00:00)Camel 101Camel 101
1612 Abyss Raiders: Uncharted Apr 30, 2015 $4.99N/A (N/A)50,000 .. 100,00000:00 (00:00)DarkStar GamesDarkStar Games
1613 The Undying Plague Apr 10, 2015 $0.99N/A (N/A)100,000 .. 200,00000:00 (00:00)Pixel Theory GamesPixel Theory Games
1614 Nusakana Nov 19, 2015 $8.99N/A (N/A)20,000 .. 50,00000:00 (00:00)Studio NamaapaStudio Namaapa
1615 Zenohell Oct 15, 2015 $9.99N/A (N/A)20,000 .. 50,00000:00 (00:00)Team Grybanser FoxTeam Grybanser Fox
1616 Adventures of Robinson Crusoe Jan 9, 2015 $9.99N/A (N/A)20,000 .. 50,00000:00 (00:00)MagicIndieMumboJumbo
1617 VERLIES II Sep 25, 2015 $8.99N/A (N/A)20,000 .. 50,00000:00 (00:00)Koya GameKoya Game
1618 Duck Life: Retro Pack May 11, 2015 $1.99N/A (N/A)0 .. 20,00000:00 (00:00)Wix GamesMoFunZone Inc.
1619 Dodge Mar 16, 2015 $1.99N/A (N/A)20,000 .. 50,00000:00 (00:00)YokcosYokcos
1620 TankZone Battle Sep 21, 2015 $9.99N/A (N/A)0 .. 20,00000:00 (00:00)Render SystemRender System
1621 4089: Ghost Within Jan 9, 2015 $1.79N/A (N/A)0 .. 20,00000:00 (00:00)Phr00t's SoftwarePhr00t's Software
1622 Luna's Wandering Stars May 15, 2015 $9.99N/A (N/A)20,000 .. 50,00000:00 (00:00)Serenity ForgeSerenity Forge
1623 Circuit Breakers Nov 17, 2015 $6.99N/A (N/A)50,000 .. 100,00000:00 (00:00)TriverskeTriverske, Excalibur Games
1624 Snik Sep 4, 2015 $2.99N/A (N/A)50,000 .. 100,00000:00 (00:00)CleverweekCleverweek
1625 Curses 'N Chaos Aug 18, 2015 $9.99N/A (N/A)20,000 .. 50,00000:00 (00:00)Tribute Games Inc.Tribute Games Inc.
1626 Pitiri 1977 Jan 3, 2015 $3.99N/A (N/A)0 .. 20,00000:00 (00:00)ILIKESCIFI GamesILIKESCIFI Games
1627 Project Pulsation Dec 15, 2015 $4.99N/A (N/A)50,000 .. 100,00000:00 (00:00)VGstudioVGstudio
1628 Robbery Bob: Man of Steal Oct 21, 2015 $7.99N/A (N/A)0 .. 20,00000:00 (00:00)Level Eight ABLevel Eight AB
1629 Rack N Ruin Sep 1, 2015 $9.99N/A (N/A)0 .. 20,00000:00 (00:00)LifeSpark EntertainmentLifeSpark Entertainment
1630 Neoncube Oct 2, 2015 $0.99N/A (N/A)0 .. 20,00000:00 (00:00)David Lawrence, Nico ThomasDavid Lawrence
1631 samurai_jazz Jan 27, 2015 $0.99N/A (N/A)0 .. 20,00000:00 (00:00)Blaze EpicBlaze Epic
1632 Plastiland Dec 1, 2015 $7.99N/A (N/A)0 .. 20,00000:00 (00:00)FreshGem, Zillion WhalesZillion Whales
1633 Discouraged Workers Sep 16, 2015 $14.9998% (59%)0 .. 20,00000:00 (00:00)YGGDRASIL STUDIOYGGDRASIL STUDIO
1634 Scribble Space Jun 1, 2015 $1.99N/A (N/A)50,000 .. 100,00000:00 (00:00)Coty GetzelmanN/A
1635 Block Legend DX Feb 24, 2015 $4.99N/A (N/A)20,000 .. 50,00000:00 (00:00)Hanaji GamesHanaji Games, Gamera Game
1636 Nightside Apr 2, 2015 $4.99N/A (N/A)20,000 .. 50,00000:00 (00:00)OMNIDREAM CREATIONSOMNIDREAM CREATIONS
1637 Idol Hands Feb 18, 2015 $4.99N/A (N/A)20,000 .. 50,00000:00 (00:00)Pocket Games, Fluid Games, GodSpeed GamesGreen Man Gaming Publishing
1638 RETSNOM Jul 23, 2015 $4.99N/A (N/A)0 .. 20,00000:00 (00:00)SomiZero Rock Entertainment
1639 Vampire of the Sands Jul 17, 2015 $4.99N/A (N/A)0 .. 20,00000:00 (00:00)HomphHomph LLC
1640 Solitaire Christmas. Match 2 Cards Dec 24, 2015 $4.99N/A (N/A)100,000 .. 200,00000:00 (00:00)Creobit8Floor
1641 Aces of the Luftwaffe May 6, 2015 $4.99N/A (N/A)20,000 .. 50,00000:00 (00:00)HandyGamesHandyGames
1642 Sumo Revise Jun 25, 2015 $4.99N/A (N/A)50,000 .. 100,00000:00 (00:00)John Szymanski, Evan Szymanski, David SzymanskiJohn Szymanski
1643 Blind Love Jun 28, 2015 $0.99N/A (N/A)0 .. 20,00000:00 (00:00)Michaela LawsMichaela Laws
1644 Kings of Israel Dec 21, 2015 $4.99N/A (N/A)0 .. 20,00000:00 (00:00)Alastair John Jack, Lance HillFunhill Games
1645 Heroes Never Lose: Professor Puzzler's Perplexing Ploy Nov 23, 2015 $8.99N/A (N/A)0 .. 20,00000:00 (00:00)Magic PantsSpearhead
1646 The Adventures of Fatman Oct 1, 2015 $0.99N/A (N/A)20,000 .. 50,00000:00 (00:00)SOCKO! EntertainmentScreen 7
1647 Brighter Day Jul 17, 2015 $2.99N/A (N/A)0 .. 20,00000:00 (00:00)girl softwaregirl software
1648 Plush Feb 13, 2015 $0.99N/A (N/A)0 .. 20,00000:00 (00:00)Red Head GamesRed Head Games
1649 Funk of Titans Jul 24, 2015 $6.99N/A (N/A)0 .. 20,00000:00 (00:00)A Crowd of MonstersMerge Games
1650 Curse of the Crescent Isle DX Aug 21, 2015 $0.99N/A (N/A)20,000 .. 50,00000:00 (00:00)Adam MoweryAdam Mowery
1651 Alone in the Dark: Illumination Jun 11, 2015 $19.99N/A (N/A)20,000 .. 50,00000:00 (00:00)Pure FPSTHQ Nordic
1652 Arvale Aug 14, 2015 $7.99N/A (N/A)20,000 .. 50,00000:00 (00:00)Jaybot7Aldorlea Games
1653 Forsaken Fortress Strategy Sep 18, 2015 $9.99N/A (N/A)20,000 .. 50,00000:00 (00:00)Photon ArenaKISS ltd
1654 Shallow Space Oct 21, 2015 $14.99N/A (N/A)0 .. 20,00000:00 (00:00)astragon Sales & Services GmbH
1655 Idol Magical Girl Chiru Chiru Michiru Part 2 Jul 29, 2015 $19.99N/A (N/A)20,000 .. 50,00000:00 (00:00)FrontwingFrontwing USA
1656 An Assassin in Orlandes May 12, 2015 $4.99N/A (N/A)0 .. 20,00000:00 (00:00)Tin Man GamesTin Man Games
1657 Vintage Year Jan 2, 2015 $3.99N/A (N/A)20,000 .. 50,00000:00 (00:00)Nooner Bear Studio LLCNooner Bear Studio LLC
1658 Song of the Myrne: What Lies Beneath Jan 13, 2015 $4.99N/A (N/A)0 .. 20,00000:00 (00:00)Beldarak GamesBeldarak Games
1659 Stranded In Time Jul 17, 2015 $0.99N/A (N/A)50,000 .. 100,00000:00 (00:00)DQ Team, Hidden Hallow StudioValkyrieInitiative
1660 Power of Love Jul 21, 2015 $0.99N/A (N/A)20,000 .. 50,00000:00 (00:00)Yang SunYang Sun
1661 One Last Day Apr 28, 2015 $12.99N/A (N/A)0 .. 20,00000:00 (00:00)Bloodwolf StudioBloodwolf Studio
1662 Last Days of Spring Visual Novel Oct 7, 2015 $2.99N/A (N/A)20,000 .. 50,00000:00 (00:00)Sapphire Dragon ProductionsSapphire Dragon Productions
1663 Vapour Jul 3, 2015 $9.99N/A (N/A)50,000 .. 100,00000:00 (00:00)Skobbejak Games, SkermunkelSkermunkel, Skobbejak Games
1664 Farm Frenzy: Heave Ho Aug 26, 2015 $4.99N/A (N/A)20,000 .. 50,00000:00 (00:00)Alawar Stargaze, Alawar EntertainmentBuka Entertainment
1665 Loot Hound Nov 17, 2015 $7.99N/A (N/A)0 .. 20,00000:00 (00:00)Rhizome Games™Rhizome Games™
1666 ChargeShot Sep 18, 2015 $9.99N/A (N/A)20,000 .. 50,00000:00 (00:00)Cowboy ColorCowboy Color
1667 Reload Feb 13, 2015 $4.99N/A (N/A)0 .. 20,00000:00 (00:00)Top3Line s.r.o.Mastiff
1668 Loot Hunter Jan 23, 2015 $6.99N/A (N/A)0 .. 20,00000:00 (00:00)Rake in GrassRake in Grass
1669 The Big Secret of a Small Town Mar 2, 2015 $6.99N/A (N/A)20,000 .. 50,00000:00 (00:00)FlenxBuka Entertainment
1670 Miner Mayhem Sep 23, 2015 $2.99N/A (N/A)20,000 .. 50,00000:00 (00:00)Anarchy EnterprisesAnarchy Enterprises
1671 Riding Out Dec 24, 2015 $19.99N/A (N/A)0 .. 20,00000:00 (00:00)UnexEvoUnexEvo
1672 Farm Frenzy: Hurricane Season Apr 1, 2015 $6.99N/A (N/A)0 .. 20,00000:00 (00:00)Alawar Stargaze, Alawar EntertainmentBuka Entertainment
1673 Gigachess Dec 15, 2015 $3.99N/A (N/A)0 .. 20,00000:00 (00:00)Drixxel SoftDrixxel Soft
1674 Kill The Plumber Dec 31, 2015 $4.99N/A (N/A)0 .. 20,00000:00 (00:00)Keybol, Iskander AminovTekitown
1675 Adventurezator: When Pigs Fly Sep 17, 2015 $19.99N/A (N/A)20,000 .. 50,00000:00 (00:00)Pigasus GamesDegica
1676 Supreme: Pizza Empire Jan 9, 2015 $9.99N/A (N/A)0 .. 20,00000:00 (00:00)Nexeon StudiosNexeon Studios
1677 Towers of Altrac - Epic Defense Battles Jan 5, 2015 $2.99N/A (N/A)20,000 .. 50,00000:00 (00:00)Jsmael Stieger, Manuel Stieger, Andreas StiegerCybertron Design Studios
1678 Ghost Encounters: Deadwood - Collector's Edition Mar 13, 2015 $6.99N/A (N/A)20,000 .. 50,00000:00 (00:00)Anarchy EnterprisesAnarchy Enterprises
1679 Luna Sky Oct 2, 2015 $12.99N/A (N/A)50,000 .. 100,00000:00 (00:00)Vovoid Media Technologies ABKISS ltd
1680 Remnants Of Isolation May 1, 2015 $1.99N/A (N/A)50,000 .. 100,00000:00 (00:00)Team IsolationDegica
1681 Stargazer May 28, 2015 $4.99N/A (N/A)50,000 .. 100,00000:00 (00:00)John WizardAmaranth Games
1682 Top Trumps Turbo Mar 20, 2015 $2.99N/A (N/A)0 .. 20,00000:00 (00:00)Good Day Games, NYX DigitalFunbox Media Ltd
1683 Reign of Bullets Aug 19, 2015 $9.99N/A (N/A)0 .. 20,00000:00 (00:00)Critical BitCritical Bit, Triangle Studios
1684 Mirrored - Chapter 1 Oct 30, 2015 $0.99N/A (N/A)20,000 .. 50,00000:00 (00:00)Kelkafa Studios, Cardboard Sword Limited, Jet Stone StudiosKelkafa Studios
1685 Super Trench Attack 2 Nov 6, 2015 $2.99N/A (N/A)20,000 .. 50,00000:00 (00:00)Retro Army Limitedpaulstephendavis
1686 Lex Mortis Feb 9, 2015 $4.99N/A (N/A)50,000 .. 100,00000:00 (00:00)Denis EsieDenis Esie
1687 Shadows on the Vatican Act II: Wrath Oct 26, 2015 $6.99N/A (N/A)20,000 .. 50,00000:00 (00:00)Daring Touch, 10th Art StudioAdventure Productions, Daring Touch
1688 A-Train 9 V4.0 : Japan Rail Simulator Oct 21, 2015 $59.99N/A (N/A)0 .. 20,00000:00 (00:00)ARTDINKDegica
1689 Way of Gold and Steel Aug 17, 2015 $8.99N/A (N/A)20,000 .. 50,00000:00 (00:00)Sergey BobrovSergey Bobrov
1690 Crocotile 3D May 7, 2015 $24.99N/A (N/A)0 .. 20,00000:00 (00:00)Alex Hanson-WhiteAlex Hanson-White
1691 Living Legends: The Frozen Fear Collection Oct 13, 2015 $19.99N/A (N/A)20,000 .. 50,00000:00 (00:00)4Friends GamesViva Media
1692 Star Trek: Starfleet Academy May 8, 2015 $9.99N/A (N/A)50,000 .. 100,00000:00 (00:00)Interplay Entertainment Corp.Interplay Entertainment Corp.
1693 Gon' E-Choo! Nov 25, 2015 $0.99N/A (N/A)0 .. 20,00000:00 (00:00)Marc EllisMarc Ellis
1694 Olympia Rising Jul 23, 2015 $4.99N/A (N/A)20,000 .. 50,00000:00 (00:00)PaleozoicPaleozoic
1695 Labyrinth Simulator Sep 21, 2015 $4.99N/A (N/A)0 .. 20,00000:00 (00:00)Phoenix Game and Publisher StudioPhoenix Game and Publisher Studio
1696 ALPAGES : THE FIVE BOOKS Oct 14, 2015 $0.99N/A (N/A)20,000 .. 50,00000:00 (00:00)Nicolas BernardMicroids Indie
1697 Cardinal Quest 2 Nov 23, 2015 $4.99N/A (N/A)0 .. 20,00000:00 (00:00)Randomnine LtdRandomnine Ltd
1698 Breezeblox May 15, 2015 $2.99N/A (N/A)20,000 .. 50,00000:00 (00:00)Pugsley LLCPugsley LLC
1699 All My Gods Oct 13, 2015 $3.99N/A (N/A)0 .. 20,00000:00 (00:00)RealoreQumaron
1700 Kanji Training Game Sep 23, 2015 $4.99N/A (N/A)0 .. 20,00000:00 (00:00)Targhen GamesTarghen Games
1701 Rescue Team 5 Sep 30, 2015 $3.99N/A (N/A)0 .. 20,00000:00 (00:00)RionixAlawar Entertainment
1702 Three Digits Aug 14, 2015 $1.99N/A (N/A)200,000 .. 500,00000:00 (00:00)CleverweekCleverweek
1703 Hollywood Visionary May 1, 2015 $4.99N/A (N/A)0 .. 20,00000:00 (00:00)Choice of GamesChoice of Games
1704 Asguaard Apr 10, 2015 $14.99N/A (N/A)0 .. 20,00000:00 (00:00)Aldorlea GamesAldorlea Games
1705 Adventure in the Tower of Flight Dec 23, 2015 $4.99N/A (N/A)0 .. 20,00000:00 (00:00)Pixel Barrage Entertainment, Inc.Pixel Barrage Entertainment, Inc.
1706 Pendragon Rising Dec 4, 2015 $3.99N/A (N/A)0 .. 20,00000:00 (00:00)Choice of GamesChoice of Games
1707 The Rivers of Alice - Extended Version Nov 16, 2015 $7.99N/A (N/A)0 .. 20,00000:00 (00:00)Delirium Studios, pequeño salto mortalMerge Games, Tagstar Games, Delirium Studios
1708 The Hero of Kendrickstone Mar 13, 2015 $4.99N/A (N/A)0 .. 20,00000:00 (00:00)Choice of GamesChoice of Games
1709 Lumber Island - That Special Place Oct 1, 2015 $4.99N/A (N/A)20,000 .. 50,00000:00 (00:00)DeanForgeDeanForge
1710 Hit Tank PRO Dec 2, 2015 $2.99N/A (N/A)50,000 .. 100,00000:00 (00:00)Bacq StellanOtakuMaker.com
1711 Velocity 2X Aug 19, 2015 N/AN/A (N/A)50,000 .. 100,00000:00 (00:00)FuturLabSierra
1712 Airport Madness: Time Machine Sep 18, 2015 $6.99N/A (N/A)20,000 .. 50,00000:00 (00:00)Big Fat Simulations Inc.Big Fat Simulations Inc.
1713 The Seven Years War (1756-1763) Oct 30, 2015 $19.99N/A (N/A)20,000 .. 50,00000:00 (00:00)Oliver KeppelmüllerOliver Keppelmüller
1714 Air Guardians Jan 26, 2015 $0.99N/A (N/A)50,000 .. 100,00000:00 (00:00)Lazy Bum GamesLazy Bum Games
1715 Waves 2: Notorious Dec 16, 2015 $7.99N/A (N/A)0 .. 20,00000:00 (00:00)Squid In A Box LtdSquid In A Box Ltd
1716 Miracle Fly Oct 26, 2015 $7.99N/A (N/A)20,000 .. 50,00000:00 (00:00)ElagoTechElagoTech
1717 Vortex Attack: ボルテックスアタック May 27, 2015 $7.99N/A (N/A)20,000 .. 50,00000:00 (00:00)KaleidoGamesKaleidoGames
1718 Stardust Vanguards Jan 30, 2015 $3.99N/A (N/A)20,000 .. 50,00000:00 (00:00)Zanrai InteractiveZanrai Interactive
1719 Infinite Space III: Sea of Stars Oct 29, 2015 $4.99N/A (N/A)20,000 .. 50,00000:00 (00:00)Digital EelDigital Eel
1720 Night Shift Feb 23, 2015 $4.99N/A (N/A)20,000 .. 50,00000:00 (00:00)Brandon BrizziBrandon Brizzi
1721 Chronicle Keepers: The Dreaming Garden Jun 11, 2015 $0.49N/A (N/A)20,000 .. 50,00000:00 (00:00)Novaq GamesUltimate Games S.A.
1722 Untamed: Life Of A Cougar Aug 27, 2015 $14.99N/A (N/A)0 .. 20,00000:00 (00:00)OCCA StudiosStrategy First
1723 Nancy Drew: Sea of Darkness May 19, 2015 $19.99N/A (N/A)0 .. 20,00000:00 (00:00)HeR InteractiveHeR Interactive
1724 Luxor HD May 11, 2015 $9.99N/A (N/A)20,000 .. 50,00000:00 (00:00)MumboJumboMumboJumbo
1725 Dragonpath Dec 14, 2015 $7.99N/A (N/A)20,000 .. 50,00000:00 (00:00)Ebonscale GamesEbonscale Games
1726 MODO indie Sep 24, 2015 N/AN/A (N/A)0 .. 20,00000:00 (00:00)FoundryFoundry
1727 Incandescent Jun 30, 2015 $0.99N/A (N/A)50,000 .. 100,00000:00 (00:00)Stephen CrabbStephen Crabb
1728 Into the Void Dec 4, 2015 $1.99N/A (N/A)20,000 .. 50,00000:00 (00:00)Mozg LabsMozg Labs
1729 RPG Maker 2000 Jul 13, 2015 $24.99N/A (N/A)20,000 .. 50,00000:00 (00:00)Gotcha Gotcha Games, KADOKAWA, Yoji OjimaDegica
1730 Proto Raider Aug 28, 2015 $11.99N/A (N/A)20,000 .. 50,00000:00 (00:00)Puzzle LabPuzzle Lab
1731 Malebolgia May 6, 2015 $12.99N/A (N/A)20,000 .. 50,00000:00 (00:00)DascuMaruDascuMaru
1732 Joe's Diner Mar 31, 2015 $7.99N/A (N/A)0 .. 20,00000:00 (00:00)VIS-GamesUnited Independent Entertainment GmbH
1733 868-HACK Jan 27, 2015 $5.65N/A (N/A)0 .. 20,00000:00 (00:00)Michael BroughMichael Brough
1734 Caveman Craig Aug 28, 2015 $4.99N/A (N/A)0 .. 20,00000:00 (00:00)Parabox GamesParabox Games
1735